ECMWFNIL_925_spd_000.txt.gz
Wind_Speed
22 23 23 21 21 20 19 19 17 16 16 17 17 16 16 14 12 11 10 9 9 9 10 9 9 9 9 9 9 9 9 9 9 8 9 10 9 10 10 8 10 9
22 22 22 21 21 21 19 19 18 17 15 16 17 16 17 16 14 13 12 11 10 10 10 10 10 9 9 9 8 8 9 8 8 8 8 8 7 9 8 7 9 8
21 21 21 20 20 21 20 18 19 19 15 15 17 17 17 16 14 14 13 12 11 11 10 10 10 9 9 9 8 8 8 8 7 7 7 6 6 6 6 6 6 6
18 18 19 19 17 19 20 17 16 18 16 14 15 17 17 15 14 14 13 12 12 12 11 10 10 10 9 10 9 8 8 8 8 7 6 6 6 5 4 4 3 4
16 15 15 16 14 15 19 19 15 15 15 14 14 15 17 16 14 14 14 13 12 12 12 11 10 10 10 10 9 9 9 8 8 8 7 7 6 5 5 3 2 3
14 13 12 13 10 9 16 18 15 13 13 15 14 15 16 15 14 15 14 13 13 12 13 12 11 11 11 10 10 10 10 9 8 8 8 8 7 5 5 4 3 3
12 11 10 12 9 7 12 15 13 11 10 12 14 14 16 16 14 15 15 14 14 14 14 14 14 14 13 11 11 10 10 10 9 9 8 9 8 6 6 5 4 4
13 13 10 12 12 8 10 13 14 12 9 10 13 12 15 17 14 14 15 14 14 14 15 15 15 15 14 13 12 12 11 11 10 10 9 10 10 8 7 8 6 5
14 15 12 13 14 13 12 14 16 11 5 6 11 10 11 15 15 15 16 15 15 15 15 16 15 16 16 16 15 14 13 13 12 11 10 11 11 9 9 10 8 6
10 12 13 12 13 16 15 15 16 12 4 3 7 8 8 9 12 13 14 15 17 17 17 17 17 17 17 18 17 16 15 15 13 12 12 11 11 10 10 10 9 8
8 8 8 9 11 13 14 14 13 12 8 4 4 5 6 6 6 8 12 14 17 18 19 19 18 19 19 19 18 17 17 16 14 14 13 13 12 11 10 10 9 8
9 7 4 5 8 10 11 12 11 9 10 10 7 7 10 10 11 15 17 16 17 20 21 21 20 20 20 20 19 18 18 17 15 14 14 13 12 12 11 11 10 9
14 12 8 5 5 7 8 10 9 7 8 11 11 12 17 19 21 22 23 21 23 27 28 25 23 22 21 21 20 19 19 19 17 16 15 14 13 12 11 11 11 10
12 12 10 7 4 4 4 5 7 7 7 9 11 15 22 26 26 26 28 27 28 31 31 26 25 24 22 22 21 20 20 20 19 18 16 15 15 13 12 11 10 9
8 9 10 8 5 4 2 2 3 4 5 6 9 14 19 22 24 26 28 28 29 31 30 26 25 26 26 25 23 22 22 22 21 20 18 17 16 14 12 11 11 10
7 8 7 6 5 4 2 0 2 4 5 7 12 17 19 21 24 25 24 24 28 30 30 28 26 25 25 26 26 26 24 23 22 21 20 19 17 15 14 12 11 10
6 6 4 5 5 4 3 3 3 3 4 7 11 16 17 17 19 21 21 23 26 28 29 30 30 27 25 25 26 27 25 22 21 20 19 16 15 15 14 13 12 11
5 4 4 5 5 4 6 6 5 5 5 6 8 10 12 12 13 15 16 19 23 25 26 27 28 28 29 28 26 25 25 23 20 18 15 14 13 12 12 12 12 11
3 2 3 6 5 4 5 5 4 5 5 6 6 6 9 11 13 13 13 14 16 19 20 22 25 26 26 27 27 27 27 25 22 18 15 15 13 12 13 12 11 10
2 3 4 5 5 4 3 3 4 5 6 6 6 6 7 9 10 11 12 12 12 11 13 17 21 22 22 24 29 29 27 26 24 18 14 14 13 12 13 11 10 10
4 4 4 3 2 3 3 4 5 6 6 6 6 7 7 8 9 9 11 11 9 9 10 12 15 18 21 24 27 27 26 25 21 15 12 12 13 12 11 10 10 12
5 4 3 1 0 1 3 4 5 6 7 7 7 7 8 9 9 8 9 9 9 8 9 12 15 17 19 21 23 23 22 20 17 14 12 12 11 10 11 12 13 13
4 4 4 3 2 2 4 4 5 6 7 8 9 8 8 9 9 8 7 7 8 10 10 12 15 17 17 18 20 20 18 15 12 11 10 9 9 10 12 13 12 13
4 4 4 4 4 4 4 4 5 7 8 9 10 10 9 8 8 7 6 5 7 10 10 11 16 18 16 16 17 17 17 14 9 8 9 7 7 9 12 12 12 13
5 5 6 6 6 6 5 5 5 7 8 9 11 10 9 10 9 7 5 6 6 7 8 10 15 18 16 15 16 15 16 14 8 6 7 6 4 7 11 13 12 12
7 8 8 8 8 7 6 6 6 7 8 10 12 11 10 10 8 7 7 6 4 5 6 8 13 17 17 15 14 12 13 12 7 4 4 3 4 6 8 8 7 6

ECMWFNIL_925_spd_003.txt.gz
Wind_Speed
30 29 31 28 28 29 27 27 27 24 21 19 17 17 16 14 13 13 11 9 9 9 11 12 11 10 10 10 10 10 10 9 9 10 10 10 10 10 10 9 7 5
31 30 31 29 29 30 28 28 27 23 21 19 18 18 17 15 14 13 11 9 8 8 9 11 11 11 11 9 8 8 8 9 9 8 8 9 9 10 10 9 7 5
31 30 30 29 29 31 28 27 27 23 21 20 20 20 18 16 15 14 11 8 8 8 7 9 10 10 9 7 6 7 8 8 8 7 5 6 7 7 7 8 7 4
27 28 28 28 29 30 28 27 27 24 22 22 22 22 20 18 17 15 12 9 9 9 8 9 10 9 8 7 6 6 7 6 6 6 5 4 4 4 4 5 6 5
26 26 26 27 28 28 26 26 26 24 24 24 24 23 22 19 18 15 13 11 10 10 9 10 11 10 8 8 8 7 6 7 6 5 5 4 4 3 1 2 4 5
25 25 24 25 26 27 26 25 25 23 24 25 25 25 23 20 18 15 13 12 11 10 10 10 11 11 10 9 10 8 8 9 7 6 7 7 5 4 4 1 2 4
19 22 22 20 24 28 25 24 25 23 23 24 25 26 24 21 18 16 13 12 12 12 11 11 12 12 11 11 11 10 10 10 9 8 9 9 7 5 5 4 2 2
16 18 17 16 22 28 24 23 23 21 20 23 25 26 25 21 19 16 14 13 13 13 12 11 12 13 13 13 12 11 11 12 11 11 12 11 10 8 8 7 5 5
16 16 14 13 19 24 22 21 20 17 17 22 26 27 25 21 19 18 16 15 14 14 14 14 14 14 15 14 14 14 14 14 14 13 13 13 13 12 11 10 9 7
18 18 16 14 17 20 20 19 18 16 17 20 25 27 25 22 21 20 19 17 16 14 13 15 16 17 17 17 17 17 17 16 16 16 14 14 15 15 13 12 13 11
21 20 18 16 16 18 19 18 18 18 17 18 22 25 25 22 19 18 17 15 14 12 11 11 13 17 19 20 19 19 20 19 19 19 17 15 15 16 14 13 15 13
19 19 18 18 17 17 18 18 18 17 17 16 17 20 21 19 17 16 15 13 10 8 8 10 12 15 18 22 23 22 21 21 21 21 19 17 17 17 14 13 14 13
16 13 10 12 15 16 15 14 13 13 14 13 12 14 14 14 14 13 14 14 10 9 12 16 19 19 19 22 25 25 24 23 24 23 21 19 19 18 16 14 14 13
16 15 11 8 6 9 10 9 8 7 8 9 10 11 12 13 13 14 16 18 17 16 17 21 25 26 25 25 26 27 28 27 26 25 23 21 21 19 17 16 15 13
8 9 7 3 2 3 6 7 6 4 3 6 9 10 12 13 14 15 17 19 20 20 22 25 27 28 28 28 27 28 31 30 29 28 25 23 21 19 18 17 14 13
10 11 12 12 9 6 7 7 4 3 3 5 7 7 9 11 12 13 15 17 19 22 23 25 26 27 27 27 28 30 32 32 30 29 27 25 22 20 19 17 14 14
13 12 13 14 12 9 9 8 6 4 4 6 7 8 10 12 14 16 16 16 18 20 21 23 26 28 28 28 28 29 31 32 32 30 28 26 24 23 21 19 17 16
12 11 13 14 12 10 9 8 7 6 5 7 9 11 12 12 15 17 17 18 19 19 21 23 26 28 28 27 27 28 30 32 32 30 28 27 25 24 23 21 19 17
11 11 14 13 10 9 7 7 6 5 3 4 5 6 8 9 9 10 11 11 12 14 17 20 23 26 25 24 24 26 27 27 28 29 30 29 26 24 23 21 19 17
10 13 14 11 8 7 5 5 4 2 1 2 2 2 3 4 4 5 7 6 6 7 8 10 15 18 20 21 22 21 19 21 24 26 27 25 23 23 22 19 17 17
10 11 10 8 7 6 5 5 4 2 2 1 2 3 4 5 5 6 7 8 10 9 6 8 11 13 15 17 18 16 15 19 23 24 23 21 19 17 17 16 15 16
10 8 7 6 6 6 6 4 4 3 3 2 2 3 5 6 7 8 8 9 11 11 9 9 10 11 11 9 8 10 13 17 19 19 18 17 15 13 13 14 13 12
11 8 8 8 7 7 5 4 4 4 3 4 4 4 5 7 8 9 8 8 9 9 9 7 7 7 7 5 7 11 13 14 13 13 11 11 11 10 9 9 8 10
11 9 10 9 8 7 5 4 5 5 4 5 5 6 7 8 10 10 9 8 8 9 8 6 5 6 7 8 9 11 12 11 10 10 9 8 8 6 4 6 8 11
6 7 9 9 7 7 6 6 6 6 6 6 6 7 8 9 10 12 10 9 10 10 8 6 6 8 9 10 10 11 12 12 11 9 8 7 6 4 3 5 9 12
0 2 4 7 10 11 10 10 8 7 7 7 8 9 10 9 11 13 12 12 12 11 9 7 7 8 10 12 12 11 11 11 11 10 9 8 7 6 4 2 4 7

ECMWFNIL_925_spd_006.txt.gz
Wind_Speed
32 31 29 28 27 27 26 26 25 24 23 21 20 19 17 17 16 15 15 14 14 14 13 12 11 10 10 9 10 11 11 11 11 10 9 9 9 9 9 8 7 6
33 32 29 28 28 29 28 27 26 25 24 22 21 20 19 18 17 16 15 15 15 15 14 12 11 11 10 9 8 10 10 10 11 10 9 9 9 8 7 8 8 7
34 33 31 29 29 31 31 28 27 26 25 24 23 22 20 19 18 16 14 14 15 16 15 13 12 11 10 8 8 9 9 8 8 8 8 8 8 7 7 6 7 6
36 34 33 30 28 31 31 30 29 28 27 26 25 23 22 20 19 17 14 13 14 16 16 15 13 12 10 8 7 8 8 6 6 6 5 6 6 6 6 5 5 5
36 35 35 32 29 30 32 31 30 30 29 28 27 25 23 22 21 19 16 14 14 15 16 16 14 12 10 8 7 7 7 6 5 5 3 3 4 3 4 4 3 3
37 36 36 34 31 30 32 32 32 31 30 29 28 27 25 24 22 20 18 17 15 15 15 16 15 12 10 9 8 7 6 6 5 5 4 3 3 2 1 2 3 3
37 38 38 36 34 32 32 33 33 33 32 31 30 29 27 25 24 21 19 18 17 16 15 15 15 13 12 10 10 9 7 7 7 6 6 6 5 4 4 3 3 2
35 37 38 38 36 35 33 34 35 35 34 32 32 31 28 26 24 23 20 18 17 16 15 15 14 14 13 12 11 11 10 9 9 9 8 8 9 8 6 5 4 3
32 34 37 39 39 37 37 36 36 36 36 35 33 32 30 27 25 23 21 19 17 16 15 14 14 14 13 12 12 12 12 12 12 12 11 11 12 11 10 8 7 6
29 31 32 34 33 33 35 37 39 38 37 36 35 33 32 29 26 24 22 20 18 17 16 15 14 14 13 12 12 12 13 13 14 14 14 14 14 14 13 12 11 9
24 24 24 23 19 15 14 17 27 36 37 37 37 36 34 31 28 25 23 21 20 18 17 17 16 16 15 14 14 13 14 15 15 16 16 16 17 16 15 15 15 12
15 15 16 18 18 16 10 4 8 21 27 30 31 32 31 30 28 27 24 22 21 19 19 19 18 18 18 18 18 17 17 17 17 18 19 19 19 19 17 17 17 15
12 13 13 14 16 19 17 12 10 12 15 19 20 21 22 21 20 21 22 22 21 20 19 19 18 18 18 18 19 20 20 20 20 21 22 22 22 22 20 18 18 17
13 14 16 17 17 17 15 13 14 14 14 15 14 12 12 13 13 14 16 17 19 20 20 19 18 17 17 17 17 18 19 21 22 23 26 26 25 25 23 21 20 19
13 13 14 13 15 14 10 9 12 15 17 17 15 11 8 9 11 14 15 16 19 20 20 19 18 18 18 17 16 17 19 21 22 23 26 29 29 28 26 23 22 21
12 11 7 6 9 13 16 17 18 19 19 19 18 15 13 15 19 21 21 21 21 21 21 21 20 19 17 17 18 20 22 23 24 23 25 29 32 30 28 26 24 22
17 17 15 15 15 16 18 19 19 17 15 14 14 13 15 19 21 21 22 21 20 18 18 18 18 17 17 19 20 21 22 23 24 24 25 28 32 33 31 27 25 23
16 18 19 18 16 16 16 15 14 12 10 10 10 10 13 16 17 16 16 16 15 15 15 15 15 16 18 20 20 20 20 21 22 25 27 28 30 32 29 26 25 25
19 20 20 18 15 14 13 12 10 8 7 7 7 8 10 12 14 14 12 12 12 13 13 12 13 14 15 16 17 16 16 17 19 22 25 27 29 30 28 26 26 26
21 21 20 17 15 14 13 11 9 8 7 6 5 5 5 5 6 7 7 7 8 8 7 7 8 10 10 12 13 14 14 15 15 17 20 24 26 28 29 27 26 25
21 20 19 17 15 12 10 9 7 5 5 4 3 2 2 2 2 2 2 3 5 7 7 7 7 7 8 11 12 11 11 10 11 12 16 18 20 21 23 23 23 22
19 17 15 13 10 8 7 6 5 4 3 3 3 3 2 3 3 4 5 4 5 7 8 7 6 7 9 11 12 10 7 6 7 10 12 13 13 13 15 17 16 15
15 14 12 9 7 6 7 6 4 3 3 3 3 3 3 4 5 6 7 7 7 8 9 8 8 8 9 10 10 8 5 3 5 8 9 9 9 10 11 12 12 9
15 12 11 9 7 8 8 7 6 5 4 4 4 4 4 4 6 7 8 9 9 9 9 9 8 7 6 6 6 4 3 3 6 9 10 11 11 11 10 10 10 10
14 12 11 11 10 11 10 9 7 7 6 5 5 4 5 6 7 8 8 10 10 10 9 9 8 7 6 4 4 3 4 5 7 9 11 10 10 10 10 10 11 11
6 8 10 11 12 13 12 10 9 8 8 7 7 6 6 7 8 7 8 11 11 10 10 10 9 8 7 6 6 6 7 7 7 9 9 9 9 9 10 10 11 10

ECMWFNIL_925_spd_009.txt.gz
Wind_Speed
27 27 26 25 25 23 22 23 21 20 19 19 19 18 18 16 15 14 13 14 14 14 13 13 12 13 13 12 12 12 11 10 9 8 7 7 8 7 7 7 6 6
27 27 27 27 26 24 22 22 21 20 20 20 19 18 18 17 16 15 14 15 14 14 14 13 13 13 13 13 12 13 12 12 11 9 8 8 8 7 8 8 8 8
26 28 29 29 27 25 23 22 21 20 20 20 19 19 19 18 17 16 15 15 15 14 14 13 13 12 12 12 12 12 12 11 11 10 9 9 8 8 9 9 9 9
22 26 30 30 28 25 23 22 22 22 21 21 20 20 20 20 19 18 17 16 16 15 14 14 13 12 12 12 12 12 11 11 11 10 9 9 8 7 8 7 8 9
23 28 31 31 29 27 24 23 23 23 22 22 21 21 21 21 20 19 19 18 17 17 16 15 14 13 12 12 12 12 12 12 11 9 8 9 8 6 6 5 6 8
28 31 31 31 31 29 26 23 24 24 23 22 22 22 21 21 20 19 19 20 19 18 17 16 16 14 12 12 11 11 11 11 11 9 8 7 7 6 5 4 4 6
31 33 33 31 31 32 28 24 23 24 24 23 22 22 21 21 20 19 18 19 20 19 18 17 16 15 13 12 12 11 10 10 10 9 8 7 7 6 5 4 4 4
24 27 31 31 30 32 31 27 24 24 24 24 24 23 22 21 21 20 18 18 19 20 19 18 17 16 15 14 13 12 11 10 10 9 9 8 8 7 6 5 4 4
22 21 23 27 29 31 32 30 28 27 26 27 26 25 24 23 22 21 19 19 19 19 19 19 18 16 15 14 13 12 11 11 10 10 10 9 9 8 8 7 7 5
24 21 21 26 30 32 33 31 29 28 28 29 29 28 27 25 24 23 21 20 19 19 19 19 18 17 16 15 14 12 11 11 11 11 11 10 9 9 9 9 9 8
20 19 20 24 28 29 29 26 23 23 23 24 26 28 29 28 26 24 23 22 21 19 19 18 18 17 16 15 15 14 13 13 13 13 13 13 11 10 10 10 11 10
16 14 14 18 21 21 21 19 18 20 19 20 22 23 24 23 21 19 19 20 21 21 20 18 18 17 16 15 15 15 15 15 15 15 15 15 15 14 13 13 13 13
16 14 15 17 17 15 12 10 13 18 20 18 18 17 17 17 16 15 14 14 17 18 18 19 19 18 17 16 16 16 17 17 18 18 18 17 18 18 18 17 16 15
18 17 17 18 18 15 12 8 8 11 13 14 15 16 16 14 14 17 19 19 18 16 17 19 20 20 19 18 18 18 19 20 20 20 20 20 20 20 21 21 20 19
21 21 18 15 12 11 12 12 11 7 8 12 15 16 16 15 16 18 20 22 19 17 19 20 21 21 21 20 20 19 19 19 20 20 20 21 22 23 23 24 24 23
20 20 16 11 12 14 14 14 14 13 16 19 20 20 19 20 21 19 20 23 22 22 23 24 22 21 19 18 18 18 17 17 18 19 19 19 21 22 23 24 24 25
19 19 17 17 20 22 20 17 16 17 20 22 21 20 21 23 24 24 27 29 27 25 25 25 23 22 20 20 18 16 15 15 16 17 17 18 19 21 22 22 23 25
20 19 19 20 22 22 22 20 17 18 22 22 20 19 20 22 25 27 29 30 28 26 26 25 25 23 21 17 12 10 10 11 12 13 14 16 18 20 21 22 22 24
20 20 21 22 21 21 21 20 18 20 23 22 21 21 22 23 25 27 26 26 25 24 23 22 20 17 12 7 5 7 9 11 12 13 14 14 15 17 19 20 21 22
19 19 19 18 17 18 18 18 19 20 21 19 19 20 21 22 22 22 21 19 17 16 15 13 10 7 3 2 6 10 11 12 11 12 13 14 13 14 15 16 18 20
15 14 14 15 16 17 17 18 18 18 17 15 14 14 14 14 13 12 11 11 10 9 9 8 6 4 3 4 7 10 11 9 8 8 9 11 11 11 11 13 15 16
12 12 14 16 17 17 16 16 15 15 13 12 11 11 11 10 9 8 7 6 6 7 7 7 6 4 4 5 8 10 9 7 6 7 8 8 9 8 8 9 11 12
13 15 16 17 16 16 15 14 13 12 11 10 9 9 9 8 7 6 5 4 4 5 6 6 5 5 5 7 7 8 8 7 6 6 6 5 5 4 4 5 7 8
16 17 17 16 14 13 13 12 11 10 8 7 7 6 6 5 4 3 2 3 4 5 6 6 6 6 6 6 5 6 5 5 4 4 3 2 1 2 3 4 6 7
18 17 17 15 12 11 10 10 9 7 6 4 4 4 3 3 2 1 1 2 4 7 8 8 8 7 6 4 3 3 3 2 1 1 2 3 4 5 6 6 6 6
14 15 16 15 12 10 10 9 7 6 5 4 4 3 2 2 1 0 1 1 3 7 9 9 8 8 6 4 3 2 2 2 2 3 4 5 5 6 6 6 6 5

ECMWFNIL_925_spd_015.txt.gz
Wind_Speed
11 11 11 9 8 8 7 7 7 7 6 7 7 7 7 6 5 4 3 4 4 4 5 5 6 6 7 9 10 10 10 10 12 12 12 12 12 12 12 11 11 12
14 13 12 10 10 10 8 7 8 7 6 6 6 6 7 6 4 3 4 5 4 4 4 4 5 6 8 9 8 8 9 10 11 12 11 12 12 12 12 12 12 13
14 14 11 9 8 8 8 7 9 8 6 6 6 6 6 5 3 3 4 5 5 4 4 4 5 6 7 7 6 7 9 11 11 11 11 12 13 13 13 13 13 15
16 16 14 10 6 5 5 4 6 9 8 6 7 7 7 6 4 4 5 6 5 5 5 5 6 6 7 6 7 8 10 11 11 11 12 12 13 13 13 14 14 16
22 20 18 15 11 9 7 3 4 10 10 8 7 7 8 7 6 5 5 5 5 5 6 6 6 7 8 7 8 9 10 10 10 11 11 12 12 12 12 13 14 14
23 21 19 16 13 13 12 8 9 12 11 9 8 7 7 8 8 7 6 5 5 5 5 6 6 6 7 7 8 8 9 9 9 10 10 10 11 11 10 11 11 11
23 20 18 16 14 14 14 11 10 11 12 11 10 8 7 8 8 8 7 6 5 5 5 4 4 4 5 5 6 7 7 7 8 8 8 9 9 9 9 9 9 9
23 18 15 15 16 17 15 10 9 11 11 12 12 11 9 8 9 10 9 8 7 6 5 5 4 4 4 4 4 4 4 4 5 5 5 6 6 7 7 8 8 7
20 15 14 15 17 19 17 13 12 13 12 13 14 14 12 11 10 10 10 10 9 8 7 6 5 5 4 3 3 2 2 1 1 2 2 2 3 4 5 5 5 5
18 16 17 19 22 22 20 17 16 14 13 13 15 16 15 14 13 13 12 12 10 9 8 7 6 6 6 5 5 4 4 3 3 3 4 4 3 3 3 3 4 4
17 18 21 24 25 22 18 16 15 14 13 14 15 16 16 15 15 15 15 14 12 10 9 8 6 6 6 5 4 4 4 4 5 5 6 7 7 7 7 6 6 6
19 21 23 25 25 21 16 14 14 13 12 13 15 16 16 15 15 16 16 15 13 11 9 7 6 4 4 3 2 2 3 4 6 7 8 9 9 10 10 10 10 10
22 23 25 26 26 23 17 15 15 14 14 14 15 16 17 16 15 15 15 14 13 11 9 7 5 2 1 2 2 3 5 7 8 9 11 12 12 12 12 13 13 13
23 24 26 27 28 25 22 20 18 17 16 15 16 17 17 16 15 15 15 14 12 11 10 7 5 2 2 3 4 6 8 9 10 11 12 13 12 13 14 15 16 15
22 23 25 27 27 25 24 24 22 20 18 16 17 17 16 15 14 14 13 13 13 12 11 9 7 6 6 6 9 12 12 10 11 12 13 13 13 14 16 17 17 16
18 20 22 24 25 24 24 25 24 23 21 19 19 21 19 16 14 13 13 14 14 14 14 13 13 14 11 10 13 15 15 15 15 15 15 16 16 16 17 17 16 17
16 17 19 21 23 24 24 24 24 25 24 22 23 25 23 18 15 16 17 16 16 18 18 17 19 21 18 15 16 17 18 19 18 17 17 17 16 15 15 15 15 16
12 12 13 14 17 19 22 23 24 25 25 26 26 26 23 19 18 22 25 26 27 28 25 21 23 24 21 17 18 19 18 17 16 15 14 13 13 13 13 14 14 15
8 7 8 9 10 12 14 19 23 25 27 28 28 26 24 22 22 27 31 34 34 31 27 26 26 25 20 16 17 18 16 14 12 10 10 10 10 10 10 9 10 11
8 7 7 8 9 9 9 13 18 23 27 30 29 28 26 26 28 31 33 34 32 28 28 28 27 23 18 15 16 15 12 10 8 6 6 6 4 3 3 4 4 5
8 10 11 12 14 13 12 13 14 18 23 26 26 26 26 28 31 32 31 30 28 27 27 26 23 19 16 14 14 12 10 7 6 4 3 2 2 2 3 3 4 4
6 10 13 15 17 17 17 18 17 19 23 25 24 25 28 29 30 29 28 26 25 24 24 22 19 16 14 13 13 13 11 9 7 6 5 5 4 4 5 5 6 6
8 8 10 13 15 18 20 20 20 21 24 25 25 26 27 27 25 24 24 22 21 21 20 18 16 14 13 15 17 15 12 10 9 7 6 5 5 5 6 6 6 6
15 11 9 10 11 14 17 18 19 20 21 22 22 21 22 21 21 21 21 19 19 19 18 16 15 14 17 19 18 15 13 11 9 8 7 6 5 5 5 6 6 6
18 15 11 10 10 11 11 13 15 16 17 17 18 18 20 20 20 19 18 16 16 15 15 15 16 19 20 19 17 14 13 11 9 8 7 6 5 5 5 6 5 5
17 17 14 13 13 12 11 12 12 12 12 13 14 15 17 16 15 14 14 14 14 15 16 17 19 21 20 17 15 14 13 12 10 9 8 7 7 6 6 7 6 6

ECMWFNIL_925_spd_021.txt.gz
Wind_Speed
12 10 9 8 7 7 6 5 5 4 3 4 5 5 5 4 3 3 4 4 4 4 5 6 7 8 8 8 8 9 9 9 9 9 9 10 9 8 8 7 6 6
13 12 11 9 7 9 9 7 7 6 5 5 6 6 6 5 4 4 4 4 5 5 5 6 7 7 8 8 8 9 9 8 9 9 9 9 9 9 9 8 8 7
13 12 11 9 9 10 10 9 8 7 6 6 7 7 6 6 5 5 4 5 6 6 6 7 7 7 8 8 8 8 8 8 8 8 9 9 9 9 9 9 8 8
11 11 11 11 11 12 11 10 9 9 8 8 7 7 7 7 7 6 5 5 6 7 8 8 8 8 9 9 9 9 9 8 8 8 9 9 9 9 9 9 8 9
11 11 12 12 12 13 13 11 11 11 10 9 8 8 8 8 8 7 6 6 7 7 8 9 8 8 9 9 9 9 9 9 9 8 9 9 9 9 9 9 9 9
12 12 12 12 13 14 14 12 12 12 11 10 10 10 10 9 8 8 7 7 7 8 8 9 9 9 9 9 10 10 10 10 9 9 10 10 9 9 9 9 9 9
12 12 12 12 13 14 14 13 12 12 11 11 10 10 11 11 9 8 8 8 8 8 8 9 9 9 9 10 10 10 10 10 10 10 10 10 9 9 9 8 8 8
12 12 12 12 13 13 13 13 11 11 12 12 11 10 11 11 10 9 9 9 9 8 9 9 9 9 9 9 10 11 11 10 10 10 10 10 9 9 8 7 7 7
12 11 11 12 12 13 12 11 10 11 12 12 11 10 9 10 10 10 9 9 9 9 9 9 9 9 9 9 10 11 11 10 9 10 10 9 9 9 8 7 7 6
13 12 12 12 12 13 12 10 9 10 11 12 11 10 9 9 9 10 10 9 9 9 9 9 9 9 9 10 11 11 10 10 10 10 10 9 8 8 8 8 7 6
14 13 13 12 12 13 12 10 9 9 10 11 10 10 10 9 9 10 11 10 10 10 10 10 10 10 10 10 10 10 10 10 10 9 9 8 7 7 7 7 7 6
13 13 13 12 12 12 12 10 8 9 10 10 10 10 10 10 10 11 11 11 11 11 11 11 11 11 11 11 10 10 10 10 9 9 8 7 7 7 6 6 6 5
12 11 11 12 12 12 11 10 10 11 11 10 10 11 11 12 12 11 11 12 12 12 12 12 13 13 12 12 12 11 10 10 9 9 8 7 7 6 6 6 5 5
9 9 9 10 11 11 11 11 11 12 12 11 10 11 12 13 13 13 13 12 13 13 13 13 14 13 13 13 13 12 12 11 10 9 8 7 7 6 5 5 4 3
7 7 8 8 9 10 11 12 11 11 11 11 10 11 12 13 13 14 14 14 14 14 14 14 14 14 14 15 14 13 13 12 10 9 7 6 5 4 4 4 4 3
6 6 7 8 8 9 10 11 11 10 11 11 10 11 11 12 13 14 15 16 15 15 15 15 15 15 16 16 16 14 13 12 11 9 7 6 3 1 1 3 3 3
5 6 6 7 7 8 8 9 10 10 10 11 11 11 11 12 14 15 16 16 17 17 17 17 15 16 18 19 18 16 13 11 11 10 10 8 5 7 7 5 5 7
3 4 5 5 5 7 7 7 8 9 10 11 11 12 12 13 15 16 16 16 17 18 18 18 16 19 22 22 21 19 14 10 9 9 9 11 13 15 13 9 9 9
1 2 2 2 3 4 4 5 6 7 9 11 12 13 14 15 16 16 16 16 17 17 18 18 17 21 26 26 23 20 16 12 10 9 10 9 10 13 12 11 11 9
2 1 1 1 1 2 3 4 5 7 8 10 11 13 14 15 16 16 16 16 16 16 16 16 16 19 25 25 23 20 19 16 12 11 12 11 11 12 12 12 11 9
5 3 2 2 3 4 5 6 6 7 8 9 10 11 13 15 17 18 18 17 18 17 18 18 17 18 22 24 23 22 22 20 16 14 14 14 13 13 13 12 9 8
6 5 4 3 4 4 6 7 7 8 9 9 10 11 12 14 17 20 21 20 21 21 21 21 20 20 24 27 26 25 25 23 19 15 14 14 13 12 12 10 8 7
6 6 5 5 5 5 6 6 6 7 8 9 11 12 12 13 15 18 19 20 21 23 22 21 21 22 25 26 23 23 25 26 21 17 16 15 15 13 12 11 10 9
8 7 7 7 7 7 7 7 7 8 9 10 11 12 13 14 14 15 16 17 19 21 21 21 22 22 23 22 21 21 24 24 22 19 16 15 16 14 11 12 13 12
8 8 8 8 8 9 9 9 9 9 10 10 11 12 13 14 15 15 16 17 17 17 19 19 19 19 20 20 19 21 23 24 22 19 17 16 15 14 11 12 14 14
10 9 9 9 10 10 10 10 10 11 11 12 12 13 14 14 14 15 16 17 17 16 17 18 17 17 18 18 18 21 23 23 21 19 19 16 14 13 12 12 14 14

ECMWFNIL_925_spd_024.txt.gz
Wind_Speed
17 16 15 14 13 12 10 10 9 7 7 8 9 9 8 7 6 7 8 7 7 8 8 9 9 9 10 12 13 14 14 14 15 14 14 13 12 11 11 11 11 12
16 15 14 13 14 14 12 11 10 9 9 9 10 10 9 7 7 7 7 7 8 8 8 8 8 9 10 11 13 13 13 14 14 14 14 13 13 13 12 11 11 11
16 15 14 13 15 15 13 12 11 10 11 11 11 10 10 8 7 7 7 8 8 8 8 8 8 9 10 11 12 12 12 13 13 14 15 14 14 14 12 11 12 12
17 16 14 14 15 16 14 13 13 12 12 12 11 10 10 9 8 8 8 8 9 9 8 8 8 9 9 10 11 11 11 12 13 14 14 14 14 13 12 13 13 14
17 15 14 15 16 16 15 14 14 13 12 11 10 10 10 10 9 9 8 8 9 9 8 8 8 9 9 9 10 11 12 12 12 13 14 14 14 13 13 14 15 15
15 14 14 16 16 15 15 14 14 14 12 11 10 9 9 10 9 9 8 8 8 8 8 8 8 8 8 9 10 10 11 12 12 13 14 14 14 13 14 14 14 13
14 14 14 15 15 15 15 14 15 14 13 11 10 9 9 9 9 8 8 8 8 7 7 7 7 7 8 9 9 10 11 12 12 12 13 13 14 13 13 13 12 11
13 13 14 15 16 16 15 15 15 14 13 13 11 10 10 9 8 8 8 8 8 8 7 7 7 7 7 8 9 10 11 11 12 13 13 14 13 12 12 12 11 10
13 13 14 16 17 16 15 15 15 14 13 13 11 9 10 10 9 8 8 8 8 8 7 7 7 7 7 7 9 10 10 9 12 14 13 12 12 11 11 10 10 9
12 12 13 15 16 16 15 14 13 13 12 11 11 10 10 10 10 9 8 8 9 8 8 8 8 7 7 8 9 9 8 9 11 13 12 11 11 12 11 10 9 8
12 12 13 15 14 14 14 12 12 12 11 11 11 11 10 10 10 10 9 9 9 9 9 9 8 8 7 8 9 8 8 9 10 11 11 10 10 11 11 10 9 8
13 13 13 13 13 13 13 12 11 11 12 12 12 11 11 10 10 11 10 10 10 9 10 10 9 9 9 9 10 9 9 9 10 10 10 9 9 10 9 9 7 6
13 13 12 11 10 11 12 10 9 9 10 11 11 11 12 11 10 11 11 11 11 10 10 11 11 11 10 11 10 10 11 10 10 10 9 8 8 8 8 8 6 5
13 12 11 11 10 10 11 10 8 8 9 10 10 11 12 12 11 11 11 11 12 12 12 12 13 13 13 13 12 11 11 10 10 11 9 9 9 8 8 9 8 7
12 10 9 10 10 9 9 9 8 8 9 10 10 10 11 12 12 11 12 12 12 13 13 14 15 15 15 15 15 14 13 12 12 12 11 11 10 7 9 11 10 9
9 8 8 8 8 7 7 7 7 8 9 10 10 10 10 11 11 12 13 13 14 14 14 16 16 17 17 17 17 17 16 15 14 13 13 14 12 9 10 11 11 10
7 7 7 6 5 5 5 6 6 7 8 7 8 8 9 10 11 12 13 13 14 15 15 16 17 17 17 17 18 18 17 17 16 14 14 16 15 11 10 12 12 11
7 6 5 5 6 6 6 6 7 8 9 9 9 9 9 9 10 12 13 13 14 15 16 15 16 17 18 17 19 20 19 19 18 17 15 16 17 12 10 12 12 11
6 6 4 2 3 3 3 4 5 7 9 10 10 10 11 11 11 12 14 15 17 17 14 9 7 12 16 19 21 22 22 21 20 18 18 19 20 16 13 13 13 12
8 6 5 4 2 1 1 3 6 7 9 11 11 12 14 14 13 14 16 17 16 14 12 9 8 11 15 18 21 23 24 23 21 17 17 19 20 19 17 15 15 14
13 10 7 4 2 1 2 5 7 8 9 10 11 12 14 13 13 15 18 19 17 14 14 13 14 17 19 19 21 24 26 25 22 17 14 15 17 17 17 18 18 17
17 16 14 12 9 5 3 4 6 7 7 8 9 10 11 12 12 14 17 18 19 19 18 15 14 19 24 25 24 26 27 26 23 18 14 14 15 16 18 19 19 19
16 15 15 15 14 13 12 10 7 5 5 6 8 9 10 12 13 14 16 18 20 22 22 20 18 19 24 28 28 28 29 29 26 23 20 18 17 18 19 18 18 18
14 14 14 13 14 14 15 15 14 11 9 8 8 9 11 14 15 16 17 18 20 22 24 24 23 20 22 26 27 28 30 31 28 27 25 23 22 22 20 20 20 20
13 13 13 12 12 13 13 14 14 14 14 13 12 12 12 14 16 18 19 20 21 23 25 26 26 26 25 26 27 28 29 31 30 27 25 24 24 23 21 21 22 21
13 12 13 13 13 14 14 14 14 15 16 16 16 16 15 16 16 16 17 19 20 21 24 26 27 29 29 29 30 31 31 32 31 27 24 23 23 23 22 22 23 20

ECMWFNIL_925_spd_027.txt.gz
Wind_Speed
27 27 27 26 25 24 23 21 20 19 19 19 20 19 16 15 15 14 14 14 12 13 14 13 12 14 14 15 15 15 16 16 15 15 16 16 15 15 14 13 13 13
26 26 26 24 23 23 21 20 19 20 21 21 21 20 17 16 15 15 14 14 14 14 14 13 15 16 16 17 17 17 17 17 16 16 17 17 17 17 17 16 16 16
24 24 24 23 22 22 20 19 19 20 22 21 21 19 17 15 14 14 15 15 15 13 13 14 16 17 16 16 17 17 17 16 16 16 17 18 16 16 16 15 15 16
23 22 23 23 22 22 21 20 20 20 21 21 19 18 17 16 15 16 16 16 15 13 14 16 16 17 16 15 16 17 17 16 15 16 17 16 15 15 16 15 14 14
21 20 23 24 22 22 21 20 21 20 20 19 18 17 18 17 17 16 16 17 16 14 15 16 15 16 15 14 15 17 18 17 16 17 17 16 15 15 15 13 13 13
20 21 23 22 21 21 21 21 20 19 18 18 17 18 18 17 16 16 16 17 16 14 15 17 16 15 14 13 14 16 17 18 18 17 18 18 17 16 15 14 15 14
19 21 22 21 21 20 20 20 19 18 17 17 17 17 18 17 16 16 16 16 16 15 16 17 15 14 14 14 15 16 16 17 18 18 19 19 19 17 17 16 16 16
20 22 22 21 20 19 19 20 19 18 17 16 16 17 17 17 16 16 16 16 16 16 16 16 15 15 15 14 15 16 16 17 18 19 19 20 19 17 17 16 16 16
21 21 21 20 19 18 19 20 19 17 16 15 16 17 17 15 14 14 15 15 16 17 16 16 16 16 15 15 16 16 16 17 17 17 18 18 18 17 16 15 15 15
20 20 20 19 19 18 18 19 18 16 16 15 14 15 17 15 14 13 13 15 16 16 15 16 15 14 15 17 16 13 15 18 18 17 16 17 17 16 14 13 12 12
18 19 20 19 18 18 17 17 16 15 14 13 12 14 16 14 13 12 11 14 16 14 15 16 14 14 16 18 14 12 17 21 20 17 15 16 16 14 13 11 10 10
17 17 19 19 17 15 15 14 13 13 13 11 11 12 11 11 12 12 11 13 14 15 16 16 15 14 16 17 14 14 18 21 20 18 16 16 16 15 13 12 10 11
15 15 15 15 14 14 13 12 11 12 13 12 10 10 9 10 13 12 11 12 13 14 16 16 15 15 16 17 16 15 16 19 20 18 15 16 17 16 15 13 12 13
6 11 14 12 11 12 13 11 11 11 11 10 10 11 11 11 12 12 12 12 12 12 15 16 16 15 16 18 17 16 17 18 20 17 15 17 19 18 17 16 15 16
1 2 7 10 12 12 11 10 10 10 10 10 9 11 13 12 11 11 11 11 12 12 13 15 15 15 17 18 17 18 18 17 19 18 16 18 19 18 19 19 17 18
7 3 2 3 7 11 12 10 9 9 9 9 6 7 12 13 12 11 10 11 12 11 12 15 15 15 17 18 18 18 19 18 19 20 18 18 19 19 20 21 20 19
10 7 4 1 1 4 10 10 8 8 7 6 5 4 7 12 13 12 10 11 12 12 12 13 16 17 18 19 19 20 21 20 20 22 20 20 21 21 21 22 22 20
10 8 6 4 2 1 4 6 7 7 6 5 4 3 3 6 9 11 10 9 11 13 13 13 15 18 20 21 21 21 23 23 23 23 23 22 23 23 22 22 23 21
10 7 6 6 5 3 2 3 3 4 5 6 5 4 2 2 4 8 10 10 9 11 14 14 15 17 21 22 22 23 24 24 25 25 26 25 26 25 23 22 22 22
16 14 12 7 4 3 3 3 2 1 2 3 4 5 6 6 7 8 10 11 11 10 12 14 14 15 18 21 22 24 25 26 27 27 28 27 26 26 24 22 22 21
21 20 18 15 12 11 10 9 8 4 1 2 3 4 5 6 8 10 10 12 13 13 13 15 15 15 15 17 19 22 25 26 27 28 28 28 26 25 23 21 19 19
19 19 18 17 16 15 14 14 13 11 8 7 7 6 5 5 7 9 11 11 13 14 15 17 18 18 17 17 18 20 23 24 26 26 27 26 25 25 24 21 19 18
17 18 18 17 16 16 16 15 14 14 14 13 13 12 10 8 8 10 10 11 13 14 16 18 20 20 20 19 19 21 22 24 24 24 24 23 22 22 22 21 20 19
15 15 16 15 14 15 15 15 15 14 14 15 16 16 16 14 13 13 14 14 15 16 17 19 20 21 22 22 22 23 25 25 26 25 23 21 19 17 16 17 18 19
14 14 15 15 15 15 15 15 15 15 15 15 16 16 17 17 17 17 17 17 18 20 21 21 21 21 22 23 25 25 26 28 28 28 26 23 21 20 18 18 19 21
14 14 15 16 16 16 16 16 16 16 17 17 17 18 18 19 19 19 20 19 19 20 21 22 22 22 22 23 25 26 28 30 30 29 28 26 26 25 24 23 23 25

ECMWFNIL_925_spd_030.txt.gz
Wind_Speed
29 29 28 26 25 24 24 22 20 19 18 16 14 11 11 11 11 12 11 11 11 10 10 10 10 10 11 12 12 12 12 11 11 11 11 11 10 10 11 12 13 12
27 27 25 24 23 22 21 20 18 18 17 15 13 11 11 11 11 11 11 10 10 10 10 10 10 11 12 13 13 13 14 13 12 12 12 11 11 11 12 12 11 10
27 26 24 23 22 21 20 19 18 18 17 16 15 13 12 13 12 12 10 11 12 12 12 11 11 13 14 14 15 14 15 15 14 13 12 12 13 14 15 16 16 15
27 25 23 23 22 21 20 20 19 19 18 18 17 15 15 14 13 12 11 12 12 11 13 14 13 15 15 16 17 16 16 17 17 16 15 16 16 17 19 19 19 18
27 24 23 23 23 22 21 20 20 20 21 20 18 16 16 14 13 13 12 13 11 11 14 15 14 14 15 16 17 18 18 19 18 17 17 17 17 17 18 18 18 17
25 24 23 24 24 22 21 20 21 22 22 20 18 16 15 14 14 14 14 14 13 14 16 16 15 14 14 16 17 17 18 19 18 17 17 17 16 15 15 15 17 17
24 23 23 23 23 21 20 20 21 22 21 19 16 14 14 15 15 16 16 14 13 14 16 16 15 14 14 16 17 17 17 18 18 17 18 17 15 14 14 15 16 16
22 23 24 23 22 20 20 21 21 20 19 17 15 15 15 16 15 15 16 15 14 14 15 15 15 14 14 16 17 17 18 19 19 19 19 17 16 15 16 16 17 17
24 25 24 22 21 20 20 20 19 18 16 15 16 17 16 15 14 15 16 15 15 15 15 14 14 14 14 15 17 18 19 20 20 20 19 19 19 18 16 16 18 18
23 25 24 22 21 20 20 19 18 17 15 14 17 18 17 15 14 14 15 15 15 15 14 13 14 14 14 16 17 17 19 21 21 21 21 21 22 20 17 17 18 18
15 18 20 21 21 20 20 19 17 16 14 16 18 19 18 16 15 15 15 15 16 16 14 14 14 14 15 16 16 16 18 22 23 22 22 22 21 20 19 19 19 18
17 16 16 17 18 19 20 20 19 17 16 18 20 20 18 17 16 16 16 16 16 15 14 15 15 14 15 16 16 17 18 21 21 21 20 20 20 20 20 20 19 19
22 20 19 18 17 16 16 17 18 18 17 17 18 20 19 17 16 16 16 17 17 15 15 15 14 14 16 16 16 17 19 20 20 20 20 21 19 19 19 18 18 18
25 24 24 22 18 14 13 15 15 16 16 15 16 19 18 16 16 15 14 17 19 17 16 17 15 15 17 17 15 16 20 22 20 20 21 20 19 18 18 17 16 17
25 25 24 21 18 16 14 14 12 12 14 13 13 16 15 14 16 15 14 17 20 19 19 19 18 18 19 19 17 18 22 24 22 21 21 20 20 20 18 17 17 17
17 18 18 17 18 18 17 16 13 11 11 11 11 13 14 14 16 16 15 16 19 20 21 22 21 20 20 21 21 20 22 24 24 23 22 20 21 22 21 20 19 18
14 13 12 13 16 18 17 16 15 12 9 6 7 11 14 16 16 16 15 16 17 19 22 24 24 22 21 22 23 22 22 23 24 25 22 20 22 24 24 23 21 21
12 10 10 10 11 13 13 13 13 13 10 6 3 5 11 16 17 16 15 15 16 18 19 22 24 24 22 23 23 24 24 23 24 25 23 22 23 25 25 25 24 22
18 14 12 10 8 7 7 6 6 7 8 6 2 1 4 9 11 12 11 12 14 16 16 18 20 22 24 25 25 25 25 24 25 26 26 25 25 25 25 25 25 24
25 23 20 17 15 12 10 8 8 5 3 3 3 5 5 5 5 6 6 7 8 10 12 13 14 16 20 24 27 28 28 27 27 28 29 29 29 28 28 27 27 27
24 23 22 20 18 17 16 15 15 13 10 6 1 3 6 8 8 7 8 9 9 10 12 13 14 14 14 17 21 26 29 31 31 31 31 32 32 32 31 30 29 29
21 21 20 19 17 16 17 17 16 14 13 10 8 6 3 3 4 5 8 11 13 13 14 15 16 16 16 16 16 19 23 28 32 33 33 33 34 34 34 33 32 31
18 18 18 18 17 16 17 16 15 14 13 12 11 10 9 9 8 6 6 7 10 11 13 14 14 14 16 17 17 18 19 21 25 30 33 33 34 34 34 34 34 33
18 17 18 18 17 17 17 16 15 14 14 13 13 12 12 11 11 9 8 7 7 9 12 14 15 15 16 17 18 19 19 20 21 25 30 31 31 32 32 32 33 33
20 19 19 19 19 18 17 17 16 15 14 14 13 13 13 12 12 11 10 9 9 9 10 12 15 16 17 18 20 20 21 21 21 24 27 27 28 29 30 31 31 30
20 19 18 18 18 18 17 17 17 16 16 15 15 15 15 14 13 13 13 12 12 12 12 13 15 16 17 18 19 21 23 24 24 25 26 27 28 29 30 31 29 25

ECMWFNIL_925_spd_033.txt.gz
Wind_Speed
23 22 21 19 17 15 14 14 13 12 11 10 10 10 7 7 7 7 6 6 6 5 4 5 7 8 9 10 10 11 11 11 10 10 11 11 12 13 13 14 16 17
22 21 20 18 15 13 11 11 11 9 9 9 9 8 7 6 7 7 6 7 7 6 5 5 5 6 7 9 10 10 11 11 11 11 10 9 9 11 11 12 15 16
21 20 18 16 14 12 11 11 10 9 9 9 8 7 7 8 9 8 7 6 6 7 7 5 6 7 7 8 9 10 11 11 11 10 10 9 9 10 11 11 14 14
21 19 17 15 14 13 13 12 11 11 10 10 9 7 8 9 10 9 7 6 7 8 7 5 6 8 8 8 9 10 11 11 10 10 10 11 10 11 12 12 13 15
21 20 18 16 15 14 14 13 12 12 12 12 10 9 9 10 10 9 8 7 8 8 7 5 5 7 8 9 9 10 11 12 11 10 10 12 12 14 14 13 13 14
22 21 19 16 15 15 15 15 14 14 13 13 12 11 11 12 11 10 9 8 8 8 8 6 5 7 8 9 10 10 11 12 11 11 12 14 15 17 16 14 13 12
24 22 19 17 17 16 15 16 15 15 15 14 13 12 11 11 11 10 9 8 8 8 9 8 6 7 8 9 10 11 12 12 12 13 14 15 16 17 16 14 13 12
23 21 18 18 19 18 18 17 16 16 16 15 14 12 11 10 10 10 9 8 8 9 10 9 7 7 8 9 10 11 12 11 11 13 15 15 15 15 14 15 15 14
21 19 19 19 20 20 19 18 17 16 16 15 14 12 10 9 9 10 10 9 9 9 11 10 8 7 8 9 10 10 11 11 10 12 13 14 14 13 13 14 16 17
19 18 19 18 19 19 17 16 15 16 15 14 12 10 9 9 9 10 10 10 10 10 11 11 9 8 8 8 10 10 10 11 11 12 13 13 12 13 14 15 16 18
18 18 18 18 18 17 16 15 15 15 14 12 11 10 9 10 9 9 10 10 11 11 11 11 10 9 9 9 10 10 11 11 12 13 13 13 12 12 14 15 16 17
16 18 19 19 19 17 15 15 14 14 13 11 10 10 11 11 10 9 9 10 12 12 11 11 10 9 9 9 11 12 12 12 13 14 13 13 13 12 12 13 15 15
19 21 22 21 19 17 16 15 14 14 13 11 11 12 13 13 11 10 10 10 11 12 13 11 11 10 10 11 12 12 12 13 14 15 14 14 15 13 12 12 13 13
24 22 21 20 18 17 15 13 13 14 13 12 12 14 15 14 13 12 12 11 11 11 12 12 12 12 12 12 13 13 12 13 16 18 17 15 15 15 14 13 13 12
24 22 21 19 18 16 14 13 13 13 12 12 13 15 16 15 14 13 13 13 13 13 13 12 12 13 12 12 13 13 13 14 16 18 19 18 17 17 17 16 16 15
19 19 18 17 15 13 13 14 14 13 14 13 13 13 15 15 15 13 13 13 13 14 14 13 13 13 13 12 13 14 14 15 17 19 19 19 19 19 19 19 19 18
15 13 12 13 13 13 13 12 12 13 14 13 11 11 13 16 15 14 14 13 12 13 15 16 14 14 14 14 14 15 15 15 17 20 21 20 20 21 21 21 20 20
15 13 12 11 11 10 9 8 8 9 9 9 7 6 8 12 14 14 14 14 13 13 15 17 16 15 15 15 15 16 17 17 17 20 22 22 22 23 23 23 22 22
18 17 16 14 13 11 11 12 11 9 8 7 5 4 3 4 7 9 11 12 12 12 14 16 18 19 19 19 18 18 19 20 20 21 23 24 25 25 25 24 24 24
23 22 22 21 19 18 16 14 11 7 6 4 3 3 4 3 2 3 5 6 6 7 8 10 12 14 17 20 21 22 23 24 24 24 25 26 27 28 28 26 25 26
26 25 26 25 23 22 20 18 15 12 10 7 6 4 3 1 1 2 3 4 4 5 7 7 7 7 10 12 15 17 20 23 26 28 29 29 29 29 30 30 28 27
26 25 25 24 23 21 20 20 17 15 13 11 10 9 7 4 2 2 3 4 5 8 10 11 9 8 8 10 11 12 14 17 21 26 29 31 32 32 32 32 32 31
26 25 25 24 23 23 22 20 17 15 14 12 11 10 10 8 7 7 6 5 3 5 7 9 8 8 9 10 11 12 13 14 16 19 23 26 29 31 33 34 35 35
24 23 23 22 22 22 22 20 18 16 15 13 11 11 10 9 9 8 7 7 5 4 6 6 7 7 9 9 10 10 11 12 14 17 20 22 24 26 29 32 34 35
23 22 22 21 20 19 18 17 17 16 14 13 12 11 11 10 9 8 8 8 7 7 8 8 8 8 8 9 10 10 11 11 12 15 18 21 23 25 26 27 29 31
21 20 20 19 17 16 14 13 13 14 14 14 13 12 11 10 10 9 9 8 8 8 8 9 10 10 10 10 11 11 12 13 13 14 16 19 22 25 27 28 28 28

ECMWFNIL_925_spd_036.txt.gz
Wind_Speed
19 20 22 22 20 18 19 19 18 17 16 16 15 13 12 11 10 9 6 4 5 4 4 6 9 8 7 7 7 8 9 9 9 8 8 9 9 10 12 13 16 15
21 22 23 22 20 19 19 19 18 17 16 15 14 13 13 12 11 9 7 5 4 4 4 5 7 7 7 7 7 7 8 9 9 9 8 8 8 9 11 12 14 15
24 25 25 23 21 21 20 18 17 16 16 16 14 12 11 10 10 9 7 6 4 3 4 4 4 5 5 6 7 8 9 9 9 9 8 8 8 9 11 11 12 14
26 27 26 23 22 20 19 19 18 17 16 15 13 10 9 9 9 9 7 5 4 4 4 3 3 4 4 5 7 8 9 9 8 8 8 9 9 10 11 12 12 13
25 26 24 23 21 19 19 20 19 17 15 13 11 9 8 8 8 8 6 4 4 5 4 2 2 3 4 5 6 7 8 8 7 7 8 9 9 10 11 12 12 13
23 24 23 21 19 18 18 19 17 15 13 11 9 8 7 7 7 6 5 4 5 6 4 2 2 3 4 4 4 5 6 7 7 7 7 9 9 10 10 11 12 14
23 22 22 20 17 16 16 16 13 12 11 9 8 7 7 7 7 7 6 5 6 7 5 2 2 4 3 3 4 4 5 6 6 6 7 9 11 11 10 10 10 12
22 21 20 17 16 14 13 12 11 10 9 8 7 7 7 7 7 7 6 5 6 7 6 4 2 3 4 3 3 4 5 6 6 7 8 10 12 12 10 9 8 9
22 20 19 16 15 13 11 10 9 8 7 7 7 7 7 7 7 6 6 5 6 7 7 5 3 3 3 3 3 4 5 5 6 8 9 10 12 11 9 8 7 6
21 20 19 17 15 13 11 10 9 7 7 7 8 7 7 6 6 6 7 6 6 7 8 6 4 3 2 3 4 4 5 4 5 8 9 10 10 9 8 7 7 7
19 20 18 17 15 13 12 10 8 7 7 8 8 6 5 5 6 6 6 6 7 7 7 7 6 4 3 3 4 5 5 5 5 7 9 9 9 8 8 8 8 9
14 17 18 16 14 14 13 11 8 7 8 8 7 5 5 5 5 5 5 6 6 6 7 7 6 6 5 4 5 5 6 6 7 8 9 10 9 8 8 9 10 10
12 12 14 14 13 13 13 11 9 8 8 8 6 5 6 6 6 5 4 5 5 6 6 6 6 6 5 5 5 6 7 7 8 9 10 10 9 8 8 9 10 11
13 8 8 9 10 11 11 10 10 9 8 7 5 5 6 6 6 5 4 4 4 5 6 6 6 6 5 5 5 6 7 8 8 9 10 10 9 9 9 9 9 9
16 10 8 7 8 9 10 10 9 9 8 6 5 5 6 7 7 6 6 6 5 5 6 6 6 6 5 5 5 5 6 6 6 7 9 11 10 9 9 9 9 9
15 13 11 10 9 9 8 8 8 7 7 6 5 5 6 8 9 8 7 7 7 7 7 6 6 6 6 5 5 5 4 5 5 5 7 10 10 10 10 10 10 10
13 12 10 8 7 6 6 6 6 6 5 5 5 6 7 9 10 10 9 9 8 8 7 7 7 7 7 7 6 6 6 6 7 7 7 9 11 12 11 11 11 12
14 11 10 8 6 6 5 5 5 4 4 4 4 5 6 8 9 10 9 8 8 8 7 7 8 9 9 9 9 8 8 9 9 10 10 10 11 13 14 13 13 13
18 16 15 13 11 10 9 8 7 7 7 5 5 4 4 5 5 5 4 3 4 4 4 4 4 6 8 9 10 10 11 11 11 12 12 12 13 14 15 16 16 16
23 22 21 18 16 15 14 13 12 11 10 9 7 6 5 6 5 4 3 3 2 3 3 2 2 1 3 5 6 8 9 11 12 13 14 15 16 16 17 18 19 19
28 27 25 23 22 21 21 20 19 17 15 12 10 9 8 8 8 6 5 4 4 5 5 4 4 2 1 2 3 5 6 8 10 11 13 14 16 18 19 20 21 22
27 26 26 25 23 23 24 24 22 21 19 16 14 13 12 11 11 10 9 8 7 6 5 5 5 4 3 3 4 5 6 7 9 10 11 12 14 15 17 19 21 22
22 23 23 22 21 21 22 22 21 20 19 17 16 15 14 14 13 13 12 11 10 9 8 7 7 6 5 4 5 5 6 8 9 10 11 12 14 14 15 16 17 19
21 20 19 18 18 18 18 18 18 18 17 17 17 16 15 15 13 12 12 12 12 11 10 9 9 8 6 5 5 6 6 7 9 10 11 13 15 16 16 16 17 17
20 20 19 18 17 16 14 14 14 13 13 13 14 15 15 15 14 13 12 12 11 11 9 9 8 8 8 7 6 6 6 7 8 9 10 11 13 15 17 18 18 19
18 18 18 17 16 14 12 11 11 11 11 11 10 10 10 11 13 13 13 12 12 11 10 9 9 8 8 8 8 8 8 8 9 10 11 11 13 14 16 17 18 19

ECMWFNIL_925_spd_039.txt.gz
Wind_Speed
20 21 20 19 19 21 20 18 18 18 17 16 15 14 13 13 12 10 8 7 6 5 5 8 11 11 11 11 10 9 10 10 11 12 12 12 13 13 13 12 12 12
21 22 20 19 20 22 20 19 18 18 17 16 15 13 12 11 10 9 7 6 6 5 4 8 10 11 10 10 10 9 9 11 11 11 10 10 10 11 11 11 12 13
22 22 20 19 22 23 21 20 19 17 17 16 14 13 12 12 10 8 7 6 7 6 5 7 8 8 8 9 9 9 9 10 10 10 9 8 7 8 9 9 11 12
22 23 20 19 22 22 21 21 19 17 16 15 15 14 13 12 11 10 8 7 6 6 6 7 6 6 7 7 7 8 9 10 9 8 8 7 7 7 8 9 10 12
22 23 21 20 22 21 20 20 19 17 16 16 16 14 12 12 12 10 8 6 6 6 6 5 5 6 6 6 6 7 8 8 8 7 7 7 7 8 9 10 10 11
22 24 22 21 21 21 20 20 19 17 17 17 16 13 12 12 11 10 7 5 5 7 6 4 5 7 7 6 6 7 8 8 7 7 7 8 8 9 10 12 11 12
22 23 23 21 21 20 20 20 19 18 18 16 15 13 12 11 10 9 7 5 6 7 6 5 6 8 8 7 7 8 8 8 8 7 7 8 8 9 10 11 11 12
22 22 22 22 21 19 19 19 19 18 17 16 15 14 12 11 10 9 7 6 7 8 6 5 6 7 7 7 7 7 8 9 8 6 6 7 8 9 9 9 10 12
22 22 22 21 20 19 19 20 19 18 17 16 15 14 13 11 9 9 7 6 7 9 7 5 5 6 7 6 6 6 7 8 7 6 5 7 9 8 8 7 8 9
23 23 22 21 20 19 20 20 19 18 17 16 16 15 13 11 9 8 7 7 8 9 8 6 5 5 5 5 5 4 5 6 7 6 5 7 9 8 6 5 5 5
25 24 24 22 20 19 20 20 18 18 17 17 16 14 12 11 10 9 8 8 8 9 9 7 5 4 3 4 4 4 4 4 6 6 6 7 9 8 6 5 4 3
26 25 24 22 21 20 20 19 18 17 18 17 15 13 11 10 10 10 9 8 8 8 9 7 6 4 3 4 4 4 4 4 4 6 7 8 8 7 6 5 4 4
24 24 24 23 21 20 19 18 17 17 18 17 13 11 11 11 10 9 9 8 8 8 8 7 6 6 5 4 4 4 5 5 4 5 6 8 9 8 6 6 6 5
16 18 18 19 19 18 17 17 17 17 17 15 13 11 11 11 10 9 8 8 7 7 7 6 6 6 5 4 4 4 5 5 5 5 5 7 7 7 6 6 6 7
15 15 15 15 17 17 16 16 16 16 15 13 12 11 10 10 9 8 7 6 6 6 6 6 6 6 5 5 4 4 5 5 6 5 6 7 7 6 6 7 6 6
17 16 15 15 17 18 17 15 14 14 13 11 11 10 9 9 8 7 6 5 4 4 4 5 6 6 6 6 6 5 6 7 7 6 7 8 8 7 7 8 7 6
21 19 18 17 16 17 16 14 12 12 11 10 10 9 8 8 7 6 5 4 4 3 2 3 5 6 7 8 7 6 6 8 8 7 7 8 9 9 8 8 8 7
22 20 20 19 17 17 16 14 12 12 11 10 9 8 8 7 7 5 4 3 3 2 1 1 2 4 5 6 7 7 6 7 7 6 6 6 8 9 9 9 9 8
22 21 21 20 19 18 17 15 14 13 13 12 12 10 9 8 8 6 5 5 5 5 5 5 4 3 1 3 5 6 5 6 6 6 5 5 6 6 7 8 9 9
25 25 25 24 23 21 20 19 18 18 17 16 15 14 13 12 11 10 10 10 10 9 9 9 8 6 4 2 1 3 3 4 5 5 5 5 5 5 6 7 7 8
29 29 29 28 27 26 25 24 23 22 20 19 18 18 17 16 15 14 13 13 12 11 10 10 9 8 5 4 3 1 1 2 3 3 3 4 5 5 6 7 8 8
29 29 28 27 27 27 27 27 26 24 22 21 20 20 19 18 17 17 16 14 13 11 10 10 9 7 5 4 3 2 2 1 2 2 2 3 4 5 6 7 8 9
24 25 24 23 24 24 24 24 24 24 22 20 20 20 19 18 18 17 15 14 13 12 10 10 8 6 5 4 3 3 3 3 3 3 3 3 4 5 6 6 7 8
20 21 20 19 18 18 19 17 17 17 16 15 16 18 18 18 16 15 14 13 12 11 10 9 9 7 6 5 4 4 4 4 4 4 5 5 5 5 5 6 6 7
22 21 20 19 16 14 13 11 11 11 10 9 10 11 12 12 11 11 11 11 11 10 9 9 9 8 8 7 7 6 6 6 6 6 7 7 7 8 8 7 7 7
21 21 21 19 17 15 12 10 9 8 7 6 7 7 6 6 6 6 6 6 7 7 7 7 8 8 9 9 9 9 8 8 7 7 8 9 10 10 11 11 10 9

ECMWFNIL_925_spd_042.txt.gz
Wind_Speed
20 17 17 15 14 15 16 14 13 14 13 12 13 13 12 12 13 12 11 10 10 9 8 9 9 9 9 10 9 9 9 10 9 9 9 9 8 8 9 9 9 8
20 17 16 14 14 17 17 14 13 13 13 13 13 12 12 13 13 11 10 9 9 9 9 9 10 10 10 10 10 9 9 9 9 8 8 9 8 8 9 10 10 10
20 18 17 15 15 18 16 13 13 13 13 13 13 12 13 14 13 10 9 9 9 9 9 10 11 11 10 10 10 10 9 9 9 8 8 8 8 8 9 10 11 11
20 19 17 15 17 18 16 14 14 14 14 13 13 13 13 14 12 10 9 9 9 9 9 10 11 10 10 9 9 9 9 9 10 9 8 8 8 8 9 10 11 12
20 19 16 16 18 18 16 16 16 15 15 14 13 13 13 13 11 10 10 9 8 8 8 9 10 9 9 9 8 8 8 9 10 9 9 9 9 9 9 10 11 12
19 18 16 17 19 18 18 17 16 16 15 14 13 12 12 13 12 11 10 9 8 8 7 7 8 8 8 8 8 8 8 9 9 10 10 10 10 10 10 10 11 12
18 18 17 18 19 19 18 17 16 15 15 14 14 13 12 13 12 11 10 9 9 8 7 7 7 8 8 8 8 8 8 9 9 10 10 10 10 10 10 10 11 11
17 18 18 18 20 19 17 17 16 15 15 15 14 13 13 13 12 11 10 10 9 8 7 7 8 9 9 9 9 9 9 8 8 9 9 9 9 10 10 10 10 10
16 17 18 19 20 19 17 17 17 15 15 15 14 13 12 12 12 11 10 10 10 9 7 7 7 8 8 9 9 10 10 9 8 8 8 9 9 9 9 10 9 10
14 16 17 18 19 19 18 17 17 16 15 14 13 13 11 11 11 10 10 10 10 9 8 8 8 7 7 7 7 8 9 9 9 7 7 9 9 9 8 8 8 9
9 12 16 17 17 18 18 17 17 16 15 14 13 12 11 11 10 10 10 10 10 10 9 9 8 8 7 7 6 6 7 8 8 7 7 8 9 8 8 8 7 7
8 8 10 13 15 17 18 18 17 16 15 14 13 13 12 10 10 9 9 9 10 9 9 9 8 8 7 7 7 6 6 7 7 6 7 8 8 8 8 7 7 7
11 9 8 10 11 14 16 16 16 16 15 15 14 13 12 11 10 9 8 8 9 8 9 8 8 7 6 6 7 7 6 6 6 6 6 6 7 7 7 6 6 5
15 15 14 13 12 14 15 14 15 16 15 14 13 12 11 11 11 10 8 8 8 8 8 8 7 6 6 6 6 6 6 6 5 6 6 6 6 5 5 5 5 4
18 19 18 15 13 14 14 12 12 14 14 13 12 11 11 11 11 10 9 9 8 8 7 7 6 5 5 5 4 4 5 6 6 6 6 6 6 6 5 5 5 4
21 21 19 17 16 16 15 12 11 11 12 12 11 11 11 10 10 10 10 9 9 8 7 6 4 5 6 6 5 4 4 4 6 6 6 7 8 8 7 6 6 5
21 22 22 21 20 19 18 16 15 13 12 11 11 10 10 10 10 10 9 9 8 8 7 6 6 7 7 7 6 6 4 3 5 5 5 6 8 8 8 8 7 6
20 24 25 23 21 21 20 19 17 15 13 13 12 11 10 10 10 10 10 9 10 9 8 6 7 7 7 7 6 6 5 4 4 4 4 5 6 8 8 8 9 8
24 26 26 24 22 22 21 20 18 15 14 14 14 12 11 11 11 11 11 11 11 11 10 9 7 6 6 6 6 5 5 5 4 4 4 4 4 5 6 6 7 8
26 26 25 24 23 21 22 21 19 16 15 15 13 12 12 12 12 13 14 13 13 13 13 12 10 8 7 6 5 4 5 4 3 2 3 3 3 4 4 4 5 6
26 26 25 24 23 21 20 21 19 18 17 16 15 14 14 13 13 15 16 15 15 14 14 14 12 10 8 7 6 5 5 4 2 2 3 3 3 3 4 4 5 6
21 23 23 22 22 22 21 21 21 19 18 19 19 19 18 17 17 17 16 15 14 13 14 14 12 10 8 7 6 6 5 3 0 2 2 2 2 2 3 3 3 4
21 22 21 20 20 21 22 23 22 19 18 20 20 19 18 18 19 18 16 14 13 13 13 12 11 9 7 6 6 6 5 3 1 1 1 1 1 1 2 2 3 4
21 22 21 19 18 19 19 19 18 16 16 16 16 16 16 16 17 18 16 14 13 12 11 10 9 7 5 4 4 4 4 3 2 1 1 1 2 2 3 3 5 7
16 17 17 16 16 16 15 14 13 13 12 11 12 14 15 14 14 14 14 12 11 10 9 8 6 4 3 3 2 1 2 3 2 1 0 1 2 3 3 3 4 6
16 16 15 14 14 13 13 12 12 11 10 9 10 11 12 11 11 10 10 9 8 6 5 5 3 2 3 3 3 3 1 1 2 1 1 2 3 4 4 4 4 4

ECMWFNIL_925_spd_045.txt.gz
Wind_Speed
22 23 23 21 21 21 19 15 14 13 13 12 11 11 11 11 10 10 8 7 8 7 7 8 8 9 8 9 9 9 10 11 11 12 12 11 10 10 10 11 11 8
25 26 26 24 21 19 17 16 15 14 14 13 12 12 12 12 12 11 9 8 8 7 7 7 8 9 9 9 9 9 10 10 10 10 9 10 12 11 10 10 11 10
26 27 27 25 19 17 17 17 15 15 14 13 13 13 13 13 13 11 9 9 8 7 8 7 8 9 8 8 8 8 9 9 10 10 9 10 10 10 10 11 12 12
26 27 27 23 18 17 18 17 15 15 14 14 14 14 14 14 13 11 10 9 8 7 8 8 8 8 8 8 8 8 8 9 10 10 9 10 10 10 11 11 12 12
23 23 23 21 18 18 18 16 15 15 15 14 15 14 14 14 12 11 10 9 8 8 8 8 8 8 9 9 8 8 8 9 10 9 9 9 9 10 11 12 13 13
20 20 20 21 21 19 18 17 15 15 15 14 15 14 14 13 11 11 10 9 9 9 8 9 9 9 9 9 9 8 9 9 9 10 10 9 9 9 9 11 13 13
20 21 20 20 21 20 18 17 16 15 15 14 15 14 13 13 11 11 11 10 9 9 9 9 9 9 9 9 9 9 9 9 9 10 10 8 9 9 8 9 11 11
22 24 22 20 20 20 18 18 17 15 15 15 14 14 13 13 11 11 10 10 9 9 9 9 9 9 10 9 9 9 9 9 9 10 9 8 8 8 9 9 9 11
25 25 23 20 21 21 19 18 18 16 15 15 14 14 14 13 12 11 10 10 9 8 7 8 8 8 8 9 9 9 9 9 8 9 9 8 8 8 9 9 9 11
25 23 22 22 23 22 20 19 18 17 15 14 14 14 14 13 12 11 10 10 9 8 7 7 7 7 6 7 7 7 8 8 7 8 8 8 8 8 9 9 9 10
23 22 24 26 24 22 21 20 19 17 15 14 14 14 13 13 13 12 11 10 9 8 7 6 6 6 6 6 6 5 6 7 7 7 7 8 8 9 9 9 9 10
23 24 23 24 23 21 20 20 18 17 15 13 13 13 13 13 13 12 11 11 10 9 7 6 6 6 6 6 6 5 6 7 7 7 7 8 8 8 8 8 9 10
24 24 21 21 21 19 18 17 16 15 15 14 13 13 13 12 12 11 10 10 10 9 7 6 6 6 6 6 6 7 6 6 6 6 7 8 9 8 8 8 8 8
23 22 19 20 20 19 18 18 16 15 15 14 13 13 12 12 11 11 9 9 9 8 7 6 6 5 5 4 5 7 8 6 5 6 7 8 8 8 8 7 7 7
23 21 18 17 18 18 18 19 18 16 14 13 13 12 11 11 10 10 9 8 8 7 6 6 4 4 6 4 2 3 7 7 7 7 7 8 8 7 8 7 7 7
25 22 18 15 16 16 16 17 17 16 13 13 12 11 11 11 10 9 8 8 8 8 7 5 5 6 8 7 3 4 4 6 8 8 7 8 9 9 8 8 8 7
22 21 18 15 14 15 16 16 15 13 12 12 12 11 11 11 10 10 9 8 9 8 7 5 5 6 8 8 6 6 3 2 5 7 6 7 9 9 9 8 8 8
18 17 17 16 15 16 19 19 18 15 13 11 11 10 10 10 10 10 9 9 9 8 7 7 7 7 8 8 8 8 5 2 3 6 6 5 6 8 8 9 9 9
18 18 19 20 19 20 21 22 21 20 17 15 13 11 9 8 8 9 10 9 9 8 8 8 8 8 8 9 8 8 8 6 5 6 6 5 5 6 7 7 7 9
21 22 20 20 21 22 23 22 21 20 18 17 16 14 13 12 11 11 10 8 8 10 10 9 9 9 9 10 9 8 8 7 5 4 6 5 4 5 5 4 4 5
21 22 21 20 21 21 22 22 20 19 18 16 15 15 15 14 12 11 9 8 9 11 12 12 10 10 10 10 10 9 9 7 4 3 5 5 4 4 4 4 4 4
23 24 23 23 22 22 22 21 19 18 18 15 13 13 13 13 13 12 10 8 9 12 13 12 11 10 10 10 10 10 9 7 5 5 6 6 5 4 5 4 4 4
24 25 24 23 23 22 21 20 18 17 16 15 14 14 14 14 14 13 12 10 8 9 11 11 10 9 8 8 9 9 7 4 4 6 5 5 5 5 4 4 4 4
22 23 22 21 21 20 19 18 17 15 14 14 15 15 15 15 13 14 15 13 10 9 9 9 9 8 6 6 6 6 5 2 1 4 4 4 4 4 3 4 5 5
21 21 20 18 17 17 17 16 15 14 13 13 13 13 13 14 13 12 13 13 12 11 9 7 6 6 5 5 4 4 4 2 4 3 2 2 2 2 2 3 5 4
19 19 19 17 15 15 15 14 14 14 13 12 11 11 11 11 9 9 10 10 10 9 8 6 4 3 2 2 2 1 3 3 5 5 3 3 4 2 2 2 3 3

ECMWFNIL_925_spd_051.txt.gz
Wind_Speed
25 25 26 25 25 26 27 27 26 26 25 24 23 21 21 21 20 19 18 16 14 15 15 16 17 18 18 19 19 20 20 19 18 18 19 19 19 20 19 18 17 15
24 23 24 24 24 25 26 25 24 25 24 23 22 20 20 21 19 18 18 17 15 14 16 16 15 16 19 18 18 19 19 19 18 19 19 17 18 19 19 19 17 16
23 23 25 24 23 23 25 25 23 23 23 21 21 20 20 21 19 17 18 18 17 16 16 16 13 13 16 17 17 18 18 18 19 20 19 17 17 18 18 18 17 16
25 26 26 24 24 24 25 25 23 23 23 21 20 20 20 20 20 19 18 18 18 17 16 16 15 13 14 15 16 16 16 17 17 18 18 17 16 16 17 17 17 17
26 27 26 26 25 25 25 25 24 23 23 22 20 20 20 21 22 21 19 18 18 17 17 16 16 15 14 13 14 15 15 16 16 17 17 17 15 15 16 17 17 17
25 26 26 26 26 25 25 25 23 23 22 21 20 21 21 22 22 21 20 19 18 17 17 16 16 16 14 13 13 14 14 15 16 16 17 17 16 16 16 15 16 16
25 26 26 26 25 24 24 23 22 21 20 19 21 23 22 21 21 21 20 18 17 16 17 17 16 16 15 14 14 14 13 15 17 17 16 16 16 16 15 15 16 16
23 26 26 25 24 23 23 23 21 19 18 20 23 23 21 19 19 19 20 19 17 16 16 16 16 16 15 15 14 14 13 14 16 17 17 16 15 15 15 14 15 15
24 27 27 24 23 23 23 22 19 18 18 21 22 21 19 19 17 17 19 18 17 16 16 16 16 16 15 15 14 13 13 13 15 17 17 15 15 16 16 15 15 14
27 28 27 25 24 24 24 21 18 19 20 21 21 20 20 18 16 16 17 18 17 16 16 16 16 15 15 14 14 12 12 13 13 16 17 15 14 16 16 16 17 16
30 29 27 25 25 25 24 20 19 20 21 21 20 19 19 18 17 17 17 17 17 16 15 15 15 15 14 13 13 12 10 11 13 14 15 14 13 12 13 14 16 18
32 29 28 26 25 26 24 21 22 22 21 19 18 18 19 19 19 18 17 16 16 16 15 14 15 16 14 13 13 12 10 11 13 13 13 14 12 11 12 13 14 15
34 30 29 28 27 26 24 23 24 23 20 19 18 18 20 20 19 17 17 16 16 16 16 16 16 15 14 12 12 10 10 12 12 12 13 13 12 12 12 14 14 14
31 30 30 29 28 26 24 25 26 23 20 21 20 19 21 21 20 18 17 16 14 14 15 16 17 16 15 14 12 10 11 12 11 11 11 12 11 11 13 15 15 13
25 27 30 31 29 27 27 28 27 24 22 21 21 20 21 21 19 18 17 16 15 15 16 17 19 18 16 14 14 13 11 10 10 10 10 9 7 8 13 17 16 13
23 25 30 33 31 30 31 29 27 25 22 21 22 22 20 19 19 18 18 17 18 18 18 18 19 18 17 15 15 15 12 10 10 8 7 8 8 9 12 17 16 14
24 24 28 33 34 32 33 31 27 25 21 21 23 21 17 18 20 20 19 19 20 19 18 17 17 16 15 15 14 14 13 13 11 6 5 7 9 12 15 16 15 14
25 24 25 30 33 32 32 32 28 25 22 21 21 18 16 19 21 21 21 21 20 20 19 17 14 13 11 12 13 13 12 12 11 6 5 5 6 8 11 14 14 13
25 23 22 26 29 29 30 31 28 25 22 19 19 19 20 22 22 22 23 21 20 19 18 16 13 10 8 8 10 11 11 11 10 6 4 4 3 4 7 9 10 11
22 20 20 23 26 24 26 28 26 25 22 18 20 24 25 25 25 24 23 21 20 19 17 15 13 9 7 6 6 7 7 7 8 7 5 5 6 8 7 5 7 12
20 20 19 21 24 24 25 27 26 25 25 24 24 26 26 26 25 24 23 21 19 18 16 14 13 10 7 5 5 5 4 3 6 8 8 8 11 13 13 11 9 12
24 23 21 22 25 26 27 28 27 27 28 28 28 27 26 26 25 24 23 21 19 17 15 14 13 10 8 7 6 5 3 3 5 7 8 10 12 13 13 14 14 13
32 26 22 24 29 29 29 30 29 29 30 29 30 29 27 27 26 24 21 19 17 15 13 12 11 9 7 7 8 8 6 5 6 9 11 14 15 15 15 16 15 14
38 32 24 24 31 31 30 31 31 29 29 28 28 28 26 26 25 23 20 17 15 13 11 10 10 8 6 6 8 9 10 9 10 13 16 17 17 17 17 16 15 14
37 34 27 26 32 33 30 30 30 28 27 26 25 25 25 23 22 21 19 16 14 13 11 10 11 10 8 7 7 9 11 13 15 18 19 17 16 16 16 15 13 12
34 33 29 29 32 33 31 28 26 24 23 23 23 23 23 22 19 19 19 17 14 13 12 12 11 11 10 8 7 7 9 12 14 19 20 18 16 15 14 13 12 11

ECMWFNIL_925_spd_054.txt.gz
Wind_Speed
26 26 27 27 24 22 24 26 28 29 27 25 24 22 21 21 21 21 20 21 22 21 21 21 21 21 21 20 21 21 22 22 22 22 21 21 22 22 21 21 21 20
24 25 25 26 26 23 25 27 28 29 28 25 23 23 22 21 20 19 19 21 22 22 20 20 19 19 20 20 21 21 22 23 23 22 22 21 21 22 21 21 21 20
23 24 23 24 26 25 25 26 24 24 24 23 21 21 21 21 19 18 19 19 20 21 20 19 19 19 20 20 21 21 22 23 22 22 22 21 20 21 22 21 21 20
22 24 24 25 24 22 23 23 21 19 19 21 22 22 22 20 19 19 19 18 18 20 20 19 19 21 22 20 21 21 21 21 21 21 21 21 20 21 21 21 20 20
23 25 25 24 22 21 21 22 21 20 21 22 22 22 22 21 20 21 21 19 19 20 20 19 20 21 22 21 21 21 20 20 21 22 21 21 22 21 22 22 21 20
25 26 26 23 21 21 22 23 24 25 25 24 21 20 21 22 22 23 23 21 20 20 20 19 18 19 21 22 22 20 20 20 22 23 22 22 23 23 23 22 22 21
27 28 27 25 23 21 21 25 28 29 27 25 23 22 21 23 24 23 24 24 22 21 20 19 19 18 19 21 21 21 21 21 22 23 23 23 22 22 23 22 22 22
29 29 28 27 25 23 23 27 30 29 27 25 25 24 23 25 26 24 24 24 23 22 21 21 20 19 18 19 19 20 21 21 21 22 22 22 22 21 21 21 21 22
32 32 31 28 27 27 27 29 30 29 28 26 26 26 26 27 27 25 25 24 23 22 22 22 21 19 18 18 18 19 20 19 19 20 20 21 21 20 20 20 19 20
31 34 32 30 29 29 30 32 30 29 29 27 26 27 28 28 28 25 24 24 23 22 23 22 21 20 19 18 18 18 18 18 18 19 19 20 20 19 19 19 19 19
22 27 28 29 31 31 32 32 30 29 30 28 27 29 30 29 28 26 24 24 24 23 24 23 22 21 20 19 18 18 17 17 18 19 19 19 19 19 19 19 18 19
19 22 26 27 30 32 32 31 30 31 30 29 29 31 31 28 27 25 25 24 24 23 24 23 22 21 21 20 19 17 16 16 17 19 19 19 19 18 19 19 18 18
20 22 25 26 28 31 32 31 31 31 30 31 33 33 30 26 24 23 25 25 24 24 24 23 22 21 20 21 20 17 16 16 17 19 20 21 20 19 19 19 19 18
18 20 20 23 25 28 30 31 30 30 30 33 36 33 27 24 23 23 25 25 23 24 25 24 23 22 20 20 20 18 15 15 17 18 20 20 18 18 19 19 19 19
19 20 18 19 23 25 28 30 30 30 31 31 32 29 26 25 24 23 25 23 21 22 24 24 24 23 21 18 18 17 15 15 17 17 17 18 17 16 17 18 18 17
18 21 19 20 24 26 27 29 30 32 33 30 27 27 26 26 25 24 24 23 21 21 22 23 23 22 21 19 17 17 16 15 16 15 15 16 15 15 16 16 16 15
14 21 22 21 24 28 29 30 31 32 31 27 26 27 26 26 26 25 24 23 22 22 22 21 20 19 18 18 18 17 16 15 13 13 14 13 12 16 18 17 16 14
11 19 23 22 24 29 31 31 31 32 30 26 26 28 29 29 28 27 26 25 24 25 23 21 19 18 16 17 17 16 16 15 12 11 13 12 9 11 15 17 17 15
9 20 25 24 25 29 32 31 29 31 31 27 28 32 31 30 30 29 29 28 27 26 24 22 20 18 16 17 16 15 15 15 14 13 13 13 12 11 13 16 17 16
3 17 24 24 24 26 28 28 28 31 33 32 32 34 33 32 32 32 30 28 27 26 24 21 19 16 15 16 16 14 13 14 15 14 14 15 16 15 16 18 18 17
14 5 19 22 23 25 24 23 26 30 32 35 35 34 35 35 33 32 30 28 26 25 23 20 17 14 13 14 14 12 12 13 14 15 15 16 17 18 18 19 18 17
27 12 10 21 25 28 27 25 28 30 30 33 37 36 35 35 33 31 30 28 26 24 24 21 17 13 11 11 12 11 11 13 15 17 18 18 18 18 18 17 16 15
33 25 12 19 25 29 31 29 30 31 29 30 35 38 36 34 33 31 29 28 27 25 25 24 21 16 12 11 11 11 13 15 17 19 20 21 21 21 20 19 17 15
35 31 24 21 21 25 31 32 31 32 31 29 32 36 37 34 33 32 28 27 26 25 25 25 23 19 16 14 13 13 15 18 19 21 23 23 23 22 21 20 18 16
36 33 31 28 25 22 25 31 33 34 35 33 32 34 35 34 33 32 29 26 25 24 22 22 21 20 17 17 16 16 18 21 22 23 24 24 22 22 20 19 17 16
35 32 32 32 29 26 24 25 30 36 37 36 33 31 32 33 31 31 30 27 25 23 21 19 18 17 16 16 16 16 18 20 22 23 24 23 21 19 19 17 16 14

ECMWFNIL_925_spd_057.txt.gz
Wind_Speed
28 26 26 26 25 25 25 24 22 23 24 26 25 25 24 23 22 23 22 20 19 20 21 22 21 21 23 23 22 23 24 24 24 24 24 25 25 25 25 25 25 23
26 26 26 27 25 24 23 22 21 21 24 26 22 21 22 20 17 19 22 21 20 20 22 22 22 22 23 23 23 24 24 24 24 24 24 25 24 24 25 25 25 24
28 27 28 28 26 25 22 20 20 20 23 25 23 22 23 21 17 17 20 21 20 21 22 22 22 23 24 23 23 23 23 23 23 24 25 25 25 23 24 25 25 24
32 29 28 29 28 26 24 22 21 21 23 24 24 23 25 22 17 17 19 20 21 21 22 22 22 22 23 24 24 22 22 23 24 25 24 24 24 23 23 24 23 22
27 27 28 28 27 25 25 24 24 24 25 26 26 24 24 21 18 18 19 20 21 21 22 23 23 22 22 23 24 23 23 24 25 25 24 24 23 23 23 23 22 22
20 24 27 28 27 25 26 26 25 26 27 28 28 26 24 22 19 19 21 20 21 21 22 23 23 22 22 23 24 24 24 24 24 24 24 24 23 22 22 22 22 21
20 23 26 28 28 26 26 25 25 26 28 28 27 26 25 23 20 21 22 23 25 24 23 24 23 22 25 26 26 25 24 23 23 23 23 23 22 22 21 20 21 20
19 22 25 27 26 27 26 25 25 25 26 27 27 25 25 24 23 23 24 26 28 26 25 25 24 24 27 27 25 24 24 23 23 23 22 22 22 22 21 20 19 20
15 17 23 27 26 27 27 25 25 25 25 26 26 26 25 24 25 25 25 27 28 26 24 25 25 24 25 25 24 24 24 23 22 22 22 22 23 22 22 20 19 20
15 15 18 25 27 26 27 26 25 25 26 26 27 27 26 24 24 24 25 27 28 25 24 24 23 23 22 22 22 23 23 22 21 21 21 21 22 22 22 21 21 22
14 15 14 19 24 24 24 25 25 26 27 27 27 26 26 25 23 25 27 28 27 25 25 24 22 22 21 20 20 20 20 21 20 20 20 20 20 20 21 21 22 22
11 11 11 14 18 20 22 23 22 23 24 26 26 25 26 26 25 26 28 28 27 26 24 23 22 22 21 20 19 18 18 19 19 19 19 18 18 18 20 21 21 21
10 10 10 12 15 18 21 23 22 20 21 25 26 24 25 26 26 27 26 25 25 25 24 23 23 23 22 20 19 18 17 18 18 18 18 18 18 18 19 20 20 20
8 10 12 12 15 17 19 21 23 22 22 24 25 24 23 24 26 27 25 23 24 24 23 24 24 23 22 21 19 18 17 17 17 17 18 19 19 19 19 19 18 19
10 11 12 12 15 17 18 20 24 24 22 23 24 24 23 22 24 25 23 22 25 25 24 24 25 24 23 21 21 19 18 17 17 17 17 18 19 19 19 18 17 18
17 14 12 13 15 16 18 21 24 24 23 24 25 24 23 24 25 24 21 22 25 25 25 25 25 25 23 22 21 20 19 18 17 17 17 17 18 19 18 18 17 17
22 18 15 12 14 17 17 21 24 25 24 25 25 23 23 25 26 23 20 23 26 26 25 26 25 25 23 21 20 20 20 19 17 17 17 17 17 18 17 16 17 17
26 21 17 13 12 17 20 22 25 26 26 27 26 24 25 26 24 22 22 25 26 26 25 25 25 25 23 22 20 19 19 18 17 16 16 16 16 16 16 16 16 16
28 22 17 13 11 17 21 23 26 28 28 28 27 26 26 25 23 22 25 26 25 25 23 23 24 24 24 22 20 19 18 17 16 16 16 16 16 17 17 17 16 15
28 23 18 14 10 13 18 23 28 31 29 26 26 27 25 24 25 25 26 25 25 24 23 21 21 21 22 22 20 18 17 17 16 16 17 16 15 15 16 16 16 15
30 26 22 18 13 7 14 25 28 29 28 26 26 27 26 26 28 28 27 26 25 25 24 22 21 20 20 21 20 19 18 18 18 18 17 15 13 12 13 15 16 15
31 28 27 25 21 11 7 24 29 28 27 27 27 25 25 26 27 29 29 27 25 25 25 24 22 20 20 20 21 21 21 20 19 19 18 16 14 13 14 15 14 14
32 29 28 29 28 24 11 9 25 30 29 28 29 28 27 27 27 28 28 27 25 24 24 25 23 20 19 20 20 22 22 22 21 19 19 18 17 16 16 16 15 13
34 32 29 30 32 32 27 13 10 26 30 30 31 31 30 28 27 28 27 26 25 24 23 23 23 21 19 19 18 19 21 22 22 21 20 20 19 19 18 17 16 15
34 34 31 31 33 34 32 26 13 14 26 31 32 33 31 29 28 30 30 27 26 26 24 23 23 21 20 20 19 19 20 21 23 23 23 23 22 21 20 18 17 17
34 35 34 32 32 33 33 30 24 16 19 26 30 32 33 31 28 30 31 29 28 28 27 25 23 20 19 20 21 22 22 23 23 25 26 25 24 22 21 19 17 17

ECMWFNIL_925_spd_060.txt.gz
Wind_Speed
25 27 29 29 28 27 27 26 25 25 25 25 26 27 25 24 24 25 26 25 25 24 23 23 23 23 27 27 25 25 26 27 29 28 28 28 27 25 23 22 23 24
24 25 26 26 26 27 27 25 24 26 26 25 26 26 24 23 23 23 24 23 23 23 21 21 21 23 27 27 25 25 24 26 28 27 27 27 26 25 23 22 22 23
22 23 22 23 24 24 25 24 23 24 25 25 25 24 24 24 23 22 22 21 22 23 21 20 22 24 26 26 25 24 23 25 27 26 25 26 25 25 24 22 21 22
21 22 22 22 23 22 24 24 23 23 24 24 24 24 25 25 23 22 21 19 22 24 22 22 24 25 25 25 24 23 23 24 25 24 24 25 24 24 24 22 21 22
21 23 23 23 22 22 24 23 22 24 25 24 23 24 24 24 22 20 20 20 23 24 23 23 25 25 24 23 22 22 24 25 24 24 24 24 24 24 23 22 21 22
19 22 23 22 20 20 23 23 23 26 26 24 23 23 25 25 22 20 21 22 24 25 24 23 24 24 23 22 22 23 24 25 24 23 24 23 24 23 21 21 21 22
16 17 19 19 19 20 22 23 25 27 26 24 22 22 25 26 24 21 21 22 23 24 23 22 23 24 23 22 23 24 24 23 23 23 23 23 22 21 20 20 20 20
14 13 13 15 16 19 21 22 25 28 26 23 23 23 25 26 25 23 22 22 22 22 21 20 22 23 23 22 22 22 23 22 22 22 22 22 21 21 20 20 19 21
15 13 11 11 12 15 18 21 24 26 25 24 24 24 25 26 25 24 23 22 22 21 20 19 19 20 21 21 21 22 22 22 21 21 21 21 21 20 21 21 21 22
16 15 13 12 12 12 16 19 22 23 24 24 25 24 24 25 25 24 23 22 23 22 21 18 18 18 19 20 21 22 23 22 20 21 21 20 20 20 21 22 22 22
18 17 16 15 14 14 15 18 22 23 24 24 24 23 24 25 25 24 22 23 23 22 21 19 18 17 18 20 21 22 23 22 21 23 24 21 20 22 22 22 22 21
21 20 18 17 16 17 16 18 22 23 24 24 22 20 22 23 22 22 22 22 23 22 21 20 18 17 18 20 20 21 22 22 23 24 24 22 22 23 23 22 22 21
23 21 20 18 17 18 17 18 20 22 23 23 22 20 20 20 20 21 21 20 21 22 20 19 18 18 20 21 20 20 21 22 22 23 23 23 22 22 21 21 22 22
24 22 20 19 18 17 18 18 19 22 22 22 22 21 20 20 21 22 21 20 21 22 21 19 19 20 23 23 21 19 20 20 21 21 21 21 20 19 19 20 20 20
25 23 20 19 18 17 18 19 20 22 22 22 22 22 22 21 21 21 22 22 23 23 22 21 21 22 25 25 22 20 20 20 20 20 19 19 19 18 18 17 17 17
26 25 23 20 18 17 17 20 21 21 22 23 23 23 23 22 20 22 23 24 24 24 24 22 21 23 25 24 22 22 21 20 20 19 18 18 18 18 17 17 17 16
27 27 25 22 20 18 17 19 22 22 21 22 23 23 24 22 21 22 24 25 25 24 24 23 23 24 24 23 23 23 22 21 20 19 18 18 17 17 17 17 17 16
28 28 27 25 21 19 17 17 20 23 22 22 23 24 24 23 22 22 24 24 24 24 24 25 25 24 23 23 23 23 22 22 20 18 18 18 17 17 16 17 17 16
29 29 29 27 24 20 17 17 19 23 24 23 24 25 25 25 24 24 25 25 25 24 25 26 25 23 23 23 23 22 21 21 20 19 17 17 17 17 17 17 17 16
31 30 30 29 27 23 17 15 15 21 27 26 25 26 27 27 26 26 27 27 27 26 26 25 24 23 22 23 22 21 20 20 20 19 18 17 17 17 17 16 16 16
32 31 30 30 29 26 20 17 13 9 18 23 25 26 27 28 28 28 28 28 27 26 26 26 24 23 23 23 22 21 20 20 20 19 18 18 17 17 17 16 16 16
33 31 30 30 30 28 25 23 21 14 3 8 17 22 24 24 25 25 25 25 25 25 25 25 23 23 23 22 22 22 20 20 19 19 19 18 17 17 17 17 17 17
33 31 30 29 29 29 28 27 25 22 17 8 4 10 16 19 20 21 21 21 21 22 23 24 23 22 23 22 22 23 22 21 21 20 19 18 17 16 16 17 17 17
33 32 30 30 29 28 27 28 28 27 24 19 14 10 7 10 15 17 17 16 16 17 18 21 22 21 22 23 23 23 24 23 23 22 20 19 18 17 17 17 17 16
34 33 31 31 30 28 27 27 28 29 28 26 24 21 17 12 12 15 16 15 14 14 14 16 19 20 21 23 24 24 24 24 24 23 22 21 21 21 20 19 18 17
32 33 32 31 31 31 30 28 28 29 30 31 31 28 25 22 19 19 20 19 17 16 15 15 16 17 18 20 22 23 23 24 25 25 24 24 23 23 22 22 21 20

ECMWFNIL_925_spd_063.txt.gz
Wind_Speed
14 14 14 15 16 16 15 16 18 19 20 21 22 20 18 20 22 20 22 26 27 28 29 28 27 27 27 26 26 26 24 25 27 27 27 28 25 21 20 20 21 22
15 14 12 13 14 16 16 16 17 18 20 22 21 21 21 23 24 23 23 25 26 28 29 28 26 26 26 26 26 25 22 22 26 27 28 29 26 21 22 23 24 24
13 13 12 12 12 14 15 15 16 17 20 21 20 20 23 24 23 23 24 24 25 28 29 27 25 25 24 24 24 23 21 21 25 27 27 28 26 23 24 25 26 27
14 13 13 13 14 13 12 13 14 17 19 20 19 18 21 25 22 20 21 21 22 24 25 25 24 24 24 23 23 22 22 23 23 24 23 23 23 23 24 24 24 25
14 14 13 13 13 13 12 12 12 15 18 19 18 15 17 22 21 18 20 21 21 21 21 22 22 22 22 23 24 23 22 23 22 23 23 21 21 23 24 22 21 21
14 14 14 13 12 12 13 13 13 15 17 18 18 15 15 18 19 19 20 21 23 22 20 20 22 22 21 22 25 24 22 21 19 20 21 21 21 22 23 22 20 21
16 16 15 13 13 13 13 13 13 14 16 16 16 15 15 16 18 19 20 22 24 23 18 19 22 23 22 25 27 24 21 20 19 22 22 21 21 21 23 24 20 20
17 16 15 14 13 13 14 14 13 12 13 13 14 16 17 17 16 16 18 20 22 21 19 19 21 21 21 26 27 22 19 19 22 27 25 20 21 23 24 23 20 19
17 16 15 14 14 13 14 14 14 12 11 12 14 16 16 16 15 14 14 16 18 21 22 21 21 19 18 22 25 22 21 22 24 28 25 20 20 22 21 20 19 19
17 16 16 15 14 14 14 14 14 13 12 13 15 15 14 14 14 12 13 14 15 18 20 19 19 18 15 19 24 24 23 23 23 23 23 20 20 20 19 18 18 17
19 17 16 16 16 15 15 15 14 13 12 13 15 14 13 12 12 13 16 18 17 19 20 18 17 17 16 19 23 24 24 23 21 21 20 19 18 17 17 17 16 16
23 21 19 17 17 18 17 16 15 13 11 12 13 14 13 13 13 15 18 19 18 20 21 18 16 15 16 17 19 21 22 21 21 20 19 17 16 16 16 16 16 16
24 25 23 20 19 20 19 18 17 15 12 11 11 13 14 14 14 16 18 18 17 17 19 20 17 15 16 19 18 17 17 17 17 17 16 15 14 14 14 14 14 14
23 23 25 24 23 23 22 19 18 16 15 13 12 13 15 15 14 15 16 16 16 16 19 21 19 15 15 18 17 14 14 14 13 14 14 13 13 14 13 12 14 15
23 23 24 25 25 25 24 22 19 18 17 15 14 15 17 16 16 16 15 15 16 17 20 21 19 17 17 17 16 14 13 12 12 12 12 12 12 13 13 13 16 17
23 23 24 25 26 25 26 26 23 19 18 17 16 16 17 17 17 16 16 16 16 18 23 24 22 22 21 20 19 17 15 12 11 11 11 11 11 12 12 13 15 16
22 24 25 25 26 26 27 29 27 21 18 17 17 17 17 17 18 17 16 16 17 18 23 25 24 23 22 21 19 19 17 14 12 12 12 12 13 13 13 12 13 15
22 24 26 26 26 26 27 30 29 24 18 17 16 17 17 17 17 18 18 18 18 19 23 25 24 22 21 19 19 19 18 17 16 15 14 14 15 14 14 13 14 14
23 25 25 26 27 26 26 28 30 27 21 18 16 16 17 18 18 18 17 17 18 19 23 25 24 21 19 19 18 18 18 18 19 18 17 17 17 17 16 16 15 15
25 25 25 26 26 26 26 26 28 29 25 20 17 14 11 12 16 17 17 18 20 22 24 25 23 21 19 19 19 18 19 19 19 18 18 19 19 19 19 18 18 18
25 26 26 26 25 25 26 25 25 28 27 23 20 17 12 6 6 9 13 19 21 21 21 22 22 21 20 20 19 19 20 20 20 19 19 19 19 19 19 18 19 19
24 26 26 26 26 25 26 26 24 25 27 24 22 21 17 13 10 8 5 9 13 14 14 16 18 19 20 21 21 21 21 21 21 20 20 20 20 19 19 19 19 20
23 25 27 26 26 26 26 26 25 24 24 24 24 24 22 21 20 17 12 7 4 7 10 12 12 13 17 20 21 22 23 22 21 21 20 20 19 19 19 19 20 21
21 22 25 26 26 26 25 25 25 23 22 22 24 26 25 25 25 25 22 16 11 5 3 6 8 9 13 17 19 21 24 24 23 22 21 21 19 19 19 19 20 21
23 21 22 23 24 25 24 24 25 24 21 21 24 28 29 28 29 31 31 27 22 17 10 5 2 4 9 13 15 20 23 24 24 24 22 21 20 19 19 18 19 19
25 23 21 21 21 24 24 23 23 23 23 22 23 27 32 34 34 35 35 33 30 27 23 17 11 5 2 7 11 16 21 23 25 26 25 23 21 20 19 19 18 19

ECMWFNIL_925_spd_066.txt.gz
Wind_Speed
10 9 8 9 10 11 11 10 11 12 14 14 15 15 14 14 15 15 17 17 18 21 22 23 24 25 26 25 25 27 28 28 28 28 25 24 23 20 18 20 20 17
10 10 10 10 11 12 12 12 12 13 15 15 16 16 15 15 15 15 17 17 16 18 19 22 25 25 27 27 26 27 28 26 26 26 25 23 22 20 18 21 22 19
12 12 12 13 13 13 13 13 14 14 15 16 16 16 15 15 16 17 17 16 16 17 17 21 25 25 28 28 27 28 26 22 22 23 23 24 24 21 18 21 23 23
14 13 14 14 15 14 13 13 14 14 14 14 16 17 16 16 16 16 17 16 16 17 17 20 23 25 28 28 28 28 25 22 22 22 22 23 23 21 19 20 22 23
15 14 14 14 15 15 14 14 15 14 13 13 15 16 16 17 16 15 17 17 16 17 17 18 21 25 28 28 27 27 25 23 23 22 22 22 21 19 18 21 24 23
16 15 14 14 15 16 15 15 15 15 14 13 14 15 16 16 15 14 16 17 16 16 17 17 19 23 26 27 27 26 24 23 23 22 22 22 20 19 18 21 25 24
18 17 15 15 16 16 15 15 14 15 15 14 13 14 15 15 14 14 15 16 16 16 17 17 18 20 24 26 26 24 23 23 23 23 22 21 20 20 20 20 22 23
18 18 16 16 17 16 15 14 14 14 14 13 13 15 15 14 14 14 14 14 15 16 17 18 18 19 22 25 25 24 23 23 23 23 23 22 21 21 22 23 22 22
19 18 18 18 17 17 16 16 15 15 15 13 13 14 15 14 14 14 14 13 14 16 17 17 18 19 21 23 24 23 23 24 25 26 25 23 21 21 23 24 23 21
20 19 19 19 18 17 17 17 17 16 16 15 14 13 14 14 13 13 14 14 14 16 18 18 18 19 19 20 22 22 22 25 27 27 27 26 24 22 23 23 22 21
20 20 20 20 19 18 18 19 18 16 15 16 15 14 13 14 13 12 13 15 17 17 18 17 17 19 19 20 21 22 22 24 26 27 27 27 26 23 23 23 22 21
21 20 21 21 21 20 19 18 18 17 16 16 15 14 13 13 13 12 13 16 18 17 17 16 16 17 19 19 20 22 23 23 24 26 26 26 25 23 23 24 23 21
21 21 22 22 22 21 20 19 18 18 17 16 15 15 13 13 13 13 15 16 16 16 16 16 16 16 17 17 18 20 22 23 25 26 25 24 23 23 25 26 26 24
21 21 22 22 23 22 20 19 19 19 18 16 15 15 14 13 13 14 16 16 16 17 18 17 17 17 17 17 18 19 20 24 26 27 26 23 21 22 26 27 27 26
21 22 22 23 23 22 21 21 21 20 18 17 15 15 15 14 14 14 15 16 16 17 18 18 17 17 18 18 18 19 21 23 24 24 24 23 22 23 25 26 27 26
22 22 23 24 24 23 23 23 23 22 20 19 17 14 14 14 14 14 15 15 16 17 19 19 17 17 19 19 19 19 20 20 20 20 21 22 24 25 24 25 26 24
22 23 23 24 25 24 23 23 24 23 22 22 21 18 14 12 13 15 15 16 17 17 18 19 19 17 18 20 21 21 19 19 19 20 21 23 25 26 24 24 24 22
22 23 23 25 25 25 25 24 24 23 23 23 24 23 19 13 11 13 14 16 18 19 19 20 19 17 18 22 24 24 23 21 20 21 22 24 25 24 23 24 23 22
23 23 24 25 25 26 25 25 25 24 24 23 22 23 23 19 15 14 13 12 13 13 14 17 17 17 19 22 25 27 27 23 20 21 22 23 25 23 21 22 21 20
23 23 24 24 25 25 25 26 26 25 24 22 21 22 25 25 22 19 17 15 14 12 9 6 8 12 15 18 22 24 25 25 23 21 21 23 26 23 20 20 19 18
23 23 24 24 24 25 25 25 26 26 24 23 22 21 21 23 24 22 20 18 16 13 11 9 7 10 12 13 17 21 22 25 25 22 21 22 20 17 15 15 16 17
23 22 23 24 24 24 25 25 25 25 25 23 22 22 20 19 21 23 22 20 18 15 13 12 11 12 13 13 15 19 22 23 22 21 20 17 13 11 12 12 12 14
23 23 23 23 24 23 24 24 24 24 24 24 23 23 23 21 20 21 23 22 20 18 16 14 15 15 13 12 13 17 21 21 20 20 19 15 13 13 11 10 12 13
23 23 23 23 24 23 23 23 22 22 23 23 23 23 23 23 21 21 23 23 21 20 18 17 16 17 15 13 11 13 17 18 16 17 17 12 12 14 11 9 13 16
22 22 22 22 23 23 23 23 22 21 21 21 21 22 21 22 22 23 23 24 23 22 23 23 20 18 17 14 11 11 13 15 12 12 15 12 11 14 12 10 14 19
22 22 22 22 22 22 22 23 22 22 22 20 20 20 20 20 21 22 23 25 26 25 27 29 26 20 19 16 13 11 8 12 10 8 10 10 10 11 12 10 11 15

ECMWFNIL_925_spd_069.txt.gz
Wind_Speed
11 12 12 12 13 13 14 14 15 16 16 16 16 15 15 15 15 16 16 16 17 17 18 19 19 21 23 23 24 24 22 24 28 29 28 29 30 29 28 28 27 25
12 12 12 12 13 14 16 15 15 16 17 18 17 16 16 15 16 18 17 17 17 17 18 19 19 21 23 24 26 25 23 25 28 28 28 30 30 29 30 29 27 25
13 13 13 13 13 14 16 16 15 16 17 18 17 16 17 16 17 19 20 20 18 17 20 20 20 22 24 24 25 26 26 26 28 29 28 28 29 30 30 29 27 24
14 14 13 13 14 14 15 16 17 17 17 18 16 15 16 16 18 18 20 20 18 18 21 21 20 22 23 22 23 24 27 27 26 27 28 28 29 31 29 26 25 24
15 14 14 14 14 15 15 16 17 18 18 18 17 16 15 16 18 19 19 18 18 19 19 19 19 20 21 22 22 23 25 28 25 22 26 28 28 30 28 26 26 25
15 15 14 14 15 16 16 16 16 17 18 19 19 18 16 16 17 19 19 18 19 19 17 17 18 19 20 21 23 23 22 27 29 24 25 27 26 26 27 26 27 27
16 16 15 16 17 16 16 16 17 17 18 19 19 19 18 18 17 19 20 19 19 19 18 19 19 19 21 20 22 24 23 26 31 28 27 27 25 25 27 26 27 27
16 16 16 17 18 17 16 17 18 18 19 19 20 20 20 20 19 20 21 21 20 19 19 20 20 20 20 18 20 23 24 27 29 28 27 25 21 23 25 24 24 25
17 17 17 18 18 18 18 19 19 19 19 19 20 20 20 22 22 21 22 22 21 20 19 19 19 19 19 18 19 20 21 25 27 26 26 24 22 23 24 22 22 24
18 18 18 19 19 19 19 20 20 19 19 19 20 20 20 22 23 23 23 23 22 21 21 19 18 19 19 18 18 18 19 22 24 23 25 26 25 25 24 23 24 26
19 19 19 20 20 20 21 20 20 20 20 20 20 21 20 21 23 23 23 23 23 22 21 20 16 16 18 18 17 16 18 20 21 21 23 25 24 24 23 24 27 29
20 19 20 21 21 21 21 21 21 21 21 21 21 21 21 21 22 23 23 23 24 23 22 19 15 15 18 20 19 18 17 19 20 19 20 22 22 23 24 25 26 28
20 20 21 22 22 22 21 21 21 21 21 21 21 22 22 22 22 23 24 24 23 23 23 20 17 17 20 21 22 19 17 18 19 19 18 18 19 21 22 22 23 24
20 20 21 22 22 22 22 22 21 21 22 22 22 22 23 24 25 24 23 24 23 23 24 22 18 18 20 20 18 16 17 18 19 20 20 18 18 19 20 23 24 23
20 20 21 21 22 22 23 23 23 23 23 23 23 23 24 26 27 27 25 22 21 21 23 22 18 17 18 19 18 18 20 19 18 20 21 20 19 19 20 24 24 22
20 21 21 21 22 23 24 24 24 24 23 24 24 24 26 27 28 28 27 26 24 22 21 19 15 13 15 16 18 21 22 19 17 20 20 19 19 20 22 24 22 21
20 21 21 21 22 23 23 24 25 24 24 24 25 25 25 27 28 29 28 27 26 25 23 19 16 14 13 13 15 19 20 19 19 21 20 18 18 19 22 22 21 22
20 21 21 22 23 23 23 24 24 25 25 25 26 27 26 26 27 29 29 28 28 26 23 21 20 18 15 12 11 16 20 22 22 20 18 18 18 18 20 21 22 24
21 21 21 22 23 23 23 23 24 25 25 25 26 27 27 26 26 27 27 28 30 29 25 22 23 25 22 18 13 12 16 21 24 21 17 18 20 20 22 24 25 24
21 21 21 22 22 22 23 23 24 25 26 25 25 26 27 27 26 26 25 26 28 31 30 24 25 28 27 23 20 16 13 15 20 22 19 17 18 18 19 21 23 23
20 21 21 22 22 22 23 23 23 24 25 25 25 26 26 27 27 26 25 25 26 29 31 27 25 30 32 26 23 21 17 15 17 20 21 18 16 14 14 17 20 21
20 21 21 22 22 22 23 23 23 23 23 24 23 24 24 25 25 25 25 26 25 26 31 31 28 32 35 29 24 23 20 17 16 17 20 20 20 17 14 15 19 21
20 21 21 22 22 23 23 23 23 23 23 23 22 22 23 24 23 24 26 28 26 25 28 31 31 35 38 34 28 24 22 19 15 13 15 18 22 22 18 16 19 20
21 21 21 21 22 22 23 23 22 22 23 23 23 22 23 23 22 22 24 26 26 24 26 29 30 35 39 38 32 26 23 20 14 11 11 13 17 22 21 19 21 21
21 21 21 21 22 22 22 22 22 22 22 23 23 23 23 23 23 22 22 23 24 26 28 30 29 32 39 41 36 30 25 19 13 11 12 12 13 15 18 16 16 19
21 21 21 21 21 21 22 22 22 22 23 22 22 23 24 24 24 24 23 23 24 25 29 31 30 31 38 43 40 35 29 20 13 12 14 15 13 8 12 10 7 10

ECMWFNIL_925_spd_072.txt.gz
Wind_Speed
15 16 17 18 18 18 18 18 17 18 19 19 20 21 21 21 20 18 18 18 19 18 19 21 22 22 23 24 24 24 25 28 27 26 26 30 33 32 31 33 33 31
15 15 16 17 18 19 20 20 20 19 19 20 21 22 23 23 21 20 18 19 20 20 20 21 22 21 22 25 24 22 25 29 28 25 27 29 30 31 32 33 33 32
17 16 16 16 17 19 20 21 21 21 20 21 21 21 22 22 22 22 20 20 20 21 21 21 21 22 23 24 23 22 23 25 26 27 28 28 28 30 31 32 32 32
18 18 17 17 17 19 20 21 21 22 22 23 23 23 24 23 24 24 23 22 22 21 21 20 20 22 22 22 22 23 24 25 26 27 28 28 28 29 31 31 30 31
17 17 17 18 19 20 20 20 21 22 23 24 25 25 25 25 25 25 25 25 24 22 20 19 20 21 21 21 22 23 24 26 27 25 25 26 27 28 31 30 29 29
18 19 18 19 20 20 19 20 21 22 23 23 24 24 24 25 25 26 26 27 26 25 23 21 21 23 24 23 23 24 25 26 26 24 25 27 27 28 30 29 29 28
19 20 20 20 21 20 20 21 21 21 22 23 23 23 23 24 25 25 26 26 27 28 26 23 22 23 25 24 25 27 27 27 26 25 26 27 27 29 30 29 28 27
19 19 20 21 22 21 21 22 22 21 22 23 24 24 24 24 24 25 25 26 26 28 29 26 23 23 24 24 25 27 28 28 26 26 26 26 27 27 28 29 29 29
19 20 20 22 22 22 23 23 23 22 23 23 24 24 25 26 26 27 27 27 26 27 27 26 24 23 24 25 26 27 28 29 27 26 26 26 27 27 26 28 29 29
21 21 22 23 23 23 24 24 23 23 23 23 24 24 25 25 26 28 29 28 27 26 26 26 25 25 25 26 27 25 25 25 25 24 25 26 26 27 26 25 26 27
21 21 22 23 24 24 25 24 24 24 24 23 24 25 25 25 27 28 28 28 27 26 26 26 24 23 24 25 25 23 22 24 24 23 24 24 24 25 25 23 23 26
21 22 23 23 24 24 24 25 25 25 25 25 25 25 26 26 29 30 28 28 27 26 26 26 24 23 24 23 23 22 22 24 24 22 22 22 22 23 23 23 22 23
20 21 22 23 23 23 23 24 25 25 26 25 25 26 26 27 29 30 29 28 29 27 25 26 28 28 28 27 25 24 23 22 21 21 22 21 20 22 23 23 24 24
20 20 21 22 22 22 23 24 24 25 25 25 26 26 26 27 29 29 29 31 33 31 26 28 33 35 36 34 31 28 25 22 20 21 23 21 19 20 21 21 22 24
19 21 21 22 23 23 24 24 24 25 25 25 26 26 26 27 28 29 29 32 36 36 30 29 37 43 42 38 34 30 28 25 22 20 22 23 21 20 21 20 20 23
20 20 21 22 23 23 24 24 25 25 26 26 26 26 26 27 28 29 29 29 33 38 36 31 38 48 45 38 34 31 29 27 24 21 20 22 22 21 21 20 19 20
19 20 21 21 22 23 24 24 25 25 26 26 26 26 26 27 28 27 28 29 28 33 37 33 38 50 49 41 37 32 29 28 26 24 21 20 20 20 21 20 19 20
19 20 21 21 22 23 23 23 24 25 25 26 26 27 26 26 27 26 27 28 26 29 35 34 37 48 52 47 41 35 31 28 26 24 22 20 20 20 22 22 20 19
21 21 21 22 23 23 23 23 24 24 25 26 26 26 26 26 27 26 26 27 29 32 34 31 36 48 53 50 46 40 33 29 25 24 22 20 20 20 22 21 19 18
21 21 21 22 23 23 24 24 24 24 25 25 25 25 27 27 27 27 26 27 32 37 33 28 34 46 51 51 50 45 36 29 25 22 21 20 19 20 21 20 19 20
22 21 22 22 23 24 24 24 24 25 25 25 24 25 26 26 26 27 28 27 31 35 34 30 34 44 49 50 52 49 39 31 26 22 21 20 20 20 21 20 19 20
22 23 23 23 23 24 25 25 24 24 25 25 24 24 25 25 25 26 28 28 29 31 32 31 34 42 48 49 51 51 44 35 31 27 25 23 21 21 21 20 19 18
22 23 23 23 23 24 26 27 25 24 25 25 24 23 24 25 25 25 26 27 28 30 31 31 33 41 47 48 49 51 47 40 34 31 27 24 23 23 21 20 19 18
23 24 24 24 25 25 27 28 27 26 25 25 24 23 23 23 25 25 25 27 27 28 30 32 34 39 45 47 47 49 48 41 35 33 31 28 27 25 22 18 14 13
23 23 23 24 25 25 26 27 27 27 26 25 24 24 23 22 24 24 25 26 26 27 29 31 34 38 43 46 46 47 47 43 38 36 35 31 29 27 24 22 17 10
22 22 23 24 23 22 23 25 28 28 27 26 25 24 23 22 23 24 24 24 26 27 28 30 32 37 42 43 44 45 45 43 41 39 36 32 29 29 28 26 24 20

ECMWFNIL_925_spd_075.txt.gz
Wind_Speed
19 18 17 18 20 21 20 20 19 19 19 20 22 23 23 24 24 24 23 22 20 20 20 19 18 20 22 22 24 25 26 27 27 26 27 28 30 30 30 33 33 32
21 20 20 22 21 20 21 21 20 20 20 21 22 23 23 24 25 25 24 23 23 23 21 18 17 19 20 19 21 23 25 26 27 27 27 29 29 29 30 33 35 33
23 23 23 23 22 21 22 22 22 21 22 22 23 24 24 24 25 25 24 24 24 23 22 20 19 20 20 19 19 20 23 25 26 25 25 26 26 27 31 33 34 34
23 24 24 24 23 24 24 23 23 23 23 23 24 23 23 24 24 24 24 24 24 23 22 22 22 21 20 19 19 20 22 24 24 25 25 26 26 26 28 30 32 32
23 24 24 25 25 26 26 25 24 23 23 24 24 24 23 23 24 24 24 25 25 23 22 23 24 23 20 19 20 20 22 23 24 25 26 28 28 26 26 27 28 29
23 24 25 25 26 27 26 26 26 24 24 24 24 24 24 24 24 24 25 25 25 25 25 25 25 24 21 21 21 22 22 22 23 24 26 28 29 27 25 25 25 25
25 25 26 27 27 27 27 27 27 25 24 25 25 24 25 25 25 25 26 25 24 25 26 26 27 25 22 21 21 22 22 22 24 25 26 27 28 28 26 26 25 24
26 26 27 27 27 28 28 29 29 26 25 26 27 26 26 27 28 28 27 27 25 25 26 29 31 29 26 24 23 23 22 22 23 25 27 27 27 28 27 27 27 26
26 26 26 27 28 28 28 30 29 26 26 27 28 28 28 29 31 30 29 29 28 27 29 34 35 33 31 30 28 27 25 23 21 22 25 27 27 27 28 28 28 28
26 26 26 27 27 28 27 29 29 27 26 27 28 28 29 31 31 32 32 33 32 29 31 37 39 37 37 35 33 32 29 26 24 22 23 25 26 28 28 26 27 27
27 28 28 28 27 27 27 27 27 27 26 27 28 28 29 31 31 32 32 31 34 32 29 36 40 39 40 40 37 35 32 29 28 25 24 23 24 27 27 25 26 27
27 28 29 29 28 27 27 26 26 26 25 25 27 27 28 30 31 31 30 28 33 34 29 33 38 38 41 43 40 38 35 31 29 27 26 25 23 24 25 25 25 27
26 26 26 27 28 27 27 27 26 26 25 25 25 26 27 30 30 30 30 30 32 33 29 30 37 40 44 46 43 41 38 34 30 28 27 27 25 23 23 23 24 25
23 24 25 26 26 26 27 28 28 27 27 26 26 25 25 28 28 28 30 32 32 31 29 29 34 41 46 47 46 44 41 36 32 29 27 27 27 25 22 22 23 24
24 24 26 26 26 27 27 27 27 28 28 28 27 27 26 26 26 26 29 32 32 31 30 29 34 40 44 45 45 44 41 36 32 29 26 25 26 26 23 21 22 23
26 26 26 25 25 27 27 27 26 26 27 28 28 28 28 27 27 27 27 30 32 31 29 29 35 42 45 46 46 44 40 35 31 29 26 24 23 23 23 21 21 21
25 26 27 26 25 25 26 27 27 25 25 26 28 29 28 28 29 28 27 28 31 31 28 28 35 43 46 48 49 47 41 35 32 30 28 25 23 21 22 21 21 21
24 25 27 28 27 25 25 26 27 27 25 25 27 29 28 28 29 28 27 28 29 31 30 29 34 42 47 48 50 49 44 37 33 32 29 27 25 23 23 23 22 22
27 26 28 30 31 28 26 26 26 27 26 24 25 27 27 27 29 28 28 28 29 31 31 30 34 41 45 47 49 50 46 39 35 32 30 28 27 26 26 25 24 24
29 28 28 31 32 31 29 29 28 28 27 24 23 26 28 28 28 29 29 29 29 30 31 30 34 40 44 45 48 50 46 40 36 34 32 32 30 28 28 28 26 25
27 27 27 29 32 32 31 31 31 30 29 26 23 25 28 28 27 28 29 30 30 31 31 31 34 39 42 43 46 48 45 40 37 35 34 36 35 31 29 30 29 28
24 23 24 28 31 33 32 32 32 31 31 29 25 24 27 30 28 28 29 30 30 31 32 32 35 39 42 42 43 45 44 40 37 34 32 35 36 34 32 32 31 31
22 21 22 27 30 32 33 32 32 32 32 31 29 26 27 30 29 28 29 29 29 30 32 32 35 39 42 43 43 44 42 39 39 36 31 32 34 34 34 34 32 31
23 21 21 25 30 31 31 31 31 31 31 30 30 29 27 27 28 28 29 29 29 29 30 32 34 38 41 43 43 44 41 38 37 36 33 32 33 34 35 35 33 32
22 22 21 24 29 30 28 28 28 28 29 28 28 28 27 25 26 27 28 28 28 29 30 31 33 37 40 41 42 44 42 39 37 35 33 33 33 33 35 36 36 36
22 22 21 22 26 29 27 25 25 25 26 27 27 26 26 25 25 27 28 27 27 28 30 31 33 36 39 40 40 42 43 41 39 35 32 31 32 32 33 36 37 38

ECMWFNIL_925_spd_078.txt.gz
Wind_Speed
20 19 18 18 18 18 18 17 17 16 16 16 16 16 15 15 15 15 15 15 15 15 16 17 18 19 19 19 18 18 18 18 20 21 21 23 25 25 26 26 25 25
21 20 20 19 18 18 18 18 18 18 18 18 17 16 16 15 14 14 15 15 16 17 16 16 16 17 18 18 19 20 20 20 20 21 20 22 24 25 26 26 25 25
22 22 22 21 20 19 18 18 18 18 19 19 18 18 17 16 14 14 13 14 17 19 18 18 18 18 17 16 17 19 21 22 22 22 22 22 23 24 26 26 26 26
23 23 22 22 21 19 19 19 19 19 20 20 20 20 20 18 17 16 14 14 18 20 20 20 20 20 20 18 17 17 18 19 20 21 23 24 24 24 25 25 25 26
23 23 22 23 22 20 20 20 20 21 22 23 23 23 23 22 22 21 19 17 19 21 22 23 23 23 23 22 21 20 19 18 18 19 21 23 23 24 25 25 25 26
24 23 23 24 24 22 22 21 21 22 24 25 26 26 25 24 25 25 23 20 20 23 26 26 27 28 27 26 24 24 23 22 21 21 22 23 23 22 24 25 25 25
23 22 22 24 24 23 22 21 21 23 24 25 27 28 27 26 26 26 25 22 20 24 28 29 30 31 32 31 29 27 26 25 24 22 23 25 24 23 22 23 24 25
22 22 21 22 22 22 21 20 21 23 24 25 27 28 28 28 27 26 26 23 20 23 28 32 32 34 35 35 34 32 30 28 26 24 24 25 26 25 24 23 23 25
22 22 22 22 21 21 20 19 19 20 23 25 26 27 27 28 28 28 27 25 21 21 25 31 34 36 37 38 36 34 32 30 28 27 26 26 26 27 26 25 25 25
24 24 24 24 23 22 22 20 19 19 20 22 24 25 26 27 28 28 28 26 22 21 24 29 32 34 37 40 39 36 32 30 29 28 27 27 27 27 27 26 25 25
26 25 25 25 25 24 24 23 22 21 20 21 22 23 24 26 27 28 28 26 22 21 22 26 29 31 35 39 40 38 33 29 28 28 28 27 27 27 26 25 24 24
25 25 25 25 25 25 25 25 25 24 23 22 22 22 22 23 25 26 28 26 23 21 22 26 30 33 35 38 41 39 34 29 27 28 28 28 27 27 26 25 23 23
25 25 25 24 23 24 24 25 26 26 25 24 23 23 23 23 23 25 26 26 24 22 24 28 32 35 37 40 41 39 35 30 28 28 29 29 28 28 28 27 24 23
23 24 25 25 24 23 22 23 25 26 25 24 24 24 24 24 23 24 25 25 25 24 25 29 33 36 39 41 42 40 36 32 27 27 29 29 29 29 29 29 27 25
22 21 22 22 23 23 21 21 22 24 25 25 25 25 25 25 24 24 25 26 26 25 26 29 34 37 39 40 40 39 38 35 27 25 29 29 28 29 29 28 28 26
23 22 22 22 22 23 21 20 20 22 24 24 25 25 25 25 25 25 26 27 27 27 27 29 34 38 38 39 39 38 37 36 29 26 28 29 28 29 30 29 29 28
25 24 25 25 25 25 24 22 19 21 23 24 25 25 24 25 26 26 27 27 28 28 28 30 34 39 39 39 39 38 36 35 31 27 28 29 28 30 31 31 30 30
27 26 26 27 27 27 27 25 21 21 24 25 25 24 24 25 26 26 26 27 27 28 29 30 34 39 41 40 39 37 36 34 31 27 27 29 29 30 32 32 30 31
29 28 28 28 28 27 27 26 24 22 23 24 25 24 24 24 26 26 26 27 28 28 29 30 33 39 41 41 40 38 36 35 32 27 27 30 30 29 31 32 30 30
30 30 29 28 28 27 27 26 26 24 23 23 24 25 25 25 25 26 27 27 28 28 29 30 33 37 40 41 41 40 37 36 33 28 26 30 32 30 30 32 31 29
30 30 30 29 29 29 30 29 28 26 25 24 24 25 26 26 26 25 26 27 27 28 30 31 33 36 39 40 41 41 39 36 34 32 28 29 32 32 30 30 31 30
28 28 28 28 29 29 29 29 28 26 26 25 25 26 27 27 27 26 25 26 27 28 30 31 33 35 37 39 40 40 39 35 34 35 32 28 31 32 30 30 31 31
26 26 26 26 26 27 27 26 26 25 25 25 25 25 26 27 28 27 26 25 26 27 29 30 33 35 37 38 39 40 39 36 34 35 34 28 28 29 28 30 31 30
25 25 25 24 23 23 23 23 24 25 25 25 25 25 25 25 27 28 27 26 26 27 28 30 32 35 36 37 38 38 38 36 34 34 34 29 26 27 28 30 32 30
24 24 25 24 23 21 19 19 20 22 24 26 27 27 26 25 26 28 28 28 27 27 29 30 32 34 36 36 36 36 36 36 34 34 34 30 26 26 29 32 35 33
21 23 24 24 22 21 19 17 17 19 22 25 27 27 28 27 28 28 29 29 29 29 29 30 31 33 35 35 34 34 35 35 35 34 33 31 28 27 29 33 36 36

ECMWFNIL_925_spd_081.txt.gz
Wind_Speed
16 15 15 15 15 15 14 14 14 14 14 14 14 15 15 15 16 15 14 15 17 18 19 20 20 20 20 18 18 18 16 14 14 14 15 17 20 21 21 22 22 22
17 15 15 15 15 14 14 14 14 14 15 15 15 15 15 15 14 13 13 14 17 19 19 20 21 21 22 20 19 19 19 18 16 15 14 14 16 18 20 22 23 23
17 16 16 15 15 15 15 15 17 18 17 17 17 17 17 17 16 14 13 14 17 19 19 21 22 22 23 22 21 21 21 21 20 19 18 17 16 17 18 20 22 23
19 18 17 16 17 18 19 20 21 22 21 21 20 19 19 18 17 15 14 15 18 19 19 20 22 23 24 24 24 23 23 22 22 22 20 20 19 19 19 19 20 22
21 20 19 19 20 21 22 22 23 24 24 24 23 23 22 21 20 18 16 17 20 22 22 22 24 25 25 26 26 26 25 24 24 24 23 22 21 20 20 20 20 21
21 20 18 18 19 21 22 22 23 24 24 25 25 25 25 25 23 20 18 18 20 25 27 27 27 28 29 29 28 27 26 25 25 24 24 24 24 22 21 21 20 20
17 16 16 15 15 17 19 21 22 23 24 24 25 25 26 26 25 22 20 18 20 26 29 29 30 31 31 32 30 28 27 26 25 25 24 24 24 24 24 23 21 20
15 15 15 15 14 14 15 16 19 21 22 23 24 25 25 26 26 23 20 19 21 26 29 31 31 32 33 34 33 30 28 27 25 24 24 24 25 26 26 25 23 22
17 16 16 16 16 16 15 15 15 17 19 20 22 23 24 25 25 24 21 19 21 25 29 31 31 32 33 35 33 29 27 26 24 23 24 25 26 27 27 26 25 24
19 19 19 19 19 18 18 17 17 17 18 19 19 21 23 24 24 23 22 21 21 25 29 31 31 32 33 35 34 29 25 24 23 23 25 25 26 28 26 25 27 28
21 21 21 21 21 20 20 20 20 20 20 20 20 21 22 23 23 23 23 23 23 25 28 30 31 32 33 35 35 31 26 24 22 22 25 25 25 26 25 24 27 29
18 19 19 20 21 22 22 22 22 21 21 21 21 22 22 23 24 24 24 24 24 25 27 30 31 32 33 34 35 34 31 28 23 21 24 25 24 25 25 25 26 27
17 16 16 17 18 20 21 21 21 20 21 21 22 23 23 24 24 24 24 24 24 25 27 30 32 33 34 35 35 34 33 30 24 20 23 24 24 25 25 25 25 25
15 15 15 15 15 17 19 20 20 20 20 22 22 23 23 23 24 24 24 25 25 25 27 30 33 35 36 36 36 34 32 31 26 22 22 24 24 25 26 25 25 25
16 16 15 15 15 17 19 19 19 18 19 20 22 22 22 23 23 24 25 25 26 26 27 30 33 35 36 36 35 34 32 31 28 23 22 24 25 27 27 25 26 26
18 18 17 17 17 18 19 19 19 18 19 20 21 21 22 23 23 24 25 25 26 27 27 29 32 34 35 35 35 34 32 31 29 25 23 24 26 28 28 26 26 27
20 20 20 19 18 18 18 19 19 20 20 20 21 21 21 22 23 24 25 25 25 26 26 28 31 33 34 35 36 35 33 30 29 28 26 26 27 29 28 26 26 28
20 20 21 20 18 17 17 19 20 21 22 22 21 21 20 20 21 22 23 24 25 25 26 27 30 32 33 34 36 35 34 32 30 29 29 27 27 29 29 26 26 27
21 22 22 21 20 20 20 21 21 22 22 22 22 21 20 19 19 20 21 22 23 25 25 26 29 31 33 34 35 36 34 33 31 30 30 29 28 29 28 26 26 27
26 26 25 24 23 22 22 22 22 21 21 21 21 21 21 20 19 19 20 21 22 24 25 27 29 31 32 33 35 36 35 34 32 31 31 30 29 28 27 25 25 27
26 26 25 24 23 23 24 23 22 22 21 21 22 22 21 20 20 20 21 22 22 23 25 27 29 30 30 32 35 36 35 34 33 32 31 30 30 29 26 24 25 27
24 23 23 22 22 23 24 24 23 23 22 23 24 24 23 22 21 21 21 21 22 23 24 26 28 28 29 31 34 36 36 35 33 32 31 30 30 29 26 25 26 27
21 21 21 20 20 21 22 22 23 23 23 24 25 25 25 24 23 22 22 21 22 23 25 26 28 27 27 29 33 36 36 35 34 32 31 31 30 29 28 28 27 27
19 19 18 18 18 19 20 21 22 23 23 24 24 24 24 24 25 25 24 24 23 24 26 27 27 26 26 28 31 34 36 35 34 33 31 30 30 29 28 29 29 29
18 18 17 17 17 17 18 20 21 22 22 23 24 24 24 25 27 28 27 27 26 26 27 28 27 25 24 26 29 32 34 35 35 34 32 31 30 29 29 31 31 32
17 17 17 17 17 18 18 19 20 21 22 24 25 25 26 27 29 29 29 28 28 27 27 28 26 24 23 25 27 29 32 35 35 34 32 31 30 29 30 32 33 34

ECMWFNIL_925_spd_084.txt.gz
Wind_Speed
14 14 15 16 17 17 17 17 18 18 19 19 19 19 18 18 17 18 19 19 19 19 20 20 21 21 21 20 19 18 18 17 17 17 17 16 16 16 16 17 16 17
14 15 16 17 19 20 21 21 21 21 21 21 20 18 17 16 16 17 18 19 20 21 21 21 22 23 23 22 21 19 18 17 17 18 18 17 17 16 16 17 17 17
16 17 18 20 21 22 23 23 23 23 23 22 21 20 18 16 16 16 19 21 22 23 23 24 24 24 25 24 22 21 20 18 18 18 18 18 18 18 17 17 17 17
18 19 20 21 22 23 23 24 25 24 23 23 23 21 20 18 17 18 21 23 24 25 25 25 26 27 27 26 24 23 22 20 20 21 21 21 20 20 20 19 19 19
18 18 19 21 22 23 24 25 25 24 24 24 24 23 21 20 20 21 24 26 26 27 27 27 28 29 29 28 27 25 22 21 21 23 24 24 23 22 22 21 21 21
14 15 15 17 19 22 24 25 24 24 24 24 24 24 23 22 21 21 25 27 28 29 29 30 31 32 32 30 29 26 22 20 22 24 24 24 24 24 24 22 21 22
13 13 13 13 15 18 20 21 21 22 23 24 24 24 24 23 21 21 24 28 29 31 32 33 34 35 35 33 29 26 22 20 22 23 22 22 23 24 25 24 21 22
13 13 13 13 15 16 18 18 19 19 21 22 24 24 24 25 24 23 25 28 30 32 33 34 35 35 36 34 30 26 24 22 21 21 21 20 21 22 22 22 22 22
14 15 15 16 17 18 18 19 19 19 21 23 24 25 24 25 25 25 26 28 30 32 33 34 35 36 36 35 31 27 26 24 20 20 21 21 22 23 22 22 23 23
18 19 19 19 20 20 20 19 20 20 22 24 24 25 25 25 25 25 26 28 29 31 33 34 35 36 36 36 33 29 29 27 21 19 20 21 21 23 24 23 23 23
22 21 21 21 20 20 20 20 20 21 22 23 23 24 24 24 25 26 26 27 28 29 31 33 34 35 36 36 33 31 30 28 23 20 20 20 21 23 25 23 22 22
20 20 20 20 19 19 19 19 20 20 21 21 22 22 23 24 24 25 26 27 27 27 29 32 34 35 36 36 34 32 30 28 25 23 21 19 21 26 27 24 22 21
17 17 17 17 17 16 17 17 18 18 19 20 20 21 22 23 24 24 25 26 27 27 29 32 34 35 36 36 35 34 32 30 28 26 24 23 23 27 28 25 22 21
16 15 15 15 15 15 15 15 16 17 17 18 18 20 21 21 22 23 24 25 26 28 29 32 34 36 37 37 36 34 32 31 30 29 28 27 27 28 27 24 22 21
15 15 15 15 15 15 15 14 15 15 15 15 16 17 18 19 19 21 22 24 26 27 29 31 33 35 36 36 36 35 33 32 30 30 29 29 29 28 25 22 22 23
16 14 14 14 14 15 14 14 14 14 14 14 15 15 16 17 18 19 21 23 25 27 28 29 31 33 34 35 35 35 34 32 31 31 30 29 29 27 24 23 23 23
16 13 13 14 14 14 14 14 14 15 15 15 14 14 15 16 17 19 20 22 24 25 26 28 29 31 33 36 37 36 35 33 32 32 30 30 29 26 24 23 24 24
15 14 14 14 15 15 15 15 15 16 16 16 15 15 15 15 17 18 19 21 22 24 25 26 28 30 33 36 38 38 37 34 32 32 31 30 30 27 23 23 25 25
16 16 16 16 16 16 17 18 17 17 17 16 15 15 14 15 16 17 18 20 22 23 23 24 26 29 31 34 37 38 37 35 32 31 30 29 30 28 24 24 25 25
19 19 19 18 19 19 20 21 20 19 18 17 16 16 16 16 17 17 19 20 22 22 22 23 25 28 30 32 36 38 37 34 32 31 30 29 29 27 25 24 24 25
21 21 21 21 21 21 22 22 21 19 19 18 18 18 18 19 19 19 19 20 21 22 22 22 24 26 28 31 35 37 36 34 32 32 31 30 30 28 25 24 24 24
20 20 20 20 20 21 22 21 20 20 20 20 20 20 20 21 21 21 21 21 22 22 21 21 23 25 27 30 34 35 35 34 33 33 33 32 31 30 26 24 24 25
19 19 19 19 19 20 20 20 20 21 21 21 22 22 22 22 22 22 23 23 23 22 22 21 22 24 27 31 33 34 36 35 33 33 34 33 32 31 28 25 24 26
16 16 17 17 17 18 18 19 20 21 21 22 22 22 21 22 22 22 23 24 24 23 23 23 23 25 29 31 32 34 36 35 33 34 35 34 33 33 31 29 29 29
14 14 15 15 16 16 17 18 19 20 21 23 23 23 22 21 21 22 23 24 24 23 24 24 25 27 29 31 32 33 36 35 34 34 35 35 34 34 34 34 34 35
13 13 13 14 15 16 17 18 19 20 21 23 24 24 24 23 23 23 23 23 24 24 24 24 26 28 30 31 31 33 34 35 34 34 34 33 33 33 34 35 36 37

ECMWFNIL_925_spd_087.txt.gz
Wind_Speed
18 19 20 20 20 20 20 16 13 13 13 12 11 11 12 14 18 20 22 22 22 22 22 22 21 20 17 15 14 12 11 11 11 11 12 12 12 13 14 14 15 15
21 21 21 21 21 21 21 18 14 14 14 13 12 12 13 17 22 23 24 24 25 26 26 25 23 21 18 16 13 12 11 12 12 12 13 13 13 13 14 14 14 15
21 21 20 20 20 20 20 18 15 15 14 13 13 12 13 18 22 24 26 27 28 29 30 29 27 24 21 17 13 12 12 13 14 14 14 14 14 14 15 14 14 15
18 17 17 17 17 17 18 17 17 16 15 14 13 13 16 20 23 26 28 29 31 32 33 32 30 28 24 20 16 14 13 13 14 15 15 14 14 15 15 15 16 16
14 14 14 15 15 16 17 17 17 16 16 16 15 17 21 23 24 26 29 31 32 33 34 34 33 31 27 24 21 17 14 14 14 15 16 15 15 15 15 15 16 18
13 13 14 14 15 16 17 17 17 16 17 18 20 22 24 24 25 26 28 30 31 32 33 34 33 32 29 26 23 20 16 15 16 17 17 16 16 17 17 16 17 17
15 15 15 16 17 17 18 19 19 19 19 21 23 24 24 24 25 26 27 29 31 32 33 33 33 33 30 26 24 21 18 17 17 18 17 17 17 19 19 18 18 18
17 17 17 17 18 18 19 19 20 21 22 22 22 22 23 23 24 25 26 28 30 32 33 33 33 33 31 27 24 21 20 18 18 18 18 17 18 19 20 20 19 19
17 17 18 18 19 19 19 19 19 20 21 21 20 21 23 23 24 25 26 26 27 29 31 32 32 32 31 28 24 21 20 19 18 18 17 17 18 19 20 20 19 19
17 18 18 19 18 19 19 19 18 19 20 20 20 21 22 23 24 25 25 25 24 26 28 29 30 30 30 28 24 21 20 19 19 19 18 18 18 19 20 20 19 20
17 17 18 18 18 18 18 18 18 18 18 19 20 20 21 21 22 22 22 22 22 23 25 26 27 28 28 27 24 22 21 20 19 19 19 18 18 19 19 19 19 20
16 16 16 16 16 16 17 17 17 17 17 17 18 19 19 20 20 20 21 21 21 22 23 25 26 27 29 28 24 21 20 19 19 19 18 18 18 19 19 19 20 20
15 15 15 15 15 15 15 15 15 15 15 16 17 18 18 18 19 20 20 21 22 23 23 23 25 28 30 28 24 20 19 19 18 18 18 18 18 19 19 20 20 19
15 14 14 14 14 14 13 13 14 14 15 16 17 17 18 18 19 19 20 21 23 25 25 23 26 30 31 28 24 21 19 19 18 18 18 18 18 19 19 20 20 19
14 14 14 13 13 13 13 13 14 14 14 15 16 17 18 19 19 20 20 21 23 25 26 25 27 31 32 30 26 22 19 18 18 18 19 19 19 20 20 20 20 19
13 13 13 13 13 13 14 14 15 15 15 15 16 17 18 19 20 21 22 22 22 24 25 25 27 31 31 30 29 24 18 17 17 18 19 19 20 20 21 21 21 20
13 13 13 13 13 14 14 15 16 16 16 16 16 17 18 18 20 21 22 22 22 23 24 23 26 30 31 30 31 26 19 17 18 18 19 19 20 20 20 21 21 21
13 13 14 14 15 15 16 17 17 18 18 17 18 17 18 19 20 21 22 22 22 22 22 22 24 28 31 31 31 29 24 18 18 19 19 20 20 20 20 21 21 22
15 15 16 16 17 17 17 18 18 19 19 19 19 19 19 20 21 21 21 21 22 21 20 21 24 28 31 31 31 31 28 22 19 19 19 20 20 19 19 20 21 22
16 17 17 18 18 18 18 19 19 19 19 19 20 20 21 21 21 21 21 21 21 20 19 20 24 27 30 31 31 31 29 23 19 18 18 19 19 19 20 21 21 23
18 18 19 19 19 20 20 20 19 19 19 19 20 21 21 21 21 21 21 21 21 20 18 19 24 27 29 30 30 31 29 23 19 18 18 18 18 19 21 21 22 23
19 19 20 20 20 20 20 19 18 18 18 18 19 19 20 20 20 21 21 21 21 21 19 18 22 26 28 29 30 31 28 22 19 19 19 19 19 19 19 20 22 23
19 19 20 19 18 19 19 18 17 18 18 18 18 17 18 18 18 19 20 20 21 21 20 19 21 25 28 28 29 30 27 22 20 21 21 20 20 20 19 19 22 24
18 18 18 18 18 18 18 18 18 18 18 19 18 17 16 16 16 16 17 19 20 21 21 20 20 23 27 27 29 31 28 21 19 21 22 21 21 21 20 21 23 24
17 17 17 17 17 18 18 19 20 19 19 19 18 17 15 15 15 15 15 17 19 20 22 22 21 22 25 26 28 30 29 23 18 20 22 21 21 21 21 22 23 24
17 17 17 17 17 18 19 19 19 19 20 20 18 16 14 14 14 14 14 16 17 19 21 22 22 22 23 24 25 28 30 26 20 20 21 20 20 22 22 23 25 24

ECMWFNIL_925_spd_093.txt.gz
Wind_Speed
9 9 10 11 11 10 10 10 11 11 11 10 10 11 11 11 10 11 12 12 13 13 13 13 13 13 12 12 12 11 12 12 11 11 12 12 12 12 13 13 14 13
10 10 10 11 11 11 11 11 11 12 11 11 11 11 10 10 11 11 11 12 13 13 13 13 13 13 12 11 11 11 12 12 12 11 11 12 12 12 12 13 14 14
11 11 11 12 12 11 11 12 12 12 12 11 11 10 10 10 10 11 11 11 12 12 13 13 12 12 12 12 11 11 12 13 13 12 11 12 12 12 13 13 13 14
11 12 12 12 12 12 12 12 12 12 12 11 11 10 10 10 10 11 11 11 12 12 12 12 12 12 12 12 11 11 11 12 12 12 11 11 12 12 12 12 13 13
11 12 13 13 13 13 13 13 13 12 12 11 11 10 10 10 10 11 11 11 11 12 12 12 12 12 11 11 12 11 11 12 12 12 11 11 12 12 12 12 13 13
12 13 14 14 14 14 14 14 13 12 12 11 11 10 10 10 11 11 11 12 12 12 12 12 12 12 11 11 12 12 11 12 12 13 12 12 12 12 12 12 13 13
14 14 14 14 14 14 14 13 12 12 11 11 11 10 10 11 11 11 12 12 12 12 12 12 12 12 12 12 11 12 11 12 12 12 12 12 12 12 12 12 13 13
14 14 14 14 14 14 14 13 12 12 11 11 11 11 11 11 11 11 12 12 12 13 13 13 13 12 12 12 12 12 11 11 12 12 12 12 12 13 13 13 13 13
14 14 14 14 14 14 13 13 12 11 11 11 11 10 10 11 11 11 12 12 13 13 13 13 13 12 12 12 12 12 12 11 11 12 12 12 12 13 13 13 13 13
14 14 14 14 14 13 13 12 12 11 11 10 10 10 10 10 11 11 12 12 13 14 14 14 14 13 12 12 12 11 11 11 11 11 11 12 12 12 13 13 13 14
14 14 14 14 14 13 13 12 11 11 11 10 10 10 10 10 10 11 11 13 13 14 15 15 15 14 13 12 11 11 11 11 11 11 11 12 12 12 13 13 13 14
14 14 14 13 13 12 12 11 11 10 10 10 10 10 10 11 11 11 12 13 14 14 15 15 16 16 14 13 12 11 11 11 11 11 11 12 12 13 13 13 13 14
13 13 13 12 12 12 11 11 10 10 10 10 10 10 10 10 11 11 12 13 14 15 15 16 17 17 16 14 12 11 11 11 12 12 12 12 12 12 12 13 13 14
13 12 12 12 11 11 11 11 10 10 10 10 10 10 10 10 11 11 12 13 14 15 15 16 17 18 17 16 14 12 11 11 12 12 12 12 12 12 12 13 14 14
12 12 12 11 11 11 11 10 10 9 10 10 10 10 10 10 11 11 12 13 13 15 15 16 17 18 17 15 15 13 11 11 11 11 12 12 12 12 12 14 14 15
12 12 12 12 11 11 10 10 10 10 10 10 10 10 10 10 10 11 12 12 13 14 15 16 18 18 15 13 13 13 11 10 10 10 11 11 12 12 13 14 15 15
13 12 12 12 11 11 10 10 10 10 10 10 10 10 10 10 10 11 11 12 13 14 15 16 18 17 14 13 12 12 11 10 9 9 10 11 12 12 13 14 15 16
13 13 13 12 11 11 11 10 10 10 10 10 10 9 9 10 10 10 10 11 12 13 14 15 18 16 13 12 12 12 12 10 9 9 9 10 11 12 12 14 15 16
14 13 13 12 12 11 11 11 11 11 10 10 10 10 10 10 10 9 9 10 11 12 13 14 17 17 13 10 10 11 11 10 9 8 9 10 11 11 12 13 13 16
14 14 13 13 12 12 12 12 11 11 10 10 9 9 9 9 10 9 9 9 9 10 12 13 17 17 14 11 9 9 9 9 9 8 8 10 10 11 12 12 12 15
15 14 14 14 13 13 12 12 11 10 10 9 9 9 9 9 9 9 8 8 8 9 10 13 16 17 16 13 10 9 10 9 8 7 8 10 10 11 12 12 13 14
15 15 15 14 14 13 13 12 11 10 10 9 9 9 9 9 9 9 9 8 7 8 9 12 15 17 17 15 12 10 12 12 9 8 9 10 11 13 12 10 13 14
16 16 15 15 14 14 13 12 11 10 9 9 9 9 9 9 9 9 9 9 8 7 8 10 13 16 16 16 15 12 13 14 11 10 10 10 12 14 12 11 14 14
16 16 15 15 14 14 12 11 10 10 9 9 8 9 8 8 8 8 9 9 9 8 8 8 10 15 16 16 16 15 15 14 13 12 11 11 13 14 13 12 13 14
16 16 15 15 14 13 12 11 10 9 9 8 8 8 8 7 7 7 7 8 8 9 9 7 7 12 16 15 15 16 17 14 14 13 12 13 14 14 13 12 13 15
16 15 15 14 14 13 11 10 10 9 8 7 7 7 7 7 7 7 7 6 6 6 8 8 7 9 14 16 15 16 17 16 14 14 14 15 15 14 14 13 14 15

ECMWFNIL_925_spd_096.txt.gz
Wind_Speed
10 10 10 11 11 11 11 10 10 10 11 11 11 11 12 12 13 14 15 16 17 17 17 18 18 17 17 18 18 18 18 17 16 16 17 17 17 17 17 18 19 18
12 12 12 12 12 12 12 11 11 12 12 11 11 12 12 13 14 14 15 16 17 17 17 17 18 18 17 17 17 17 17 17 16 15 16 17 17 17 17 17 18 19
13 12 12 13 13 13 13 12 12 13 12 12 12 12 13 13 14 15 15 16 17 17 17 17 17 17 17 16 15 16 16 16 16 15 15 17 16 16 17 16 17 19
14 13 13 14 13 14 14 13 13 13 13 13 13 13 13 13 14 15 15 16 16 17 17 17 17 17 16 16 15 15 16 16 16 15 15 16 15 16 16 16 17 18
14 14 14 14 14 14 15 14 14 14 14 14 13 14 14 14 14 15 15 15 15 16 16 16 16 15 15 15 15 15 15 15 15 14 14 15 15 15 15 15 16 17
15 15 15 16 15 15 15 14 14 14 14 14 14 14 14 15 15 15 15 15 15 15 15 15 15 15 14 14 14 14 15 15 15 14 14 14 15 15 14 15 16 17
16 16 16 16 15 15 15 15 15 15 14 14 15 14 14 14 15 15 15 15 15 15 15 15 14 14 14 14 14 14 14 14 14 14 14 14 14 15 15 15 15 16
17 16 16 15 15 15 15 15 15 15 14 15 15 15 14 14 15 15 15 15 15 15 15 14 14 14 14 13 13 13 13 13 13 14 14 13 14 15 15 14 14 15
17 16 16 16 16 16 15 15 15 14 14 14 15 15 15 15 15 15 15 15 15 15 15 14 14 14 13 13 13 13 13 13 13 13 13 13 14 14 14 14 14 15
17 16 16 16 16 16 16 15 14 14 14 14 14 14 14 14 14 15 15 15 16 15 15 14 13 13 13 13 13 13 13 12 12 13 13 14 14 14 13 13 13 14
17 16 16 16 16 16 15 15 15 14 14 14 14 14 14 14 14 15 15 15 16 15 15 14 13 12 12 13 12 12 13 13 13 13 13 13 13 13 13 13 13 13
17 17 17 17 16 16 15 15 15 14 14 14 14 14 14 14 15 15 15 15 15 15 15 15 13 12 12 12 12 12 12 12 12 12 12 12 11 12 13 13 13 13
17 17 17 17 16 16 15 15 14 14 14 14 13 14 14 14 14 15 15 15 15 15 15 16 16 15 13 12 11 11 11 11 11 11 11 11 11 12 12 13 13 13
17 17 17 17 16 16 15 15 15 14 14 14 13 14 13 13 14 14 14 15 15 15 16 16 17 16 15 13 12 11 11 10 10 11 11 11 11 11 12 13 13 14
17 17 17 16 16 16 16 15 15 14 14 14 13 13 13 14 14 14 14 14 14 15 16 16 16 15 15 14 12 11 11 10 9 10 10 10 10 10 11 12 12 14
18 18 17 17 17 16 16 15 15 14 14 14 14 13 13 13 14 14 14 13 14 14 15 15 15 13 12 11 11 11 11 10 9 9 10 10 10 9 10 10 11 13
18 18 17 17 17 16 16 15 15 15 14 14 14 13 13 13 13 14 13 13 13 13 14 15 13 12 10 10 10 10 11 11 10 9 9 10 10 9 10 10 9 13
18 18 17 17 17 16 16 15 15 15 15 14 14 13 13 13 13 13 13 13 13 14 15 15 13 11 10 10 10 10 10 11 10 9 9 10 10 10 10 9 10 14
18 18 18 17 17 16 16 15 15 15 14 14 14 13 13 13 12 12 12 12 13 15 16 17 15 11 9 9 9 9 9 10 9 8 8 9 10 11 10 8 11 15
18 18 18 17 17 17 16 16 15 15 15 14 14 13 13 12 12 11 11 11 12 14 17 18 16 13 10 8 8 9 9 9 8 7 7 8 10 12 9 7 12 16
19 19 19 18 17 17 16 16 15 15 14 13 13 13 12 12 11 11 11 11 10 11 16 18 17 15 11 9 8 9 10 11 10 9 8 8 11 13 10 7 12 15
19 20 19 18 18 17 17 16 15 14 14 13 13 12 12 12 11 10 10 10 9 9 13 17 18 16 14 12 10 9 11 14 12 10 10 10 11 14 11 8 12 14
20 20 20 19 18 17 17 16 15 14 14 13 13 12 12 11 11 10 9 9 8 7 9 14 17 17 15 14 13 10 11 15 14 11 11 12 13 13 11 9 12 13
20 20 20 19 18 18 17 16 15 14 13 13 12 12 12 12 11 11 10 9 9 8 6 9 15 18 17 15 15 12 12 14 14 13 12 13 14 14 12 10 12 12
21 20 20 19 19 18 17 16 15 14 13 12 12 11 11 11 11 10 10 10 10 10 8 6 10 17 18 15 14 14 14 13 13 14 15 14 14 16 15 13 13 13
21 20 20 19 19 17 16 16 15 14 13 12 11 11 10 10 9 9 8 8 7 8 9 7 7 12 16 15 14 16 17 15 13 15 16 15 14 16 16 15 15 16

ECMWFNIL_925_spd_102.txt.gz
Wind_Speed
22 22 21 21 21 20 19 16 15 16 18 18 19 20 20 20 20 20 20 20 20 21 20 20 20 20 20 20 21 22 23 23 24 24 24 25 23 22 23 23 23 25
22 22 22 22 22 20 18 15 15 17 18 19 19 19 19 19 19 19 19 19 20 20 20 20 19 19 20 20 21 22 22 23 23 23 23 24 23 24 25 25 25 25
22 22 22 22 21 20 18 16 16 18 20 20 19 19 19 19 19 19 19 19 19 19 19 19 19 19 19 20 20 21 22 22 22 21 22 23 23 25 26 25 24 23
21 20 20 20 20 19 18 18 19 20 21 20 20 19 19 19 20 20 20 19 19 19 19 19 19 19 19 19 20 21 22 21 20 19 21 22 22 23 24 23 23 22
20 19 19 19 19 18 17 19 21 21 21 20 20 19 19 20 20 20 20 20 20 20 19 18 18 18 18 18 19 20 20 19 18 18 19 20 20 21 21 22 22 22
19 18 17 18 18 18 19 21 21 20 20 20 20 20 20 20 20 20 21 21 21 21 20 19 19 18 18 18 18 18 18 17 17 17 18 18 18 18 18 19 21 21
18 18 18 19 19 20 21 21 20 20 20 20 20 19 19 19 20 20 20 20 21 21 21 20 19 19 18 17 18 18 18 17 17 17 16 16 16 17 17 18 19 19
20 20 21 21 21 22 22 22 21 21 20 20 20 19 18 18 19 19 19 20 20 20 20 20 19 19 18 16 17 18 17 17 16 16 15 14 14 16 16 17 17 18
20 21 22 22 23 24 23 22 22 21 20 20 20 19 17 17 17 18 19 19 19 19 19 19 18 18 18 17 16 15 15 16 16 16 16 15 14 15 15 15 16 16
21 22 23 23 24 24 23 23 22 21 21 20 19 18 16 16 16 16 18 18 19 19 18 18 18 17 17 17 16 15 15 16 16 15 15 14 14 14 13 13 14 15
24 24 24 24 25 24 24 23 22 22 21 19 18 16 15 14 15 16 18 19 19 18 18 18 17 17 17 16 16 16 15 14 14 14 13 13 13 13 13 12 11 13
25 25 25 25 24 25 24 23 23 22 20 18 16 15 14 13 14 16 18 19 19 18 18 18 17 16 16 16 15 14 13 13 13 11 11 11 12 12 12 12 11 12
24 25 25 24 24 25 23 22 22 22 19 17 14 13 14 14 16 17 18 19 19 18 17 17 17 16 15 14 14 13 12 13 12 9 8 9 9 10 11 12 12 12
25 24 25 25 25 24 23 22 22 21 18 17 14 13 14 15 16 17 17 18 18 18 17 17 16 16 15 14 13 12 12 12 11 9 7 8 8 8 11 13 13 13
25 25 25 26 25 24 23 22 21 20 18 16 14 14 15 16 16 16 17 18 18 18 17 17 16 16 14 13 11 11 11 10 9 8 6 6 7 7 9 12 12 12
26 26 26 26 26 24 23 23 22 20 19 17 16 16 16 16 16 16 16 17 17 18 17 17 16 15 13 11 11 11 10 9 8 7 6 6 6 6 8 9 10 11
27 27 27 26 26 25 25 25 23 22 20 18 17 16 16 16 16 16 16 17 17 17 17 17 16 14 12 11 10 10 9 9 9 7 6 7 6 6 8 8 9 12
28 28 27 27 27 26 26 26 25 23 21 19 17 16 16 16 16 16 16 16 16 17 17 16 15 13 11 10 10 10 9 8 7 5 6 7 6 5 6 7 9 13
29 28 28 28 27 27 27 27 26 24 22 19 18 17 17 17 16 16 16 15 15 16 16 15 14 11 10 10 9 8 7 7 6 7 8 8 7 5 6 7 9 13
30 29 29 28 28 27 27 27 26 24 21 19 19 19 18 18 17 17 16 14 14 15 15 14 13 11 9 8 8 7 7 8 8 10 10 8 7 6 5 7 9 13
30 30 29 29 29 28 27 26 25 24 21 20 19 19 18 18 18 17 16 15 14 14 14 14 12 10 8 7 7 7 8 9 9 9 9 8 7 5 5 7 9 13
31 31 30 30 30 29 28 27 25 24 22 21 20 19 18 18 17 17 16 16 14 13 14 13 11 9 8 8 7 6 7 7 7 7 8 8 7 6 6 7 8 12
32 32 31 31 31 30 28 27 26 25 23 22 21 20 18 17 16 16 15 15 14 13 13 13 11 9 8 7 6 6 7 8 7 7 7 7 8 8 7 6 7 10
33 33 33 32 31 30 29 28 27 26 25 23 22 20 19 16 15 15 15 15 14 13 12 12 11 9 7 7 7 7 7 8 8 8 7 7 6 6 5 6 7 8
34 34 33 33 32 31 30 29 28 27 25 24 22 21 19 17 16 16 15 15 14 13 12 11 10 9 8 8 9 9 9 9 8 7 7 6 5 4 4 6 7 8
35 35 34 34 33 31 30 29 28 27 26 25 23 21 20 19 17 17 17 15 14 13 12 11 9 9 8 7 8 8 8 8 8 8 9 8 7 6 6 6 7 9

ECMWFNIL_925_spd_105.txt.gz
Wind_Speed
22 22 22 20 19 18 18 17 17 18 19 19 20 21 21 21 21 22 22 22 22 22 22 21 21 22 22 22 23 24 25 25 24 24 25 26 26 26 26 25 25 26
23 23 22 21 21 19 18 18 17 18 20 20 20 21 22 22 22 22 22 22 22 22 22 22 21 21 22 22 22 24 25 26 26 25 26 26 25 25 25 24 25 25
23 23 22 22 21 20 20 19 18 18 20 20 21 21 22 22 22 22 22 22 23 23 22 22 22 21 21 22 22 23 25 27 27 26 26 26 24 24 23 23 24 25
23 22 22 22 21 21 21 19 18 19 20 21 21 21 22 22 22 22 22 22 23 23 22 22 21 21 21 21 22 23 24 25 26 25 26 25 23 23 22 22 23 23
23 22 22 22 21 21 20 19 19 20 21 22 21 21 21 21 22 22 23 23 23 23 22 22 21 21 21 20 21 22 22 23 23 23 24 24 22 22 22 21 22 21
22 22 22 21 20 20 20 19 20 22 22 22 22 21 21 21 22 22 23 23 23 23 22 22 21 21 20 19 20 20 21 21 20 20 22 21 21 21 21 21 21 20
22 22 21 20 20 20 20 21 22 22 22 22 22 21 21 21 22 22 22 22 23 22 21 21 20 20 19 19 20 20 19 19 18 19 20 19 19 19 19 19 20 19
21 21 21 21 21 21 21 23 23 22 22 22 22 21 20 20 21 22 21 21 21 21 20 20 20 20 18 18 19 20 18 17 16 17 18 17 17 17 17 18 18 18
21 21 22 21 22 22 23 23 22 22 22 21 21 21 20 19 20 20 21 20 20 21 20 20 20 20 18 17 18 19 18 17 16 16 17 17 16 15 15 17 18 18
22 22 23 22 22 23 23 23 22 22 22 20 20 20 19 19 19 19 19 19 20 20 20 20 20 19 18 17 18 19 18 17 17 17 18 17 16 15 13 15 17 18
23 24 23 22 23 23 23 23 23 22 20 19 19 18 18 18 18 18 18 19 20 20 20 20 19 17 17 19 19 18 17 17 17 16 16 16 16 14 14 14 16 16
24 23 22 23 23 23 23 23 22 20 19 18 16 16 16 17 18 18 18 19 19 19 19 18 17 17 18 19 19 17 15 15 14 14 13 13 14 14 14 14 15 15
23 22 22 23 22 23 22 22 20 19 17 16 14 13 15 17 18 19 18 19 19 19 18 17 17 18 17 17 16 15 14 12 12 11 11 11 12 13 13 12 13 14
23 22 22 23 22 22 22 21 19 17 15 14 13 13 15 18 19 19 19 19 19 18 18 17 17 17 15 14 14 13 12 11 10 9 9 9 10 10 10 10 11 13
24 24 24 23 23 22 22 21 19 17 15 13 12 13 15 18 20 20 20 19 19 18 17 17 16 15 14 13 12 12 11 9 9 8 7 7 7 8 8 9 11 13
26 26 25 24 24 23 23 22 19 17 15 13 13 14 16 18 19 19 19 19 19 18 17 17 16 15 14 13 11 10 10 9 8 7 5 5 5 6 7 8 10 12
27 27 26 25 25 24 24 22 20 17 15 14 14 16 17 17 18 18 19 18 18 18 17 16 16 14 13 12 11 10 9 8 8 7 6 5 4 5 6 8 10 11
28 28 27 26 26 25 24 23 20 18 16 15 16 17 17 17 17 17 18 18 18 18 17 16 15 13 12 11 11 10 9 8 6 5 6 7 5 4 5 7 10 10
29 29 28 27 27 26 25 23 20 18 16 16 16 16 16 17 17 17 18 17 17 17 16 15 14 13 11 11 10 10 9 7 5 4 6 8 6 4 4 4 8 9
30 30 29 28 28 27 25 23 21 18 16 16 16 17 17 17 18 18 18 17 17 17 16 15 13 12 10 10 10 9 7 6 6 5 7 8 6 3 3 2 6 7
31 30 30 29 28 28 26 24 22 19 17 16 16 17 18 18 18 18 18 17 17 17 16 15 13 11 10 9 8 7 6 6 6 6 7 8 8 4 2 1 4 5
31 31 30 30 29 29 28 26 23 20 18 17 17 18 18 18 18 17 17 17 17 16 16 14 12 11 9 8 7 7 7 7 7 6 6 7 8 6 3 1 2 4
32 32 31 31 31 30 29 27 25 22 20 19 20 20 19 18 17 16 16 16 16 15 15 14 12 10 9 8 7 7 7 7 7 7 7 6 7 6 3 1 1 4
33 32 32 32 31 31 30 28 26 23 21 20 20 20 19 18 17 17 15 14 14 14 14 14 12 10 8 8 8 8 8 9 9 8 8 7 7 6 4 2 1 4
33 33 32 32 31 31 30 29 27 25 22 21 20 20 20 19 17 17 16 14 13 13 12 12 11 10 8 7 7 7 7 9 10 10 9 9 7 6 5 4 2 3
33 33 32 32 31 30 30 29 27 26 24 23 21 19 19 18 17 17 16 15 14 12 11 10 10 9 8 7 6 6 6 7 8 9 10 9 8 7 6 5 2 2

ECMWFNIL_925_spd_108.txt.gz
Wind_Speed
21 20 19 18 15 13 11 10 10 10 11 12 14 15 15 15 15 15 15 16 16 17 18 18 19 19 20 21 23 26 27 28 28 27 27 29 28 28 27 26 24 24
21 20 18 17 15 13 12 11 11 12 13 14 15 16 16 16 17 16 16 17 17 18 18 18 19 19 21 23 25 27 28 28 28 27 27 28 27 27 26 25 24 23
20 19 17 16 15 15 14 13 13 13 15 16 17 17 17 18 18 18 17 17 18 19 19 19 20 21 23 25 26 27 28 28 27 26 26 26 25 25 25 24 24 23
19 18 17 16 16 16 16 16 16 16 17 18 18 18 19 19 20 20 19 18 19 20 19 19 21 23 25 26 26 27 27 27 26 25 26 25 23 24 23 23 24 23
20 19 18 18 17 18 17 18 18 18 19 20 20 20 19 20 20 21 20 19 20 20 20 20 21 22 24 24 25 26 27 26 24 23 25 25 23 22 22 22 23 23
21 20 20 19 19 19 19 20 20 19 20 22 22 21 20 20 21 21 21 20 20 20 21 20 21 21 21 22 24 24 24 24 23 22 24 24 23 22 22 22 22 22
22 21 21 21 21 20 20 21 21 20 21 23 22 21 20 20 21 21 20 20 20 20 20 19 19 20 20 21 22 23 22 21 21 21 23 23 22 22 22 22 22 21
23 23 23 22 22 22 22 22 22 21 22 23 22 22 20 20 21 21 20 20 20 20 19 18 18 19 19 20 21 21 20 19 19 21 22 22 21 21 21 21 21 20
24 24 24 23 23 23 23 23 22 22 23 22 22 22 21 20 20 21 20 20 20 19 19 18 17 18 18 18 19 20 20 20 20 20 20 20 20 20 20 20 20 19
25 25 25 25 25 24 24 23 23 23 23 21 21 21 21 20 20 20 19 19 19 19 19 18 17 17 17 18 19 20 21 21 20 20 19 19 19 19 19 19 20 19
26 26 26 26 26 25 24 24 24 24 22 21 21 21 20 20 20 19 19 18 19 19 18 17 17 17 18 19 19 20 21 21 20 19 19 18 18 18 18 18 19 19
27 27 27 26 26 25 25 25 25 24 23 21 20 20 20 20 20 19 18 18 19 19 18 17 16 17 19 20 20 19 18 18 18 17 17 16 16 16 17 18 18 18
28 27 27 27 26 26 26 26 25 24 22 21 20 19 20 21 20 20 19 18 19 18 17 16 17 18 19 19 18 17 16 15 15 15 14 14 14 14 15 16 17 17
28 28 27 27 27 27 27 26 25 24 22 21 20 19 20 21 20 20 19 19 19 18 16 16 18 19 19 17 16 15 13 13 12 12 12 12 12 13 14 15 15 16
29 28 27 27 27 28 27 26 25 23 22 20 19 19 20 21 20 20 20 20 19 18 17 17 18 19 17 16 15 13 12 11 10 10 9 10 11 12 13 14 14 14
30 29 29 28 28 28 27 26 25 23 21 19 18 19 20 21 21 21 20 20 20 19 18 18 18 17 16 15 13 12 11 10 9 8 7 7 9 11 12 12 12 12
31 30 29 29 29 28 27 26 24 22 20 18 17 19 21 22 22 21 21 20 20 20 19 19 17 16 15 14 13 11 10 9 8 7 6 6 7 9 10 11 10 10
31 31 30 30 29 28 27 26 24 22 19 17 17 19 21 22 22 22 22 21 21 20 20 19 17 15 15 14 12 11 10 8 7 7 6 6 5 6 7 8 8 8
32 31 31 30 30 28 27 26 23 21 18 16 17 19 21 23 23 22 22 22 21 20 20 19 17 16 14 13 12 11 10 9 7 6 7 6 5 5 4 6 7 6
32 32 31 31 30 29 27 25 23 21 18 17 18 20 22 23 23 23 22 22 21 20 20 19 17 16 14 13 12 11 10 8 6 5 7 7 5 4 2 4 5 5
33 32 32 31 30 29 27 25 23 21 19 19 19 21 22 22 22 22 22 22 21 20 19 18 17 15 14 13 12 11 9 7 6 6 6 7 6 4 1 2 4 4
33 32 32 31 31 29 28 26 24 21 20 20 20 21 21 21 21 22 22 21 20 19 19 18 16 15 13 12 11 10 8 6 6 7 7 7 7 6 3 2 3 3
33 33 32 31 31 30 29 27 24 22 21 20 21 21 21 21 21 21 21 21 20 19 18 18 16 14 12 11 9 8 7 7 7 7 7 7 7 6 4 2 2 2
33 33 32 32 32 31 30 28 25 23 21 20 20 21 21 21 21 21 21 20 19 18 18 17 16 14 12 10 9 7 7 7 8 8 7 7 7 6 4 2 2 3
33 33 33 33 32 31 30 28 25 23 20 19 19 20 20 21 20 20 20 19 18 17 16 16 15 14 12 10 9 8 8 8 9 9 9 8 7 7 5 4 3 4
33 33 33 33 33 32 30 28 25 23 20 19 19 19 20 21 20 20 20 19 18 16 16 15 14 12 11 9 8 7 7 8 9 10 10 9 8 7 6 5 5 5

ECMWFNIL_925_spd_111.txt.gz
Wind_Speed
20 19 18 16 14 12 11 10 10 10 10 10 11 13 14 14 14 14 14 15 14 14 15 15 16 18 20 21 23 24 24 24 25 25 25 25 25 25 25 25 24 24
20 20 18 17 15 13 11 11 10 10 10 10 12 15 16 16 16 15 15 15 15 15 15 16 18 20 21 22 23 24 24 25 25 24 24 25 24 24 24 24 24 23
21 20 18 17 15 14 13 12 11 11 10 11 14 16 17 17 17 16 16 16 16 16 16 17 19 21 22 23 24 24 24 24 24 24 24 24 24 24 23 23 23 23
21 20 19 17 15 14 14 13 13 13 11 12 15 17 17 18 18 17 17 17 17 17 17 19 21 21 22 23 23 23 23 23 23 23 24 24 23 22 23 22 22 22
22 21 19 18 17 16 15 15 15 14 11 13 17 17 18 19 18 18 18 18 17 18 19 21 21 22 22 22 22 22 22 22 22 22 23 23 22 22 22 21 21 20
23 22 21 19 18 17 16 16 16 13 11 15 18 19 19 20 19 19 19 18 18 19 21 22 22 22 22 22 21 21 21 22 22 22 22 22 21 21 20 19 19 18
25 24 23 21 20 18 17 17 16 13 13 17 20 19 19 20 19 19 19 19 19 20 21 21 22 22 21 20 20 21 21 22 21 20 21 20 19 19 19 17 16 16
26 25 24 23 21 20 19 19 17 14 15 19 20 20 20 20 20 20 20 20 20 20 20 20 20 20 20 19 19 21 22 21 20 19 19 19 17 17 17 16 15 15
27 26 26 24 23 22 21 20 17 15 18 21 21 21 21 20 20 21 21 20 20 20 20 20 19 19 18 18 19 19 20 20 19 18 18 17 16 15 15 15 14 14
28 27 27 25 24 23 22 20 18 18 20 22 21 21 22 22 21 21 21 21 21 20 20 19 19 18 17 17 18 18 18 18 17 17 16 16 15 15 14 14 14 14
29 28 27 26 25 24 22 20 18 20 23 22 22 22 22 22 22 22 22 22 21 20 20 19 19 18 18 19 19 19 18 17 16 16 15 15 15 15 14 13 13 13
29 29 28 27 25 24 22 20 20 22 24 23 23 23 23 23 23 23 23 22 21 20 20 20 19 18 19 20 20 19 18 16 15 15 15 15 14 14 14 13 13 12
30 29 29 27 26 25 23 21 22 24 24 24 23 23 24 24 24 24 23 22 21 20 20 20 20 20 20 20 19 18 17 16 15 14 14 14 14 13 13 12 12 12
30 29 29 27 26 26 23 22 24 25 24 24 24 24 24 24 24 23 23 22 21 21 20 20 21 22 21 20 19 17 15 15 14 14 13 13 13 12 12 11 11 11
30 30 29 28 27 27 26 25 26 26 25 25 24 24 24 24 24 23 23 23 23 21 20 20 22 24 22 20 18 16 15 14 13 12 12 12 11 11 10 10 9 10
30 30 29 29 28 28 28 28 28 27 26 25 25 25 24 24 24 23 24 24 24 22 21 21 23 23 21 19 17 16 14 13 12 11 11 10 10 10 9 8 8 9
31 31 30 30 30 29 30 30 29 28 27 26 25 25 25 24 25 24 25 25 24 23 22 22 23 22 19 17 15 14 13 12 12 11 10 9 9 8 8 7 7 7
32 32 31 31 31 31 31 31 30 29 28 27 26 26 25 25 25 25 25 25 24 23 22 23 22 20 18 17 15 13 12 12 11 10 10 9 7 7 7 6 5 5
33 33 33 33 32 33 33 32 31 30 28 27 26 26 26 26 26 26 26 25 24 23 22 23 22 20 18 17 15 14 13 12 11 10 9 8 7 6 6 5 4 3
34 34 34 34 34 34 34 33 32 30 28 27 26 26 26 27 27 26 26 25 24 23 22 22 21 19 18 17 15 14 13 13 11 10 10 9 7 6 4 4 3 3
36 35 35 35 35 35 34 33 32 30 28 26 25 26 27 27 27 27 26 26 25 23 22 22 20 19 18 17 16 14 13 12 10 10 10 10 8 7 4 3 3 3
36 36 36 36 36 35 34 33 32 29 27 25 24 25 26 27 27 27 26 26 25 24 22 22 21 19 18 17 16 14 14 12 10 10 11 11 10 8 5 3 2 2
37 37 37 36 36 36 35 33 31 29 26 24 23 24 26 27 27 27 26 26 25 24 23 22 21 20 19 17 16 15 14 12 11 11 12 12 11 9 6 3 2 1
37 37 37 37 37 36 35 33 30 28 26 23 22 23 25 26 26 26 26 25 24 24 23 22 21 20 19 17 16 15 14 13 11 11 12 12 12 10 8 5 3 2
38 38 37 37 37 36 35 33 30 28 26 23 22 23 24 25 25 26 25 24 23 22 21 21 20 19 18 17 16 15 14 13 12 11 12 13 12 10 9 6 4 3
38 39 37 37 37 35 34 32 30 28 26 23 23 23 24 25 25 25 25 24 22 21 20 20 20 18 18 16 15 14 14 13 13 12 13 13 12 10 9 7 6 4

ECMWFNIL_925_spd_114.txt.gz
Wind_Speed
22 20 18 15 15 15 14 12 11 10 10 9 9 9 10 11 11 11 12 12 12 12 13 14 14 16 16 16 15 14 14 13 13 12 12 13 13 14 14 13 12 12
22 20 19 17 15 15 15 13 12 11 11 10 10 10 11 12 12 12 12 12 12 13 14 14 14 15 15 15 14 14 13 13 12 12 12 13 13 14 14 13 12 12
22 22 21 18 18 18 16 16 15 13 11 11 11 12 13 13 13 13 13 13 13 14 14 14 14 14 14 14 13 13 12 12 11 11 12 12 12 12 12 12 12 12
24 24 23 21 20 19 17 17 16 13 11 11 12 13 14 13 13 13 13 13 14 14 14 14 13 13 13 13 12 12 11 11 11 11 11 11 11 12 12 12 12 12
25 24 23 22 20 19 19 18 16 13 12 12 13 14 14 14 14 14 13 13 13 14 14 14 13 13 13 12 12 11 11 10 10 10 11 11 11 11 11 12 12 12
25 24 24 22 21 20 19 17 15 13 12 13 15 14 15 15 14 14 14 13 13 14 14 14 13 13 12 11 11 10 10 10 10 10 11 11 11 11 11 11 12 11
25 26 25 23 22 20 18 17 15 13 13 14 15 15 15 15 14 14 14 14 14 14 14 14 13 13 12 11 11 11 10 10 10 10 11 11 11 11 11 10 11 11
26 27 25 23 22 20 18 17 15 13 13 15 15 15 15 15 15 15 14 14 14 14 14 14 13 12 11 11 11 11 11 10 10 11 11 11 11 11 10 10 10 10
27 27 25 23 21 19 18 17 14 12 14 15 15 15 15 15 15 15 15 14 14 14 14 14 13 12 11 11 12 12 11 11 11 11 11 11 11 10 10 9 9 8
27 27 26 23 20 18 18 18 15 13 14 15 16 16 15 15 15 15 15 15 14 14 14 14 13 12 12 12 12 12 12 12 12 12 11 11 11 10 9 8 8 7
28 26 25 21 18 18 19 18 15 14 14 16 16 16 16 16 16 16 15 15 14 14 14 14 13 13 13 13 12 12 12 12 12 12 12 11 10 10 9 8 7 7
28 25 22 20 18 19 20 18 15 14 15 16 16 16 16 16 16 16 15 15 14 14 14 14 13 13 13 13 13 12 12 12 12 12 12 11 10 9 8 7 7 6
26 23 21 20 20 20 21 18 15 15 15 16 16 16 17 16 16 16 15 15 14 14 14 14 13 13 13 13 13 13 12 12 12 12 12 11 10 9 8 7 6 6
23 21 21 21 21 21 20 17 15 15 16 16 16 16 16 16 16 16 15 14 14 14 14 14 14 14 14 14 13 13 12 12 12 12 11 11 10 8 7 6 6 6
21 21 21 21 21 20 19 17 16 16 16 16 16 16 16 16 16 16 15 15 15 14 14 14 14 14 14 14 14 13 13 12 11 11 11 11 9 8 7 6 6 6
21 21 20 21 21 20 19 17 17 17 17 17 17 16 16 16 16 16 15 15 15 15 14 14 14 14 15 16 14 13 12 12 11 11 10 10 9 8 7 6 5 5
22 22 21 21 21 20 19 18 17 18 18 18 17 17 16 16 16 16 16 15 15 15 15 14 13 15 18 19 17 14 12 11 11 10 9 9 8 7 7 6 5 5
23 23 21 21 21 20 20 18 18 19 18 18 18 17 17 17 16 17 16 15 16 15 15 14 13 16 21 21 19 16 13 10 10 10 9 8 7 7 6 6 5 5
24 23 21 21 21 21 20 19 19 19 19 18 18 17 17 17 17 17 16 16 16 15 15 14 13 17 21 21 18 17 14 10 9 8 8 7 7 6 5 5 5 5
25 23 20 20 21 21 21 20 20 20 19 18 17 17 17 17 17 17 16 17 16 15 15 14 14 18 22 20 17 16 14 10 7 7 8 7 7 6 5 5 4 4
25 22 20 21 21 21 21 20 20 20 19 18 17 17 17 17 17 17 17 17 17 15 15 14 14 18 22 20 17 15 13 10 6 6 7 7 7 7 5 5 4 4
25 22 22 22 22 22 22 21 20 19 18 17 16 16 17 16 16 17 16 17 17 15 15 13 14 19 21 20 18 16 14 12 8 7 8 8 8 8 6 5 5 4
24 23 24 23 23 24 22 21 21 20 18 18 16 15 16 15 16 16 16 17 16 16 15 13 14 19 21 20 18 17 15 12 9 8 8 8 8 8 7 6 5 5
22 22 24 24 24 23 22 23 23 21 21 21 19 17 16 15 15 15 15 16 16 16 15 13 14 19 22 20 19 19 17 14 11 9 10 9 8 8 8 7 7 7
25 24 26 27 25 22 23 25 25 23 24 25 23 20 17 15 14 14 14 15 16 16 16 14 14 19 23 22 21 21 19 16 13 12 12 11 10 10 9 8 8 8
30 30 32 32 28 25 25 27 26 25 26 26 24 19 15 14 15 14 14 15 15 16 17 15 14 19 24 24 22 22 21 17 12 10 11 11 10 10 10 9 9 8

ECMWFNIL_925_spd_117.txt.gz
Wind_Speed
23 23 24 22 20 20 19 17 16 14 12 11 10 9 9 9 9 9 9 9 9 10 10 11 11 11 12 12 11 11 11 11 11 11 11 11 11 10 10 9 9 9
23 23 25 22 21 20 17 16 15 14 12 11 10 10 10 10 10 10 10 10 10 11 11 11 11 11 11 11 11 11 12 12 11 11 11 11 10 10 10 10 9 9
23 24 24 22 20 20 17 16 15 13 12 10 10 10 11 12 11 11 11 11 11 11 11 11 11 11 11 11 11 11 11 11 10 10 10 10 9 9 9 10 9 9
25 25 24 21 21 20 18 17 16 14 12 10 10 11 13 13 12 12 12 12 12 12 12 12 12 12 11 11 11 11 11 10 10 10 10 9 9 9 10 10 9 9
26 25 22 21 21 20 18 18 17 14 12 11 12 13 14 14 13 13 13 12 12 13 12 12 12 11 11 11 11 11 10 9 9 9 9 9 9 9 9 9 9 8
26 24 22 21 21 20 19 18 16 13 11 12 14 15 15 15 14 13 13 13 13 13 13 12 12 11 11 11 10 10 9 9 9 9 9 9 9 9 9 9 8 8
27 25 22 21 22 20 19 18 14 12 12 13 15 15 15 15 14 14 14 14 14 14 13 13 12 11 11 10 10 10 9 9 9 9 9 9 9 9 9 8 8 8
28 26 23 22 22 20 18 17 14 12 12 14 16 16 15 15 15 14 14 14 14 14 13 13 12 12 11 10 10 10 10 9 9 9 10 10 9 9 9 8 8 8
28 25 22 22 22 20 18 17 15 13 13 15 17 16 15 15 15 15 15 15 14 14 14 13 12 11 10 10 11 11 10 9 9 10 10 9 9 9 9 8 8 8
27 24 24 24 21 20 19 17 15 13 14 16 17 16 16 15 15 15 15 15 15 14 14 13 12 12 11 11 11 10 10 10 10 10 9 9 9 9 8 8 8 7
25 23 25 25 21 20 20 17 14 13 14 16 17 17 16 16 16 15 15 15 15 14 14 13 13 12 12 11 11 10 10 10 10 10 9 9 9 8 8 8 7 7
24 24 25 24 21 20 20 17 14 14 15 16 17 17 17 16 16 16 15 15 15 14 14 14 13 13 12 12 11 11 11 10 10 10 10 9 9 8 8 8 7 7
27 26 24 22 21 21 20 17 14 14 16 17 17 17 17 17 16 16 15 15 15 14 14 14 13 13 12 12 12 11 11 11 10 10 10 9 9 8 8 7 7 6
26 25 23 22 21 21 20 18 15 15 17 17 17 17 17 17 16 16 15 15 15 14 14 14 13 13 13 13 12 12 11 11 11 10 10 9 9 8 8 7 6 6
24 24 23 22 21 21 20 18 15 16 17 17 17 17 17 17 16 16 15 15 15 15 14 14 13 13 13 13 13 12 12 11 11 10 10 10 9 8 7 7 6 6
23 23 23 21 21 21 20 19 16 16 17 17 18 17 17 17 17 16 16 16 16 15 15 14 13 13 15 15 14 13 12 11 11 10 10 9 9 8 7 6 6 6
25 24 22 21 21 20 20 20 17 17 17 18 18 18 17 17 17 17 16 16 16 16 15 14 13 15 18 18 16 14 13 11 11 11 10 9 9 8 7 6 5 5
26 24 22 21 21 21 21 20 18 17 18 18 18 18 18 18 18 17 17 16 16 16 16 14 14 16 20 20 18 16 15 12 11 10 10 9 9 8 8 7 6 4
24 23 22 22 22 21 21 20 19 19 19 18 18 18 18 18 18 17 17 16 16 16 16 14 14 17 22 23 20 18 16 13 10 10 10 9 9 9 9 9 8 6
24 24 23 22 22 21 21 21 20 20 19 18 18 18 18 18 18 17 17 16 16 16 15 15 16 17 22 24 22 20 18 13 9 10 10 9 9 9 8 9 8 7
23 24 23 23 22 21 21 21 21 21 20 19 18 18 18 17 17 17 17 16 16 16 14 15 16 16 21 25 23 21 19 11 8 11 11 9 10 9 8 8 7 7
23 23 23 23 23 22 21 22 21 21 20 19 18 17 16 16 16 16 16 16 16 15 14 14 15 16 20 24 23 22 20 11 7 11 10 9 10 9 8 8 7 7
24 24 23 23 22 22 22 21 21 21 20 18 18 18 16 15 15 15 15 16 16 15 14 14 15 17 21 24 23 23 22 13 7 9 10 9 10 9 8 8 8 8
24 24 24 23 22 22 22 21 20 20 19 18 18 18 17 16 15 14 14 14 15 15 14 14 16 18 21 23 23 23 22 15 9 8 9 9 10 10 9 8 8 10
23 23 23 23 22 22 21 21 20 19 18 18 18 18 17 16 15 15 15 15 14 15 15 14 15 19 22 23 24 24 22 16 10 8 9 9 9 9 9 8 8 9
23 23 23 22 22 21 21 20 19 18 17 17 16 16 16 15 14 14 15 15 15 15 15 14 14 19 23 24 24 23 22 18 12 9 10 10 9 9 9 8 8 7

ECMWFNIL_925_spd_120.txt.gz
Wind_Speed
23 22 22 22 22 21 20 18 16 16 15 14 13 12 11 10 9 9 9 10 10 11 12 13 14 13 13 13 13 13 13 13 13 12 12 13 12 12 11 11 10 10
24 23 23 22 22 21 20 18 17 16 15 15 14 12 11 10 9 9 10 10 11 12 13 14 14 13 14 14 13 14 14 14 13 12 12 12 12 12 12 11 10 9
24 23 24 23 22 22 20 19 19 16 16 17 15 12 12 11 10 9 10 12 12 13 13 14 14 13 13 13 13 14 14 14 14 12 12 11 11 11 11 10 10 10
25 24 24 23 23 22 21 20 19 17 17 17 14 12 12 12 12 11 11 13 14 14 14 14 14 14 14 14 14 14 14 13 13 12 12 11 10 10 10 10 10 10
25 25 25 24 23 23 21 20 19 19 18 16 14 13 13 13 13 13 13 14 14 15 15 14 15 15 14 14 15 14 14 13 12 11 11 11 10 10 10 10 10 9
25 25 25 24 23 23 22 19 17 18 18 16 14 14 14 15 14 14 14 15 15 15 15 15 15 15 14 14 15 14 13 13 12 11 11 11 10 10 10 9 9 9
26 26 25 24 24 23 21 20 18 17 17 16 15 16 16 16 15 15 15 15 15 16 15 16 16 15 15 14 14 13 13 12 12 11 11 11 10 10 10 9 8 8
27 26 25 25 25 23 21 21 20 18 18 17 16 17 16 16 16 16 16 16 16 16 16 16 15 15 15 14 14 14 13 13 12 11 12 11 11 10 9 9 9 9
27 26 27 27 27 25 23 22 21 19 18 18 18 18 17 17 17 17 17 17 17 16 16 16 16 15 14 14 15 14 14 13 12 12 12 11 11 10 9 9 8 8
27 27 28 28 27 26 24 23 22 20 18 18 18 18 18 18 18 18 18 18 17 17 17 17 16 16 15 15 15 14 13 13 13 12 12 11 11 10 9 9 8 8
28 29 29 28 28 27 25 23 21 20 19 18 19 19 19 19 19 18 18 18 18 18 17 17 17 16 16 15 15 14 14 14 13 12 12 11 11 10 9 9 8 8
29 30 29 28 28 27 25 24 21 20 20 19 19 20 20 19 19 19 19 18 18 18 18 18 17 17 17 16 15 15 14 14 14 13 12 12 11 10 10 9 8 8
29 30 30 29 28 27 26 24 21 20 20 19 20 20 20 20 20 19 19 19 18 18 18 18 18 17 17 16 16 16 15 15 15 14 13 12 12 11 10 9 9 8
29 29 29 28 29 29 27 23 20 20 20 20 21 21 21 21 20 20 19 19 19 19 18 18 18 18 18 17 17 16 16 16 15 15 14 13 12 11 11 10 9 9
30 29 28 28 29 29 26 23 20 20 21 21 21 21 21 21 20 20 20 19 19 19 19 19 18 18 18 18 18 18 17 17 16 16 15 14 13 12 11 10 10 10
29 29 28 28 29 28 26 24 21 20 21 21 21 21 21 21 20 20 20 20 20 19 19 19 18 18 19 19 19 19 18 17 17 16 15 15 14 13 12 10 9 8
29 29 28 29 28 28 26 25 23 21 21 22 21 21 22 21 21 21 20 20 20 20 20 19 18 19 20 20 19 19 18 18 17 17 15 15 14 14 13 10 8 7
30 28 29 28 28 28 27 25 24 22 22 22 22 22 22 22 21 21 20 20 20 20 20 18 18 21 22 22 20 19 19 18 17 17 16 15 14 13 13 11 8 8
30 29 29 27 27 28 27 26 25 23 22 23 22 22 22 22 22 21 20 21 21 20 20 18 19 22 24 23 22 21 19 17 16 16 16 15 14 13 13 12 10 9
30 28 27 27 27 28 28 27 25 23 24 23 22 22 23 22 22 22 21 21 21 20 20 19 20 23 25 24 23 21 20 18 16 16 15 14 14 13 12 12 11 10
29 28 28 28 27 28 28 27 24 23 24 24 22 23 23 22 22 22 21 20 21 20 19 19 21 22 24 25 23 22 20 17 15 16 15 13 13 13 11 12 12 10
29 29 29 28 28 29 29 27 25 24 23 23 23 22 22 22 21 21 21 20 19 19 18 18 20 20 21 24 25 23 20 15 13 15 14 13 13 12 10 12 12 10
29 29 29 29 28 29 30 27 25 25 23 23 23 23 22 22 22 21 21 20 19 18 18 19 19 17 19 23 26 25 20 13 12 14 14 12 13 13 11 11 12 11
30 29 29 29 28 28 30 27 25 26 26 23 23 24 22 22 21 20 20 20 20 18 17 19 20 18 19 23 27 28 22 14 11 13 13 13 13 13 12 11 13 13
29 29 29 29 27 27 30 27 24 26 25 22 23 24 21 20 22 20 19 21 22 19 17 18 21 20 20 23 28 29 25 17 12 11 13 13 13 14 14 13 14 15
27 28 29 29 27 27 28 27 25 25 24 22 24 23 20 21 23 20 20 23 23 19 17 18 20 21 21 24 28 30 28 22 15 11 12 14 15 15 16 15 14 15

ECMWFNIL_925_spd_123.txt.gz
Wind_Speed
30 31 30 29 29 29 29 29 29 27 24 22 21 22 21 18 17 17 17 16 17 17 17 17 17 18 18 18 18 18 18 18 18 17 17 17 16 15 14 13 12 12
30 30 30 29 29 29 29 29 28 26 23 22 21 22 22 19 17 18 17 17 17 18 18 18 18 18 18 18 18 18 19 18 18 18 17 17 17 15 15 14 13 13
30 30 30 30 30 30 29 28 26 25 24 23 23 23 23 20 18 18 17 16 18 19 19 19 19 18 17 17 18 18 18 19 18 18 18 17 16 15 15 14 13 13
31 31 30 29 30 31 29 27 26 26 26 25 25 24 22 20 19 17 16 17 18 19 19 19 18 18 17 17 18 19 19 18 18 18 18 17 16 15 15 13 14 13
31 30 29 30 31 30 29 27 27 28 28 27 26 24 21 20 18 17 17 18 19 20 19 18 18 18 18 19 19 20 19 19 18 17 18 18 16 15 14 13 15 14
31 29 29 30 31 31 29 27 27 29 29 27 26 23 21 20 18 18 19 19 20 21 20 19 19 18 19 19 19 19 19 19 17 17 18 18 17 15 15 15 16 15
32 30 30 31 31 31 30 28 27 29 29 27 24 22 20 19 18 18 19 20 21 21 21 20 20 19 19 19 19 19 18 17 17 17 18 18 17 16 15 15 16 16
33 31 30 31 31 30 30 29 28 28 27 25 23 21 20 19 19 19 19 20 21 21 21 21 20 19 19 19 20 20 19 17 17 18 19 18 18 16 15 14 15 15
33 31 31 32 32 30 30 30 28 27 26 24 22 21 20 19 19 19 20 21 22 21 21 21 20 19 19 19 20 20 20 18 17 18 19 19 18 17 16 15 15 15
33 32 32 33 33 31 30 30 28 25 24 23 22 21 20 20 19 19 21 22 22 22 22 21 20 20 20 19 20 20 20 19 18 19 19 19 18 17 15 14 15 15
33 33 33 34 34 32 30 28 26 25 23 22 22 22 21 20 20 20 22 23 23 23 23 22 22 21 20 20 20 20 20 19 19 19 18 17 17 16 15 14 15 15
33 34 34 34 33 31 29 28 27 25 23 23 23 23 21 20 21 22 23 24 23 23 23 23 23 21 21 21 22 21 20 19 19 19 18 17 17 16 15 15 15 15
34 34 35 35 32 31 30 29 27 25 24 25 25 23 22 22 23 23 24 24 23 24 24 24 23 22 21 22 22 21 21 20 20 20 19 19 17 16 16 15 15 15
34 34 35 34 31 30 30 28 26 25 25 26 25 23 23 24 24 24 24 24 24 24 25 24 23 23 23 23 22 22 22 22 22 22 21 19 18 16 16 16 15 15
34 33 34 34 31 30 30 28 27 27 26 26 24 23 24 24 24 25 25 25 25 25 25 24 24 24 24 24 23 23 24 23 22 22 21 20 19 18 17 16 15 14
34 34 33 33 32 30 30 30 29 27 26 26 24 23 25 25 25 25 25 25 26 26 25 24 24 24 24 24 24 25 25 24 23 22 22 22 21 19 17 15 14 13
34 34 33 33 32 31 30 30 30 28 28 27 25 25 26 26 26 26 26 26 27 26 25 25 25 24 24 24 24 24 25 24 23 23 22 22 21 20 18 16 14 11
34 34 33 33 33 32 31 31 30 30 30 28 26 26 27 27 27 27 26 26 27 26 25 25 24 23 23 23 23 23 23 23 23 23 22 21 20 20 18 16 13 11
35 34 34 33 33 32 32 31 31 31 31 28 27 28 28 27 28 28 26 26 27 27 26 25 23 22 22 22 21 22 22 22 21 21 20 20 20 19 17 14 13 13
35 34 34 33 33 33 32 31 31 32 31 29 28 29 29 28 28 28 26 26 27 27 26 25 24 24 23 22 22 21 21 21 21 20 19 20 19 18 16 14 13 15
34 33 33 34 34 33 33 32 31 32 31 29 30 30 29 28 29 27 26 27 27 27 27 25 25 25 25 23 23 21 20 20 20 20 20 19 18 18 16 14 13 13
34 33 33 34 34 33 32 32 31 32 32 30 30 30 28 28 28 27 26 27 28 28 28 26 25 27 26 24 24 24 22 20 19 20 20 19 19 19 17 14 13 13
36 34 33 34 34 32 32 33 31 31 33 32 31 30 29 28 28 27 26 28 29 30 29 27 28 28 27 27 28 27 25 23 22 22 21 20 20 19 17 15 15 15
36 36 34 34 33 31 32 33 31 32 34 33 33 32 30 29 29 27 27 29 30 31 30 29 29 28 27 29 31 29 27 25 24 24 23 21 21 19 17 17 18 17
33 33 33 33 32 31 31 32 31 32 35 34 33 33 31 29 28 28 28 29 30 31 30 29 31 29 29 31 30 28 28 26 23 24 23 21 21 19 17 17 18 18
30 31 32 34 34 33 32 32 32 33 34 34 33 32 31 29 28 29 29 28 29 30 30 30 31 30 29 30 28 28 30 27 23 24 23 21 21 20 18 18 18 19

ECMWFNIL_925_spd_129.txt.gz
Wind_Speed
36 36 36 35 35 34 34 34 33 32 32 32 31 30 29 28 25 24 22 21 20 20 19 18 17 17 17 17 17 17 17 18 18 18 18 18 18 18 16 15 14 15
35 35 35 35 34 34 34 34 34 33 33 33 32 31 30 28 26 24 23 21 20 19 18 18 17 17 17 17 17 18 18 18 18 18 18 18 17 16 16 15 14 14
35 36 36 35 35 34 34 34 33 33 32 32 32 31 30 28 26 24 22 21 20 19 18 17 17 17 17 17 17 18 19 19 19 19 18 18 17 17 16 15 15 14
36 36 36 36 35 35 34 34 33 32 31 32 32 31 29 27 25 24 22 21 20 19 18 17 17 17 17 17 18 19 19 19 19 19 19 18 18 17 16 16 15 14
36 36 36 36 35 34 34 33 33 32 31 32 32 31 30 28 26 24 23 22 21 19 18 18 18 17 18 17 17 18 19 19 20 20 20 19 18 17 17 17 16 15
35 36 36 35 34 34 34 33 32 32 31 31 31 31 30 28 26 25 24 23 21 20 19 18 18 18 18 18 18 18 19 20 20 20 20 19 19 18 17 17 17 16
35 36 35 34 34 34 34 33 32 31 31 31 31 31 30 29 27 26 25 23 21 20 19 19 19 19 19 18 18 19 19 20 20 20 20 20 20 19 18 18 18 17
36 35 35 34 34 33 33 32 32 32 31 31 31 32 31 29 28 27 25 23 21 20 20 20 20 20 20 20 20 20 20 20 21 21 21 21 21 21 20 19 19 19
36 35 35 35 34 34 33 33 32 32 31 31 32 32 31 29 28 27 25 23 22 21 21 21 22 22 21 21 21 21 22 22 22 22 22 22 22 22 21 21 21 21
36 35 35 35 34 34 34 33 33 33 31 31 32 32 31 29 28 27 25 24 23 23 22 23 23 23 22 22 22 22 22 23 23 22 22 23 23 22 22 22 23 23
36 35 35 35 35 34 34 34 33 33 32 32 33 32 31 29 28 27 26 25 24 23 23 24 24 24 24 23 22 22 23 23 23 23 23 23 22 22 22 23 24 24
36 35 35 35 34 34 34 34 34 33 33 33 33 32 31 30 29 28 27 26 25 24 24 24 25 25 24 23 23 23 23 23 23 23 23 23 22 22 23 23 24 23
36 35 35 35 34 34 34 34 34 34 34 33 33 32 32 31 30 30 29 27 25 24 24 24 25 25 24 24 23 23 24 24 24 24 23 23 22 22 22 22 22 21
35 34 34 35 34 34 34 34 35 35 34 33 32 32 32 32 32 31 29 27 25 24 24 25 26 26 25 24 24 24 24 24 24 24 24 23 22 21 21 20 20 19
33 33 34 35 34 34 35 35 35 35 35 34 32 33 33 32 32 31 29 27 26 25 25 25 26 26 25 25 25 25 25 25 24 24 24 23 22 21 21 20 19 18
33 33 33 34 35 35 35 36 35 35 35 34 33 33 34 33 32 31 29 28 27 26 26 27 27 27 26 25 25 26 26 25 25 24 24 23 22 22 20 19 18 16
33 33 34 35 35 36 37 37 35 35 35 35 34 34 34 34 33 32 30 29 27 27 27 28 28 27 26 25 25 26 26 25 25 24 24 23 22 21 19 18 16 14
34 34 34 35 36 36 37 37 35 35 36 35 35 35 34 34 33 32 31 29 28 27 28 29 29 27 26 26 26 26 26 26 25 25 24 23 22 20 18 18 17 16
34 34 34 35 36 37 37 36 35 35 36 36 36 35 35 35 34 32 31 30 29 28 29 30 29 27 27 26 26 26 26 26 25 25 25 24 22 21 21 21 21 20
35 35 35 36 37 36 36 36 36 36 36 36 35 35 35 35 34 33 32 31 30 29 30 30 29 28 28 27 27 26 26 27 26 25 26 25 24 24 23 23 23 22
36 35 35 36 37 37 36 37 38 37 35 35 36 37 37 36 35 35 34 32 31 31 31 31 29 29 28 28 28 27 27 27 27 27 27 25 24 24 23 22 23 21
37 36 35 36 37 37 36 37 37 37 36 36 37 37 36 35 35 35 34 33 32 32 32 31 30 29 29 29 28 28 28 28 27 28 28 25 24 24 23 23 23 21
37 37 36 36 37 37 37 37 37 37 38 38 37 35 34 34 35 34 34 33 34 34 34 33 31 30 30 29 28 28 29 29 29 29 28 26 26 26 25 25 23 20
36 37 37 37 37 38 38 38 38 37 37 38 38 37 36 36 36 35 34 34 35 35 35 34 32 31 30 29 28 29 29 29 30 30 29 27 27 26 26 25 22 19
36 37 37 37 37 38 39 38 35 35 36 38 39 38 38 37 36 35 35 36 35 35 35 34 32 30 30 29 29 30 30 30 30 30 29 28 28 27 26 24 21 21
36 37 38 38 38 38 36 33 32 34 36 35 34 33 33 32 33 34 35 36 35 34 34 33 30 29 30 30 30 31 31 31 31 31 30 29 29 28 26 25 23 24

ECMWFNIL_925_spd_132.txt.gz
Wind_Speed
35 35 35 34 34 34 34 33 32 31 30 29 29 28 27 25 24 23 22 21 20 20 19 18 17 17 16 16 16 16 16 17 17 18 18 18 18 18 18 19 19 18
35 35 35 34 34 33 33 33 32 32 31 30 29 28 27 26 24 23 23 22 21 20 19 18 17 17 17 16 16 16 17 16 17 17 17 17 17 16 16 16 16 17
36 36 36 35 35 34 33 33 32 32 31 30 29 28 27 26 25 24 23 22 22 20 19 18 17 17 16 16 16 16 16 16 16 16 15 15 15 15 15 15 14 14
37 37 37 36 35 34 33 33 33 32 31 31 30 29 28 27 26 25 24 23 22 21 19 18 17 17 16 16 16 16 16 15 15 15 15 15 15 15 15 14 14 13
37 37 36 35 35 34 34 34 34 33 32 31 30 30 29 28 27 27 26 25 23 21 20 18 17 17 16 16 16 16 16 16 15 16 16 15 15 15 15 15 15 14
36 36 36 35 35 35 35 35 34 33 33 32 31 30 29 29 28 27 27 25 24 22 20 19 18 17 17 16 17 17 16 16 16 16 16 16 16 16 16 15 15 14
36 36 35 35 35 35 35 35 34 34 33 32 31 30 30 29 28 28 27 25 24 23 21 20 19 18 17 17 17 17 16 15 16 17 17 17 17 17 17 16 15 15
35 35 35 35 35 35 35 35 35 34 33 32 31 30 29 29 28 27 26 25 24 23 22 20 19 18 17 17 17 17 16 16 16 17 17 18 18 18 17 16 15 15
35 34 35 35 35 35 35 35 35 34 33 32 30 30 29 28 28 27 27 26 24 23 22 21 19 18 17 17 17 17 16 16 16 17 18 18 19 18 18 17 16 15
35 35 35 36 35 35 35 35 35 34 33 31 30 29 29 28 27 27 26 26 25 24 23 21 20 18 18 18 17 17 16 16 16 17 18 18 19 18 18 18 17 16
36 36 36 36 36 35 35 36 35 34 32 31 30 30 28 27 27 27 27 26 25 24 23 21 20 18 18 18 18 17 16 16 16 17 18 18 18 18 18 18 17 16
36 37 38 38 37 35 35 36 35 34 32 31 31 30 28 27 27 28 27 27 26 24 23 21 20 18 18 18 19 18 17 16 16 17 18 18 17 17 17 17 16 16
37 37 38 38 37 36 36 36 35 34 33 32 31 30 29 28 27 28 28 27 26 24 23 21 20 19 19 19 19 19 18 17 17 17 18 18 17 17 16 16 16 16
36 36 37 37 37 36 36 36 35 34 33 33 32 31 30 28 26 27 28 27 26 25 23 22 21 20 20 20 20 19 19 18 18 18 18 18 17 16 16 15 15 16
35 35 35 36 36 36 36 36 35 34 34 34 33 32 31 28 26 27 28 28 27 25 24 23 22 21 20 20 21 21 20 19 19 19 19 19 18 17 16 16 16 16
34 34 34 35 36 37 36 35 34 34 34 34 33 32 31 29 28 28 28 29 28 27 26 24 23 21 20 21 21 21 20 20 20 20 19 19 19 18 18 17 17 16
34 34 35 36 36 36 36 35 35 34 35 34 34 33 31 30 30 30 30 30 29 28 27 26 24 22 21 21 21 21 20 20 20 20 20 20 19 19 20 19 18 17
34 35 35 36 36 35 35 36 35 35 35 35 35 34 33 32 32 31 31 31 30 29 28 26 24 22 21 21 21 21 20 20 20 21 21 20 20 20 21 20 20 20
35 35 35 35 35 35 35 35 36 35 35 35 36 35 35 34 33 32 31 31 31 30 28 26 23 21 21 21 21 21 20 20 21 21 21 21 22 22 22 22 22 23
34 35 35 34 35 34 34 35 35 35 36 36 36 35 35 34 34 33 32 31 31 30 28 26 23 21 21 22 22 22 21 21 21 21 22 22 23 23 23 23 22 23
34 34 34 34 34 34 35 35 35 36 36 35 36 36 37 36 34 33 33 31 31 30 29 26 24 22 22 23 23 23 22 22 22 23 23 23 23 23 23 22 21 21
34 34 33 33 34 34 34 34 35 36 36 36 35 35 35 34 33 33 33 32 31 31 29 27 24 23 23 24 24 24 23 24 24 24 24 24 23 23 23 22 20 21
34 34 33 33 33 34 34 33 34 36 37 37 34 32 33 33 32 33 33 32 33 32 30 28 25 24 24 25 25 25 25 26 26 25 26 25 25 25 24 23 21 21
35 35 35 34 34 35 34 34 35 36 36 36 35 33 33 33 32 32 32 32 33 33 31 28 26 25 25 25 26 26 27 27 27 27 27 26 26 26 25 24 22 20
35 35 36 36 36 35 34 36 37 36 34 35 35 33 33 33 34 35 35 34 33 32 30 29 27 26 25 26 26 27 27 28 28 28 28 28 28 28 26 25 23 21
35 36 36 37 37 36 36 37 37 33 31 32 33 33 34 35 37 38 37 34 33 32 31 30 28 26 26 26 26 27 28 29 29 29 30 29 29 28 27 26 24 22

ECMWFNIL_925_spd_135.txt.gz
Wind_Speed
34 35 36 34 34 35 33 30 28 29 29 29 27 25 25 24 23 22 20 20 19 19 19 19 18 18 18 17 15 14 15 16 16 18 18 19 20 21 21 22 22 22
35 36 36 35 35 36 36 34 32 31 31 31 31 29 27 26 23 22 21 20 20 20 20 19 19 18 17 16 15 14 15 15 15 16 17 18 18 19 19 19 20 21
37 37 38 37 36 37 36 35 33 32 32 32 31 30 28 26 23 23 22 21 21 21 21 20 19 18 17 16 15 14 15 15 15 15 16 17 17 17 18 18 19 19
39 38 39 37 36 37 37 35 34 33 32 32 31 30 28 26 24 23 22 22 22 21 21 21 19 18 17 15 15 15 15 15 15 15 15 16 16 17 17 17 17 17
40 37 34 30 29 34 37 36 34 33 33 32 31 31 29 26 25 24 23 23 23 22 21 21 20 18 17 16 15 15 15 15 15 15 15 16 16 17 17 16 16 16
40 33 29 26 25 28 32 35 35 34 33 33 32 31 29 28 26 25 25 24 24 23 22 21 20 19 17 16 16 15 15 16 15 15 16 16 17 17 17 16 16 15
37 29 28 27 27 25 27 31 34 35 34 33 33 32 30 28 27 26 26 26 25 24 23 22 21 19 18 16 16 16 16 16 16 15 16 17 17 17 17 16 16 15
31 28 28 28 27 26 25 26 29 34 36 33 33 33 31 29 28 28 27 26 26 25 24 23 21 20 18 17 16 16 16 16 16 16 17 17 17 17 17 17 16 16
29 28 27 28 29 26 26 25 26 31 34 32 33 33 31 31 29 28 28 27 26 25 24 23 22 20 19 17 16 16 16 17 16 16 17 17 18 18 17 17 17 16
30 28 27 29 30 27 27 26 24 24 26 28 33 33 31 31 30 28 28 27 26 26 25 24 23 21 20 18 17 16 16 16 16 16 16 17 17 17 17 18 17 17
30 30 29 30 29 26 27 27 24 22 22 23 29 33 32 31 30 29 28 27 26 26 26 25 23 22 20 18 17 17 16 15 15 15 16 16 17 17 17 18 17 17
29 31 31 30 29 27 27 27 24 23 21 20 26 33 33 31 31 30 28 27 27 26 26 25 24 22 20 19 18 17 16 16 15 15 16 16 17 17 17 17 17 17
29 32 32 32 31 28 27 27 27 26 23 20 24 32 33 31 32 30 28 28 27 27 26 25 24 23 21 19 18 17 17 17 16 16 16 16 17 17 17 17 17 17
30 31 32 37 37 33 32 32 33 33 26 20 26 33 33 32 32 30 29 28 27 27 26 25 24 23 22 21 19 18 18 17 17 17 17 17 17 18 17 17 17 17
30 28 30 36 38 35 34 35 35 35 28 23 30 35 33 32 32 31 30 29 27 27 27 26 25 24 22 21 19 19 18 18 18 18 18 18 18 18 18 18 17 17
29 28 30 33 33 32 35 36 36 36 34 32 34 35 33 34 33 32 32 30 27 28 28 27 26 25 23 21 18 18 18 19 20 19 19 19 19 19 19 18 18 17
28 30 30 29 29 33 37 38 36 37 36 33 34 34 33 35 35 34 34 31 27 27 28 29 28 25 23 21 19 17 17 19 21 20 20 20 19 20 20 19 18 17
30 30 29 28 30 36 40 38 37 37 34 32 35 35 34 35 36 35 35 32 29 27 28 29 28 26 24 22 19 18 18 19 21 20 21 21 20 20 20 19 19 18
29 28 28 28 32 37 39 38 37 35 34 36 38 36 34 34 35 36 36 34 32 29 29 30 29 27 25 23 20 18 18 19 20 20 21 21 21 20 20 19 20 20
30 29 29 28 32 37 38 39 37 32 34 39 39 36 35 35 36 37 37 36 35 32 30 31 30 27 26 23 20 19 19 20 20 20 21 21 21 21 20 20 21 22
32 32 30 28 33 38 39 39 35 29 33 38 36 35 37 36 37 39 38 38 37 34 32 32 30 28 26 23 21 19 19 20 20 21 21 21 21 20 20 21 22 22
33 33 33 32 36 39 39 39 35 28 30 33 31 33 37 36 37 40 40 39 37 35 33 32 30 28 26 23 21 20 21 22 22 22 22 22 21 21 21 22 22 22
31 32 33 34 37 39 36 36 33 29 31 35 33 34 36 35 36 39 39 39 38 36 34 33 31 30 27 24 22 22 23 25 24 22 22 22 21 21 22 23 22 23
29 30 32 34 37 37 34 32 28 26 30 34 34 34 35 35 37 38 37 38 38 35 34 33 32 31 29 26 24 24 26 27 25 23 22 21 21 22 23 22 22 22
27 30 31 32 34 35 34 30 25 23 29 33 33 35 36 36 37 37 35 36 37 34 33 33 33 32 30 27 26 26 28 28 26 24 23 22 22 23 23 23 24 23
30 30 30 30 31 33 33 30 26 25 30 34 33 32 34 35 35 35 35 35 35 34 34 34 34 32 30 27 26 27 28 28 27 27 26 25 24 23 23 24 26 25